[[{"header":{"parameterUnit":"m.s-1","parameterCategory":1,"la1":30.6,"la2":28.766,"lo1":-90.7593,"lo2":-88.6598,"dy":0.0162,"dx":0.0183,"nx":116,"ny":114,"refTime":"2023-06-11T06:00:00:Z","depth":0,"parameterNumber":2,"parameterNumberName":"U-component_of_WINDS"},"data":[0.0,0.0,0.0,0.0,0.0,0.0,0.0,0.0,0.0,0.0,0.0,0.0,0.0,0.0,0.0,0.0,0.0,0.0,0.0,0.0,0.0,0.0,0.0,0.0,0.0,0.0,0.0,0.0,0.0,0.0,0.0,0.0,0.0,0.0,0.0,0.0,0.0,0.0,0.0,0.0,0.0,0.0,0.0,0.0,0.0,0.0,0.0,0.0,0.0,0.0,0.0,0.0,0.0,0.0,0.0,0.0,0.0,0.0,0.0,0.0,0.0,0.0,0.0,0.0,0.0,0.0,0.0,0.0,0.0,0.0,0.0,0.0,0.0,0.0,0.0,0.0,0.0,0.0,0.0,0.0,0.0,0.0,0.0,0.0,0.0,0.0,0.0,0.0,0.0,0.0,0.0,0.0,0.0,0.0,0.0,0.0,0.0,0.0,0.0,0.0,0.0,0.0,0.0,0.0,0.0,0.0,0.0,0.0,0.0,0.0,0.0,0.0,0.0,0.0,0.0,0.0,0.0,0.0,0.0,0.0,0.0,0.0,0.0,0.0,0.0,0.0,0.0,0.0,0.0,0.0,0.0,0.0,0.0,0.0,0.0,0.0,0.0,0.0,0.0,0.0,0.0,0.0,0.0,0.0,0.0,0.0,0.0,0.0,0.0,0.0,0.0,0.0,0.0,0.0,0.0,0.0,0.0,0.0,0.0,0.0,0.0,0.0,0.0,0.0,0.0,0.0,0.0,0.0,0.0,0.0,0.0,0.0,0.0,0.0,0.0,0.0,0.0,0.0,0.0,0.0,0.0,0.0,0.0,0.0,0.0,0.0,0.0,0.0,0.0,0.0,0.0,0.0,0.0,0.0,0.0,0.0,0.0,0.0,0.0,0.0,0.0,0.0,0.0,0.0,0.0,0.0,0.0,0.0,0.0,0.0,0.0,0.0,0.0,0.0,0.0,0.0,0.0,0.0,0.0,0.0,0.0,0.0,0.0,0.0,0.0,0.0,0.0,0.0,0.0,0.0,0.0,0.0,0.0,0.0,0.0,0.0,0.0,0.0,0.0,0.0,0.0,0.0,0.0,0.0,0.0,0.0,0.0,0.0,0.0,0.0,0.0,0.0,0.0,0.0,0.0,0.0,0.0,0.0,0.0,0.0,0.0,0.0,0.0,0.0,0.0,0.0,0.0,0.0,0.0,0.0,0.0,0.0,0.0,0.0,0.0,0.0,0.0,0.0,0.0,0.0,0.0,0.0,0.0,0.0,0.0,0.0,0.0,0.0,0.0,0.0,0.0,0.0,0.0,0.0,0.0,0.0,0.0,0.0,0.0,0.0,0.0,0.0,0.0,0.0,0.0,0.0,0.0,0.0,0.0,0.0,0.0,0.0,0.0,0.0,0.0,0.0,0.0,0.0,0.0,0.0,0.0,0.0,0.0,0.0,0.0,0.0,0.0,0.0,0.0,0.0,0.0,0.0,0.0,0.0,0.0,0.0,0.0,0.0,0.0,0.0,0.0,0.0,0.0,0.0,0.0,0.0,0.0,0.0,0.0,0.0,0.0,0.0,0.0,0.0,0.0,0.0,0.0,0.0,0.0,0.0,0.0,0.0,0.0,0.0,0.0,0.0,0.0,0.0,0.0,0.0,0.0,0.0,0.0,0.0,0.0,0.0,0.0,0.0,0.0,0.0,0.0,0.0,0.0,0.0,0.0,0.0,0.0,0.0,0.0,0.0,0.0,0.0,0.0,0.0,0.0,0.0,0.0,0.0,0.0,0.0,0.0,0.0,0.0,0.0,0.0,0.0,0.0,0.0,0.0,0.0,0.0,0.0,0.0,0.0,0.0,0.0,0.0,0.0,0.0,0.0,0.0,0.0,0.0,0.0,0.0,0.0,0.0,0.0,0.0,0.0,0.0,0.0,0.0,0.0,0.0,0.0,0.0,0.0,0.0,0.0,0.0,0.0,0.0,0.0,0.0,0.0,0.0,0.0,0.0,0.0,0.0,0.0,0.0,0.0,0.0,0.0,0.0,0.0,0.0,0.0,0.0,0.0,0.0,0.0,0.0,0.0,0.0,0.0,0.0,0.0,0.0,0.0,0.0,0.0,0.0,0.0,0.0,0.0,0.0,0.0,0.0,0.0,0.0,0.0,0.0,0.0,0.0,0.0,0.0,0.0,0.0,0.0,0.0,0.0,0.0,0.0,0.0,0.0,0.0,0.0,0.0,0.0,0.0,0.0,0.0,0.0,0.0,0.0,0.0,0.0,0.0,0.0,0.0,0.0,0.0,0.0,0.0,0.0,0.0,0.0,0.0,0.0,0.0,0.0,0.0,0.0,0.0,0.0,0.0,0.0,0.0,0.0,0.0,0.0,0.0,0.0,0.0,0.0,0.0,0.0,0.0,0.0,0.0,0.0,0.0,0.0,0.0,0.0,0.0,0.0,0.0,0.0,0.0,0.0,0.0,0.0,0.0,0.0,0.0,0.0,0.0,0.0,0.0,0.0,0.0,0.0,0.0,0.0,0.0,0.0,0.0,0.0,0.0,0.0,0.0,0.0,0.0,0.0,0.0,0.0,0.0,0.0,0.0,0.0,0.0,0.0,0.0,0.0,0.0,0.0,0.0,0.0,0.0,0.0,0.0,0.0,0.0,0.0,0.0,0.0,0.0,0.0,0.0,0.0,0.0,0.0,0.0,0.0,0.0,0.0,0.0,0.0,0.0,0.0,0.0,0.0,0.0,0.0,0.0,0.0,0.0,0.0,0.0,0.0,0.0,0.0,0.0,0.0,0.0,0.0,0.0,0.0,0.0,0.0,0.0,0.0,0.0,0.0,0.0,0.0,0.0,0.0,0.0,0.0,0.0,0.0,0.0,0.0,0.0,0.0,0.0,0.0,0.0,0.0,0.0,0.0,0.0,0.0,0.0,0.0,0.0,0.0,0.0,0.0,0.0,0.0,0.0,0.0,0.0,0.0,0.0,0.0,0.0,0.0,0.0,0.0,0.0,0.0,0.0,0.0,0.0,0.0,0.0,0.0,0.0,0.0,0.0,0.0,0.0,0.0,0.0,0.0,0.0,0.0,0.0,0.0,0.0,0.0,0.0,0.0,0.0,0.0,0.0,0.0,0.0,0.0,0.0,0.0,0.0,0.0,0.0,0.0,0.0,0.0,0.0,0.0,0.0,0.0,0.0,0.0,0.0,0.0,0.0,0.0,0.0,0.0,0.0,0.0,0.0,0.0,0.0,0.0,0.0,0.0,0.0,0.0,0.0,0.0,0.0,0.0,0.0,0.0,0.0,0.0,0.0,0.0,0.0,0.0,0.0,0.0,0.0,0.0,0.0,0.0,0.0,0.0,0.0,0.0,0.0,0.0,0.0,0.0,0.0,0.0,0.0,0.0,0.0,0.0,0.0,0.0,0.0,0.0,0.0,0.0,0.0,0.0,0.0,0.0,0.0,0.0,0.0,0.0,0.0,0.0,0.0,0.0,0.0,0.0,0.0,0.0,0.0,0.0,0.0,0.0,0.0,0.0,0.0,0.0,0.0,0.0,0.0,0.0,0.0,0.0,0.0,0.0,0.0,0.0,0.0,0.0,0.0,0.0,0.0,0.0,0.0,0.0,0.0,0.0,0.0,0.0,0.0,0.0,0.0,0.0,0.0,0.0,0.0,0.0,0.0,0.0,0.0,0.0,0.0,0.0,0.0,0.0,0.0,0.0,0.0,0.0,0.0,0.0,0.0,0.0,0.0,0.0,0.0,0.0,0.0,0.0,0.0,0.0,0.0,0.0,0.0,0.0,0.0,0.0,0.0,0.0,0.0,0.0,0.0,0.0,0.0,0.0,0.0,0.0,0.0,0.0,0.0,0.0,0.0,0.0,0.0,0.0,0.0,0.0,0.0,0.0,0.0,0.0,0.0,0.0,0.0,0.0,0.0,0.0,0.0,0.0,0.0,0.0,0.0,0.0,0.0,0.0,0.0,0.0,0.0,0.0,0.0,0.0,0.0,0.0,0.0,0.0,0.0,0.0,0.0,0.0,0.0,0.0,0.0,0.0,0.0,0.0,0.0,0.0,0.0,0.0,0.0,0.0,0.0,0.0,0.0,0.0,0.0,0.0,0.0,0.0,0.0,0.0,0.0,0.0,0.0,0.0,0.0,0.0,0.0,0.0,0.0,0.0,0.0,0.0,0.0,0.0,0.0,0.0,0.0,0.0,0.0,0.0,0.0,0.0,0.0,0.0,0.0,0.0,0.0,0.0,0.0,0.0,0.0,0.0,0.0,0.0,0.0,0.0,0.0,0.0,0.0,0.0,0.0,0.0,0.0,0.0,0.0,0.0,0.0,0.0,0.0,0.0,0.0,0.0,0.0,0.0,0.0,0.0,0.0,0.0,0.0,0.0,0.0,0.0,0.0,0.0,0.0,0.0,0.0,0.0,0.0,0.0,0.0,0.0,0.0,0.0,0.0,0.0,0.0,0.0,0.0,0.0,0.0,0.0,0.0,0.0,0.0,0.0,0.0,0.0,0.0,0.0,0.0,0.0,0.0,0.0,0.0,0.0,0.0,0.0,0.0,0.0,0.0,0.0,0.0,0.0,0.0,0.0,0.0,0.0,0.0,0.0,0.0,0.0,0.0,0.0,0.0,0.0,0.0,0.0,0.0,0.0,0.0,0.0,0.0,0.0,0.0,0.0,0.0,0.0,0.0,0.0,0.0,0.0,0.0,0.0,0.0,0.0,0.0,0.0,0.0,0.0,0.0,0.0,0.0,0.0,0.0,0.0,0.0,0.0,0.0,0.0,0.0,0.0,0.0,0.0,0.0,0.0,0.0,0.0,0.0,0.0,0.0,0.0,0.0,0.0,0.0,0.0,0.0,0.0,0.0,0.0,0.0,0.0,0.0,0.0,0.0,0.0,0.0,0.0,0.0,0.0,0.0,0.0,0.0,0.0,0.0,0.0,0.0,0.0,0.0,0.0,0.0,0.0,0.0,0.0,0.0,0.0,0.0,0.0,0.0,0.0,0.0,0.0,0.0,0.0,0.0,0.0,0.0,0.0,0.0,0.0,0.0,0.0,0.0,0.0,0.0,0.0,0.0,0.0,0.0,0.0,0.0,0.0,0.0,0.0,0.0,0.0,0.0,0.0,0.0,0.0,0.0,0.0,0.0,0.0,0.0,0.0,0.0,0.0,0.0,0.0,0.0,0.0,0.0,0.0,0.0,0.0,0.0,0.0,0.0,0.0,0.0,0.0,0.0,0.0,0.0,0.0,0.0,0.0,0.0,0.0,0.0,0.0,0.0,0.0,0.0,0.0,0.0,0.0,0.0,0.0,0.0,0.0,0.0,0.0,0.0,0.0,0.0,0.0,0.0,0.0,0.0,0.0,0.0,0.0,0.0,0.0,0.0,0.0,0.0,0.0,0.0,0.0,0.0,0.0,0.0,0.0,0.0,0.0,0.0,0.0,0.0,0.0,0.0,0.0,0.0,0.0,0.0,0.0,0.0,0.0,0.0,0.0,0.0,0.0,0.0,0.0,0.0,0.0,0.0,0.0,0.0,0.0,0.0,0.0,0.0,0.0,0.0,0.0,0.0,0.0,0.0,0.0,0.0,0.0,0.0,0.0,0.0,0.0,0.0,0.0,0.0,0.0,0.0,0.0,0.0,0.0,0.0,0.0,0.0,0.0,0.0,0.0,0.0,0.0,0.0,0.0,0.0,0.0,0.0,0.0,0.0,0.0,0.0,0.0,0.0,0.0,0.0,0.0,0.0,0.0,0.0,0.0,0.0,0.0,0.0,0.0,0.0,0.0,0.0,0.0,0.0,0.0,0.0,0.0,0.0,0.0,0.0,0.0,0.0,0.0,0.0,0.0,0.0,0.0,0.0,0.0,0.0,0.0,0.0,0.0,0.0,0.0,0.0,0.0,0.0,0.0,0.0,0.0,0.0,0.0,0.0,0.0,0.0,0.0,0.0,0.0,0.0,0.0,0.0,0.0,0.0,0.0,0.0,0.0,0.0,0.0,0.0,0.0,0.0,0.0,0.0,0.0,0.0,0.0,0.0,0.0,0.0,0.0,0.0,0.0,0.0,0.0,0.0,0.0,0.0,0.0,0.0,0.0,-2.4386,0.0,0.0,0.0,0.0,0.0,0.0,0.0,0.0,0.0,0.0,0.0,0.0,0.0,0.0,0.0,0.0,0.0,0.0,0.0,0.0,0.0,0.0,0.0,0.0,0.0,0.0,0.0,0.0,0.0,0.0,0.0,0.0,0.0,0.0,0.0,0.0,0.0,0.0,0.0,0.0,0.0,0.0,0.0,0.0,0.0,0.0,0.0,0.0,0.0,0.0,0.0,0.0,0.0,0.0,0.0,0.0,0.0,0.0,0.0,0.0,0.0,0.0,0.0,0.0,0.0,0.0,0.0,0.0,0.0,0.0,0.0,0.0,0.0,0.0,0.0,0.0,0.0,0.0,0.0,0.0,0.0,0.0,0.0,0.0,0.0,0.0,0.0,0.0,0.0,0.0,0.0,0.0,0.0,0.0,0.0,0.0,0.0,0.0,0.0,0.0,0.0,0.0,0.0,0.0,0.0,0.0,0.0,0.0,0.0,0.0,0.0,0.0,0.0,0.0,0.0,0.0,-2.5753,0.0,0.0,0.0,0.0,0.0,0.0,0.0,0.0,0.0,0.0,0.0,0.0,0.0,0.0,0.0,0.0,0.0,0.0,0.0,0.0,0.0,0.0,0.0,0.0,0.0,0.0,0.0,0.0,0.0,0.0,0.0,0.0,0.0,0.0,0.0,0.0,0.0,0.0,0.0,0.0,0.0,0.0,0.0,0.0,0.0,0.0,0.0,0.0,0.0,0.0,0.0,0.0,0.0,0.0,0.0,0.0,0.0,0.0,0.0,0.0,0.0,0.0,0.0,0.0,0.0,0.0,0.0,0.0,0.0,0.0,0.0,0.0,0.0,0.0,0.0,0.0,0.0,0.0,0.0,0.0,0.0,0.0,0.0,0.0,0.0,0.0,0.0,0.0,0.0,0.0,0.0,0.0,0.0,0.0,0.0,0.0,0.0,0.0,0.0,0.0,0.0,0.0,0.0,0.0,0.0,0.0,0.0,0.0,-3.2817,-3.337,-3.3646,-3.3847,-3.3621,-3.2968,-3.106,-2.9076,-2.7168,-2.7092,0.0,0.0,0.0,0.0,0.0,0.0,0.0,0.0,0.0,0.0,0.0,0.0,0.0,0.0,0.0,0.0,0.0,0.0,0.0,0.0,0.0,0.0,0.0,0.0,0.0,0.0,0.0,0.0,0.0,0.0,0.0,0.0,0.0,0.0,0.0,0.0,0.0,0.0,-1.0779,-1.1039,-1.1424,-1.1856,0.0,0.0,0.0,0.0,0.0,0.0,0.0,0.0,0.0,0.0,0.0,0.0,0.0,0.0,0.0,0.0,0.0,0.0,0.0,0.0,0.0,0.0,0.0,0.0,0.0,0.0,0.0,0.0,0.0,0.0,0.0,0.0,0.0,0.0,0.0,0.0,0.0,0.0,0.0,0.0,0.0,0.0,0.0,0.0,-2.2975,-2.3599,0.0,0.0,0.0,0.0,0.0,0.0,0.0,0.0,0.0,0.0,0.0,0.0,0.0,-3.1837,-3.2416,-3.4073,-3.47,-3.4299,-3.6282,-3.6784,-3.5956,-3.691,-3.7061,-3.6483,-3.5705,0.0,-3.003,-2.9553,0.0,0.0,0.0,0.0,0.0,0.0,0.0,0.0,0.0,0.0,0.0,0.0,0.0,0.0,0.0,0.0,0.0,0.0,0.0,0.0,0.0,0.0,0.0,0.0,0.0,0.0,0.0,0.0,0.0,0.0,0.0,0.0,0.0,0.0,0.0,0.0,-1.1131,-1.0539,-0.9947,-1.0091,-1.0194,-1.0261,-1.0534,-1.1071,-1.1776,-1.1263,0.0,0.0,0.0,0.0,0.0,0.0,0.0,0.0,0.0,0.0,0.0,0.0,0.0,0.0,0.0,0.0,0.0,0.0,0.0,0.0,0.0,0.0,0.0,0.0,0.0,0.0,0.0,0.0,0.0,0.0,0.0,0.0,0.0,0.0,0.0,0.0,0.0,0.0,0.0,-2.3255,-2.476,-2.415,-2.4862,-2.4782,0.0,0.0,0.0,0.0,0.0,0.0,0.0,0.0,0.0,-3.362,-3.4981,-3.5495,-3.4992,-3.6584,-3.7437,-3.7538,-3.8818,-3.932,-3.917,-3.9346,-3.9295,-3.9019,-3.8467,-3.6734,-3.4173,-3.2365,-3.111,-3.0156,0.0,0.0,0.0,0.0,-2.7478,-2.7385,0.0,0.0,0.0,0.0,0.0,0.0,0.0,0.0,0.0,0.0,0.0,0.0,0.0,0.0,0.0,-1.5174,0.0,0.0,0.0,0.0,0.0,0.0,0.0,0.0,0.0,0.0,0.0,0.0,-1.0309,-0.9798,-0.9271,-0.9098,-0.9078,-0.9098,-0.926,-0.9923,-1.088,-1.0872,-1.0599,0.0,0.0,0.0,0.0,0.0,0.0,0.0,0.0,0.0,0.0,0.0,0.0,0.0,0.0,0.0,0.0,0.0,0.0,0.0,0.0,0.0,0.0,0.0,0.0,0.0,0.0,0.0,0.0,0.0,0.0,0.0,0.0,0.0,0.0,0.0,0.0,0.0,0.0,-2.5304,-2.6342,-2.4926,-2.6502,-2.6841,0.0,0.0,0.0,0.0,0.0,0.0,-3.4525,-3.636,-3.731,-3.7014,-3.8336,-3.8568,-3.7412,-3.8668,-3.9572,-4.0124,-4.0526,-4.0877,-4.1128,-4.0852,-4.0576,-4.0275,-3.9873,-3.8994,-3.7613,-3.4851,-3.3043,-3.1913,-3.0683,-3.003,-2.9804,-3.0105,-2.993,-2.9679,0.0,0.0,0.0,0.0,0.0,0.0,0.0,0.0,0.0,0.0,0.0,0.0,0.0,0.0,-1.5342,-1.6729,-1.7283,-1.754,0.0,0.0,0.0,0.0,0.0,0.0,0.0,0.0,0.0,-1.1288,-1.0009,-0.9225,-0.8833,-0.8334,-0.8168,-0.8441,-0.8168,-0.9287,-1.1331,-1.0247,-1.0248,-1.0819,0.0,0.0,0.0,0.0,0.0,0.0,0.0,0.0,0.0,0.0,0.0,0.0,0.0,0.0,0.0,0.0,0.0,0.0,0.0,0.0,0.0,0.0,0.0,0.0,0.0,0.0,0.0,0.0,0.0,0.0,0.0,0.0,0.0,0.0,0.0,0.0,0.0,0.0,0.0,-2.6483,-2.9227,0.0,0.0,0.0,0.0,-2.958,-3.15,-3.3436,-3.5147,-3.6626,-3.8027,-3.9275,-3.986,-4.0253,-4.03,-4.04,-4.0701,-4.1254,-4.1279,-4.1028,-4.0576,-4.1078,-4.0727,-3.9747,-3.9697,-3.9647,-3.9346,-3.6558,-3.4776,-3.3596,-3.1964,-3.1612,-3.1989,-3.1486,-3.1286,-3.126,0.0,0.0,0.0,0.0,0.0,0.0,0.0,0.0,0.0,0.0,0.0,0.0,0.0,-1.5419,-1.6874,-1.7843,-1.9057,-1.9403,-1.863,0.0,0.0,0.0,0.0,0.0,0.0,0.0,-1.1523,-1.1145,-0.9529,-0.862,-0.8281,-0.7687,-0.7114,-0.6599,-0.6376,-0.7259,-0.8877,-0.907,-0.9424,-0.982,-0.9299,-0.9112,0.0,0.0,0.0,0.0,0.0,0.0,0.0,0.0,0.0,0.0,0.0,0.0,0.0,0.0,0.0,0.0,0.0,0.0,0.0,0.0,0.0,0.0,0.0,0.0,0.0,0.0,0.0,0.0,0.0,0.0,0.0,0.0,0.0,0.0,0.0,0.0,0.0,-2.9679,-3.1938,0.0,-3.0934,-3.2107,-3.3286,-3.3939,-3.689,-3.9159,-4.0183,-4.1882,-4.2824,-4.2865,-4.3101,-4.3096,-4.2635,-4.2283,-4.2208,-4.2384,-4.2384,-4.2283,-4.2082,-4.158,-4.1128,-4.0701,-3.9998,-3.9496,-3.9094,-3.809,-3.7236,-3.6408,-3.5127,-3.4299,-3.3847,-3.3997,-3.3621,-3.2957,0.0,0.0,0.0,0.0,0.0,0.0,0.0,0.0,0.0,0.0,0.0,-1.411,-1.4877,-1.6542,-1.7895,-1.871,-1.9811,-1.9963,-1.8854,0.0,0.0,0.0,0.0,0.0,0.0,-1.2832,-1.1852,-1.1517,-0.9637,-0.8486,-0.7967,-0.7269,-0.6422,-0.5515,-0.542,-0.6073,-0.7319,-0.8254,-0.8788,-0.8896,-0.8953,-0.8987,-0.8976,0.0,0.0,0.0,0.0,0.0,0.0,0.0,0.0,0.0,0.0,0.0,0.0,0.0,0.0,0.0,0.0,0.0,0.0,0.0,0.0,0.0,0.0,0.0,0.0,0.0,0.0,0.0,0.0,0.0,0.0,0.0,0.0,0.0,0.0,0.0,-3.2164,-3.1989,-3.4424,-3.5378,-3.352,-3.5277,-3.6845,-3.7686,-4.0027,-4.2001,-4.3194,-4.4253,-4.4837,-4.4668,-4.4779,-4.454,-4.4066,-4.3338,-4.3062,-4.3263,-4.2886,-4.271,-4.266,-4.1957,-4.1404,-4.1028,-4.03,-3.9672,-3.9145,-3.9145,-3.8919,-3.8467,-3.7387,-3.6483,-3.5855,-3.6031,-3.5226,-3.3766,0.0,0.0,0.0,0.0,0.0,0.0,0.0,0.0,0.0,0.0,-1.4861,-1.5606,-1.6115,-1.7285,-1.8379,-1.9219,-1.9348,-1.8938,-1.7977,-1.8044,0.0,0.0,0.0,0.0,-1.5293,-1.3457,-1.2464,-1.2406,-1.0393,-0.8945,-0.8011,-0.7093,-0.626,-0.5491,-0.5491,-0.5947,-0.6811,-0.7932,-0.8422,-0.8414,-0.8421,-0.8814,-0.9217,0.0,0.0,0.0,0.0,0.0,0.0,0.0,0.0,0.0,0.0,0.0,0.0,0.0,0.0,0.0,0.0,0.0,0.0,0.0,0.0,0.0,0.0,0.0,0.0,0.0,0.0,0.0,0.0,0.0,0.0,0.0,0.0,0.0,-2.8725,-3.1888,-3.3796,-3.3319,-3.6634,-3.809,-3.5906,-3.7688,-3.9421,-4.0501,-4.0626,-4.158,-4.374,-4.3363,-4.3589,-4.4669,-4.4669,-4.4669,-4.4669,-4.3589,-4.3288,-4.379,-4.271,-4.2183,-4.2183,-4.2158,-4.158,-4.0445,-4.042,-4.0224,-3.9644,-3.9697,-3.9697,-3.9597,-3.8492,-3.804,-3.7965,-3.7437,-3.6063,-3.3852,0.0,0.0,0.0,0.0,0.0,0.0,0.0,0.0,0.0,0.0,-1.7263,-1.739,-1.8189,-1.8685,-1.9023,-1.9258,-1.8594,-1.7935,-1.7509,0.0,0.0,0.0,0.0,0.0,-1.519,-1.3426,-1.2592,-1.2758,-1.029,-0.9202,-0.9248,-0.7409,-0.6831,-0.7307,-0.7378,-0.769,-0.8157,-0.9018,-0.9243,-0.9049,-0.9187,-0.8675,-0.7838,0.0,0.0,0.0,0.0,0.0,0.0,0.0,0.0,0.0,0.0,0.0,0.0,0.0,0.0,0.0,0.0,0.0,0.0,0.0,0.0,0.0,0.0,0.0,0.0,0.0,0.0,0.0,0.0,0.0,0.0,0.0,0.0,-2.9496,-3.1048,-3.3822,-3.6081,-3.7161,-3.927,-4.0249,-3.9245,-4.0425,-4.1555,-4.2258,-4.3037,-4.394,-4.497,-4.5271,-4.5723,-4.6426,-4.5673,-4.5447,-4.5849,-4.4744,-4.4041,-4.379,-4.3489,-4.2549,-4.1087,-4.1867,-4.0721,-3.8318,-3.9839,-3.9964,-3.9201,-3.9556,-3.9923,-4.0224,-3.9496,-3.8994,-3.8617,-3.8467,-3.6348,-3.3254,0.0,0.0,0.0,0.0,0.0,0.0,0.0,0.0,0.0,0.0,-1.835,-1.836,-1.8531,-1.8954,-1.9143,-1.8894,-1.8281,-1.7742,-1.7202,0.0,0.0,0.0,0.0,-1.5626,-1.5362,-1.4087,-1.3386,-1.3164,-1.0989,-0.9869,-0.9564,-0.8054,-0.7481,-0.7815,-0.7902,-0.8045,-0.8409,-0.9332,-0.9364,-0.8929,-0.9567,-0.9251,-0.8176,-0.7044,-0.735,-0.843,-0.7778,-0.8454,-0.9412,-0.8234,0.0,0.0,0.0,0.0,0.0,0.0,0.0,0.0,0.0,0.0,0.0,0.0,0.0,0.0,0.0,0.0,0.0,0.0,0.0,0.0,0.0,0.0,0.0,0.0,-2.7127,-3.0944,-3.3088,-3.5481,-3.7663,-3.9371,-4.0601,-4.1404,-4.153,-4.2133,-4.2811,-4.3614,-4.4041,-4.4644,-4.5447,-4.6024,-4.6451,-4.6778,-4.6401,-4.6326,-4.6652,-4.5547,-4.4568,-4.3713,-4.3995,-4.2641,-3.9965,-4.1215,-4.0235,0.0,-3.9411,-3.9746,-3.8951,-3.9964,-4.0425,0.0,0.0,0.0,0.0,0.0,-3.5409,-3.2886,0.0,0.0,0.0,0.0,0.0,0.0,0.0,0.0,0.0,0.0,0.0,-1.8649,-1.7962,-1.8425,-1.8627,-1.8109,-1.7983,-1.7548,0.0,0.0,0.0,-1.523,-1.5912,-1.6105,-1.5573,-1.5048,-1.4392,-1.3579,-1.21,-1.0715,-0.9427,-0.8715,-0.8083,-0.7539,-0.7519,-0.7701,-0.8138,-0.9253,-0.9231,-0.8617,-0.9899,-1.0137,-0.9276,-0.6937,-0.772,-0.9982,-0.8009,-0.8743,-1.0302,-0.8634,0.0,0.0,0.0,0.0,0.0,0.0,0.0,0.0,0.0,0.0,0.0,0.0,0.0,0.0,0.0,0.0,0.0,0.0,0.0,0.0,0.0,0.0,0.0,0.0,-2.8519,-3.1869,-3.4527,-3.6697,-3.8566,-4.0325,-4.1103,-4.1907,-4.2886,-4.3037,-4.3539,-4.4644,-4.4267,-4.4493,-4.5623,0.0,0.0,0.0,0.0,-4.7129,-4.7129,-4.6225,-4.5009,-4.3636,-4.4249,-4.24,-3.8809,-4.0379,-3.961,-3.717,-3.8989,-3.9504,-3.8942,-4.0523,-4.0927,-4.0375,-3.9898,-3.9697,-3.9312,-3.6084,-3.4374,-3.3249,0.0,0.0,0.0,0.0,0.0,0.0,0.0,0.0,0.0,-1.9506,-1.9156,-1.8718,-1.8261,-1.7554,-1.6987,-1.6594,-1.5572,-1.4769,0.0,0.0,-1.5207,-1.4503,-1.5389,-1.5555,-1.4921,-1.4831,-1.4392,-1.3579,-1.241,-1.105,-0.9727,-0.88,-0.8243,-0.7886,-0.7641,-0.7782,-0.8374,-0.9571,-1.0078,-1.0147,-1.0595,-0.9929,-0.8806,-0.8548,-0.8745,-0.9109,-0.8909,-0.9432,-1.0031,-0.8854,-0.8845,-0.9134,-0.7785,0.0,0.0,0.0,0.0,0.0,0.0,0.0,0.0,0.0,0.0,0.0,0.0,0.0,0.0,0.0,0.0,0.0,0.0,0.0,0.0,-2.9444,-3.2129,-3.4256,-3.463,-3.6391,-3.8323,-4.032,-4.1781,-4.2735,-4.2961,-4.3388,-4.4116,-4.5246,-4.5221,-4.5648,-4.6753,-4.6502,-4.6702,-4.7581,-4.7305,-4.7129,-4.7129,-4.733,-4.5921,-4.3089,0.0,0.0,-3.7445,-3.9175,-3.8,-3.4891,-3.8698,-3.9546,-3.843,-3.9965,-4.035,-3.9848,-3.9747,-3.9697,-3.9465,-3.757,-3.659,-3.584,0.0,0.0,0.0,0.0,0.0,0.0,0.0,0.0,0.0,0.0,-1.8881,-1.835,-1.7839,-1.7075,-1.6416,-1.5972,-1.4679,0.0,0.0,-1.3981,-1.408,-1.3544,-1.4569,-1.4976,-1.4684,-1.4731,-1.4418,-1.3808,-1.2142,-1.0857,-0.9952,-0.8691,-0.8164,-0.8225,-0.7484,-0.7398,-0.7969,-0.8852,-0.96,-1.0243,-1.0489,-1.0719,-1.0866,-1.0176,-1.0047,-1.0289,-1.0911,-1.1423,-1.1605,-1.0649,-1.0445,-1.0418,-0.9892,-0.994,-1.0182,0.0,0.0,0.0,0.0,0.0,0.0,0.0,0.0,0.0,0.0,0.0,0.0,0.0,0.0,-2.4767,0.0,0.0,-3.0439,-2.9827,-3.1919,-3.363,-3.3835,-3.5553,-3.7504,-3.9599,-4.1196,-4.2585,-4.3689,-4.379,-4.4267,-4.5397,-4.5497,-4.5849,-4.6677,-4.6979,-4.7355,-4.7883,-4.7657,-4.7657,-4.7958,-4.7657,-4.6064,-4.3193,-4.3984,-4.1775,-3.6983,-3.8399,-3.7524,-3.4949,-3.8187,-3.9044,-3.8208,-3.9831,-4.035,-4.0074,-3.9798,-3.9697,-3.9465,-3.8031,-3.7226,-3.6564,0.0,0.0,0.0,0.0,0.0,0.0,0.0,0.0,0.0,0.0,0.0,-1.7851,-1.7038,-1.6389,-1.5725,0.0,0.0,0.0,0.0,-1.2802,-1.2772,-1.2661,-1.3541,-1.4082,-1.4305,-1.4407,-1.4215,-1.3657,-1.1783,-1.0519,-0.975,-0.8448,-0.7865,-0.7929,-0.6618,-0.6424,-0.7105,-0.7664,-0.8369,-0.9243,-1.0096,-1.1546,-1.2997,-1.1834,-1.1755,-1.2193,-1.2755,-1.3099,-1.3154,-1.2336,-1.189,-1.1729,-1.1949,-1.2149,-1.2395,-1.2992,-1.3609,0.0,0.0,0.0,0.0,0.0,0.0,0.0,0.0,0.0,-2.2097,-2.3619,-2.5508,-2.7033,-2.7336,-2.9699,-3.1214,-3.0181,-3.1306,-3.2525,-3.3014,-3.4731,-3.661,-3.8366,-4.033,-4.2283,-4.4267,-4.4166,-4.4342,-4.5246,-4.5522,-4.5849,-4.6276,-4.723,-4.7807,-4.7908,-4.8008,-4.8234,-4.8611,-4.7658,-4.5854,-4.3354,-4.4222,-4.1834,-3.7034,-3.7909,-3.7287,-3.5583,-3.7734,-3.8709,-3.8757,-3.9976,-4.045,-4.03,-3.9873,-3.9697,-3.9594,-3.8348,-3.7742,-3.7148,0.0,0.0,0.0,0.0,0.0,0.0,0.0,0.0,0.0,0.0,0.0,0.0,0.0,0.0,0.0,0.0,0.0,0.0,-1.157,-1.1251,-1.1374,-1.204,-1.2129,-1.2422,-1.2922,-1.3332,-1.3203,-1.239,-1.1501,-1.0276,-0.8752,-0.7883,-0.6937,-0.5929,-0.4036,-0.4176,-0.6002,-0.6173,-0.6304,-0.6684,-0.9585,-1.139,-1.2449,-1.363,-1.4162,-1.407,-1.314,-1.2816,-1.2732,-1.201,-1.202,-1.2305,-1.2338,-1.2685,-1.3053,-1.3009,0.0,-1.3358,-1.3484,-1.4716,-1.6455,-1.8797,-1.9594,-2.0469,0.0,0.0,-2.4157,-2.6455,-2.7777,-2.8985,-3.0482,-3.2205,-3.3404,-3.3744,-3.3304,-3.3014,-3.3056,-3.4447,-3.5668,-3.6386,-3.9744,-4.2534,-4.3765,-4.4292,-4.4593,-4.4719,-4.5648,-4.625,-4.6301,-4.6903,-4.7431,-4.7883,-4.841,-4.846,-4.8008,-4.7603,-4.6066,-4.3241,-4.2678,-4.08,-3.7773,-3.7485,-3.6838,-3.5975,-3.752,-3.9175,-4.0889,-4.0564,-4.0224,-3.9772,-3.9722,-3.9697,-3.9697,-3.9465,-3.944,-3.9365,0.0,0.0,0.0,0.0,0.0,0.0,0.0,0.0,0.0,0.0,0.0,0.0,0.0,0.0,0.0,0.0,0.0,0.0,-1.0322,-0.9576,-0.9811,-1.1243,-1.1269,-1.1898,-1.3138,-1.2647,-1.2187,-1.186,-1.042,-0.9269,-0.841,-0.7312,-0.6469,-0.5898,-0.257,-0.1614,-0.2524,-0.4241,-0.5398,-0.6407,-0.8941,-1.1034,-1.2756,-1.3447,-1.4303,-1.5005,-1.4915,-1.4601,0.0,0.0,-1.432,-1.4538,-1.4775,-1.5206,-1.5678,-1.5621,-1.6277,0.0,-1.7914,-1.8065,0.0,0.0,-2.189,-2.2559,-2.4062,-2.4687,-2.531,-2.6823,-2.7843,-2.8773,-2.9723,-3.0797,-3.1712,0.0,-3.1901,-3.2011,-3.2475,-3.3857,-3.5147,-3.6348,-3.9014,-4.1404,-4.3162,-4.3539,-4.394,-4.4568,-4.5372,-4.5974,-4.6301,-4.7129,-4.7832,-4.8385,-4.8962,-4.9289,-4.9364,-4.8149,-4.6607,-4.4676,-4.3092,-4.1252,-3.9043,-3.8359,-3.8225,-3.8484,-3.9476,-4.0564,-4.1781,-4.1229,-4.0676,-4.0174,-4.0174,-3.9973,-3.9697,-3.9697,-3.9697,-3.9697,0.0,0.0,0.0,0.0,0.0,0.0,0.0,0.0,0.0,0.0,0.0,0.0,0.0,0.0,0.0,0.0,0.0,0.0,0.0,-0.808,-0.8199,-0.9913,-0.986,0.0,-1.2265,-1.1388,-1.0961,-1.0961,-0.9387,-0.853,-0.8336,-0.6374,-0.5716,-0.6051,-0.0504,0.1267,-0.0171,-0.2561,-0.4546,-0.6351,-0.8313,-1.0442,-1.239,-1.2899,-1.39,-1.5096,-1.5482,-1.5285,0.0,0.0,-1.5593,-1.587,-1.6151,-1.6793,-1.749,-1.7523,-1.8569,-2.0013,-2.135,0.0,0.0,-2.295,-2.3887,-2.4473,-2.5019,-2.5723,-2.6484,-2.7207,-2.7871,-2.8418,-2.8848,-2.9531,-3.0059,-3.0176,-3.0586,-3.1166,-3.2114,-3.3443,-3.491,-3.627,-3.8251,-4.0149,-4.1907,-4.2484,-4.3212,-4.4317,-4.492,-4.5573,-4.6276,-4.733,-4.8234,-4.8987,-4.954,-5.0092,-5.0645,-4.8284,-4.6703,-4.5796,-4.332,-4.1453,-4.0039,-3.8906,-3.9081,-4.03,-4.041,-4.1225,-4.2308,-4.1455,-4.0877,-4.0501,-4.035,-4.0049,-3.9697,-3.9697,-3.9697,-3.9697,0.0,0.0,0.0,0.0,0.0,0.0,0.0,0.0,0.0,0.0,0.0,0.0,0.0,0.0,0.0,0.0,0.0,0.0,0.0,-0.6876,-0.6746,-0.774,-0.7583,-0.7948,-0.9205,-0.9339,-0.937,-0.937,-0.8622,-0.8328,-0.8518,-0.4905,-0.4329,-0.5924,0.2968,0.4316,-0.0089,-0.1362,-0.3381,-0.599,-0.8019,-0.9555,-1.0822,-1.2243,-1.3339,-1.4068,-1.3711,0.0,0.0,0.0,-1.4536,-1.5293,-1.5363,-1.6314,0.0,-1.7578,-1.8686,0.0,0.0,0.0,-2.2891,-2.5019,-2.5574,-2.5898,-2.6738,-2.7285,-2.7734,-2.8164,-2.8281,-2.8418,-2.8848,-2.9277,-2.9726,-3.0137,-3.0586,-3.1166,-3.2114,-3.3443,-3.4774,-3.5695,-3.7685,-3.912,0.0,-4.1229,-4.2635,-4.374,-4.4342,-4.5146,-4.625,-4.733,-4.841,-4.954,-5.0117,-5.067,-5.1247,-4.7889,-4.6267,-4.6145,-4.2829,-4.0918,-4.0449,-3.873,-3.9096,-4.0918,-3.9467,-4.034,-4.2836,-4.1204,-4.0526,-4.0475,-3.9923,-3.9697,-3.9697,-3.9697,-3.9697,-3.9697,0.0,0.0,0.0,0.0,0.0,0.0,0.0,0.0,0.0,0.0,0.0,0.0,0.0,0.0,0.0,0.0,0.0,0.0,0.0,-0.4866,-0.4381,-0.6347,-0.6561,-0.7755,-1.0063,-0.9286,-0.9086,-0.9577,-0.7926,-0.7118,-0.7069,-0.6191,-0.4448,-0.1957,0.1029,0.3216,0.441,-0.0594,-0.4753,-0.8179,-0.8384,-0.9673,-1.1375,-1.1913,-1.2764,-1.3704,0.0,0.0,0.0,0.0,-1.6025,-1.6697,-1.7059,0.0,0.0,-1.9848,-2.0997,-2.2262,0.0,0.0,-2.4995,-2.7056,-2.7442,-2.7656,-2.8516,-2.8594,-2.8457,-2.832,-2.7832,-2.7402,-2.7266,-2.7578,-2.8105,-2.8809,-2.9551,-3.0492,-3.201,-3.3835,-3.516,-3.5718,-3.798,0.0,0.0,0.0,0.0,-4.3137,-4.4116,-4.5121,-4.625,-4.7682,-4.8812,-4.9565,-5.0494,-5.1272,-5.1825,-4.8425,-4.6782,-4.6636,-4.3014,-4.0801,-4.0059,-4.0141,-4.0615,-4.1432,-4.1076,-4.1969,-4.3413,-4.2133,-4.1379,-4.1003,-4.045,-4.0023,-3.9697,-3.9697,-3.9697,-3.9697,0.0,0.0,0.0,0.0,0.0,0.0,0.0,0.0,0.0,0.0,0.0,0.0,0.0,0.0,0.0,0.0,0.0,0.0,0.0,0.0,-0.2628,-0.3708,-0.4549,-0.5943,-0.7843,-0.7286,-0.7382,-0.8394,-0.7025,-0.5994,-0.5364,-0.5903,-0.4792,-0.2249,-0.1189,0.0857,0.3089,-0.1824,-0.5984,-0.9396,-0.9625,-1.0547,-1.1794,-1.2142,-1.2798,0.0,0.0,0.0,0.0,0.0,0.0,0.0,-1.822,-1.9152,-2.0257,-2.1888,-2.322,-2.4536,-2.6028,-2.6752,-2.7409,-2.8723,-2.891,-2.8848,-2.9238,-2.9004,-2.8535,-2.7949,-2.7031,-2.6289,-2.6172,-2.6113,-2.6465,-2.7637,-2.8437,-2.9729,-3.1906,-3.3835,-3.554,-3.6732,-3.8859,-4.035,0.0,0.0,0.0,-4.3187,-4.4116,-4.5271,-4.6803,-4.8083,-4.9213,-5.0167,-5.1096,-5.1555,-5.1368,-4.8488,-4.6293,-4.4849,-4.235,-4.0723,-3.9863,-4.0257,-4.0682,-4.1022,-4.1206,-4.2018,-4.3136,-4.2238,-4.1656,-4.1254,-4.0526,-3.9998,-3.9697,-3.9697,-3.9697,-3.9697,0.0,0.0,0.0,0.0,0.0,0.0,0.0,0.0,0.0,0.0,0.0,0.0,0.0,0.0,0.0,0.0,0.0,0.0,0.0,0.0,0.0,-0.0061,-0.1815,-0.2909,-0.319,-0.3701,-0.4621,-0.6029,-0.6009,-0.5253,-0.3847,-0.4308,-0.5213,-0.627,-0.3699,-0.2896,-0.3643,-0.5089,-0.7294,-0.9867,-1.1498,-1.2134,-1.2129,-1.2935,0.0,0.0,0.0,0.0,0.0,0.0,0.0,0.0,0.0,-2.0468,-2.2088,-2.3634,-2.5335,-2.6887,-2.8217,-2.9126,-2.9785,-3.0055,-2.9796,-2.9381,-2.8933,-2.8486,-2.7796,-2.6924,-2.5702,-2.5022,0.0,0.0,-2.4828,-2.6699,-2.7383,-2.8814,-3.1774,-3.3726,-3.5836,0.0,0.0,0.0,0.0,0.0,0.0,-4.389,0.0,-4.5648,-4.7832,-4.851,-4.9565,-5.1222,-5.18,-5.1457,-4.9961,-4.7904,-4.4998,-4.1172,-4.1172,-4.0723,-3.9883,-3.9394,-3.945,-3.9857,-3.9995,-4.0852,-4.1971,-4.1546,-4.1329,-4.1229,-4.0124,-3.9697,-3.9697,-3.9697,-3.9697,-3.9697,0.0,0.0,0.0,0.0,0.0,0.0,0.0,0.0,0.0,0.0,0.0,0.0,0.0,0.0,0.0,0.0,0.0,0.0,0.0,0.0,0.0,0.0,0.0,0.0,0.0,0.0,0.0,0.0,0.0,-0.6557,-0.6881,-0.5674,-0.6093,-0.7859,-0.7768,-0.8427,-0.958,-1.002,-1.1556,-1.3523,0.0,-1.2806,-1.3886,0.0,0.0,0.0,0.0,0.0,0.0,0.0,0.0,0.0,0.0,-2.309,-2.4383,-2.5549,-2.6919,-2.8066,-2.8287,-2.9415,-3.037,-2.9808,-2.9048,-2.8288,-2.7995,-2.6316,-2.4543,-2.351,-2.2355,-2.1671,0.0,0.0,0.0,-2.6112,-2.7441,0.0,-3.1781,-3.551,0.0,-3.8834,0.0,-4.4317,-4.4016,-4.4869,0.0,0.0,-4.5799,-4.6652,-4.846,-4.9088,-4.9967,-5.1247,-5.1423,-5.1086,-4.9961,-4.6588,-4.3663,-4.1172,-4.1172,-4.0723,-3.9863,-3.9082,-3.8989,-3.9374,-3.9621,-4.0327,-4.1566,-4.1373,-4.1329,-4.1229,-4.0124,-3.9697,-3.9697,-3.9697,-3.9697,-3.9697,0.0,0.0,0.0,0.0,0.0,0.0,0.0,0.0,0.0,0.0,0.0,0.0,0.0,0.0,0.0,0.0,0.0,0.0,0.0,0.0,0.0,0.0,0.0,0.0,0.0,0.0,0.0,0.0,0.0,0.0,0.0,-0.7862,-0.8668,-1.0763,-1.1129,-1.1798,-1.2871,0.0,0.0,0.0,0.0,0.0,0.0,0.0,0.0,0.0,0.0,0.0,0.0,0.0,0.0,-2.3004,-2.4058,-2.5202,-2.6143,-2.6838,0.0,-2.9509,-2.8899,-2.9455,-3.0078,-2.905,-2.79,-2.6766,-2.5986,-2.435,-2.2682,-2.1286,-2.0231,0.0,0.0,0.0,0.0,0.0,0.0,0.0,-3.1758,-3.6054,-3.934,0.0,-4.3938,0.0,-4.6075,-4.6627,-4.7129,0.0,-4.7154,-4.7631,-4.9063,-4.9665,-5.0469,-5.1599,-5.1012,-4.9671,-4.7467,-4.4398,-4.235,-4.1172,-4.1172,-4.0723,-3.9883,-3.918,-3.8601,-3.8167,0.0,-3.8993,-3.9333,-4.0026,-4.0281,-4.0183,-3.9785,-3.9697,-3.9697,-3.9697,-3.9697,-3.9697,0.0,0.0,0.0,0.0,0.0,0.0,0.0,0.0,0.0,0.0,0.0,0.0,0.0,0.0,0.0,0.0,0.0,0.0,0.0,0.0,0.0,0.0,0.0,0.0,0.0,0.0,0.0,0.0,0.0,0.0,0.0,0.0,0.0,0.0,0.0,0.0,0.0,0.0,0.0,0.0,0.0,0.0,0.0,0.0,0.0,0.0,0.0,0.0,0.0,0.0,-2.3782,-2.4559,-2.5873,-2.6834,-2.7564,-2.7932,-2.9137,-3.0075,-2.9321,-2.9154,-2.8953,-2.7813,-2.6371,-2.4877,-2.3541,-2.2445,-2.1146,-1.9298,0.0,-1.8515,-1.927,-1.9906,-2.1207,-2.4094,0.0,-2.834,-3.1914,-3.6239,-3.9791,-4.2391,-4.5446,-4.7631,-4.8083,-4.8134,-4.8335,-4.8837,-4.841,-4.8586,-4.964,-5.0218,-5.0863,-5.1644,-5.0287,-4.7759,-4.4096,-4.2196,-4.1172,-4.1172,-4.1113,-4.0664,-3.9883,-3.9297,-3.8144,-3.6681,-3.734,0.0,-3.6495,-3.8206,-3.884,-3.8919,-3.9526,-3.9697,-3.9697,-3.9697,-3.9697,-3.9697,0.0,0.0,0.0,0.0,0.0,0.0,0.0,0.0,0.0,0.0,-1.2583,-1.1386,0.0,0.0,0.0,0.0,0.0,0.0,0.0,0.0,0.0,0.0,0.0,0.0,0.0,0.0,0.0,0.0,0.0,0.0,0.0,0.0,0.0,0.0,0.0,0.0,0.0,0.0,0.0,0.0,0.0,0.0,0.0,0.0,0.0,0.0,0.0,0.0,0.0,0.0,-2.45,-2.5297,-2.7194,-2.7915,-2.8323,-2.9451,-2.8457,-2.7201,-2.7839,-2.7246,-2.6388,-2.5863,-2.4515,-2.2905,-2.1649,-1.9258,0.0,0.0,0.0,-1.6511,-1.7514,-1.9046,0.0,-2.4908,0.0,0.0,0.0,0.0,-4.1226,0.0,0.0,0.0,0.0,0.0,0.0,0.0,0.0,-4.959,-5.0243,-5.082,-5.0702,-4.971,-4.8229,-4.6441,-4.4096,-4.2196,-4.1172,-4.1172,-4.0801,-4.0371,-3.9863,-3.8672,-3.7402,-3.621,-3.6869,0.0,-3.5565,-3.7907,-3.8761,-3.8527,-3.9377,-3.9697,-3.9697,-3.9697,-3.9697,-3.9697,0.0,0.0,0.0,0.0,0.0,0.0,0.0,-1.4737,-1.5267,-1.539,-1.5375,-1.4764,-1.3268,-1.3265,-1.3129,0.0,0.0,0.0,0.0,0.0,0.0,0.0,0.0,0.0,0.0,0.0,0.0,0.0,0.0,0.0,0.0,0.0,0.0,0.0,0.0,0.0,0.0,0.0,0.0,0.0,0.0,0.0,0.0,0.0,0.0,0.0,0.0,0.0,0.0,0.0,-2.4027,-2.5309,-2.7633,-2.845,-2.8602,-2.8699,-2.7717,-2.674,-2.7213,-2.608,-2.4624,-2.4452,-2.2692,-2.0715,-1.9448,0.0,0.0,0.0,-1.5077,-1.5965,-1.691,0.0,0.0,0.0,0.0,0.0,0.0,0.0,0.0,0.0,0.0,0.0,0.0,0.0,0.0,0.0,0.0,-5.0594,-5.0845,-5.0654,-4.9763,-4.8113,-4.633,-4.4548,-4.2637,-4.1618,-4.1172,-4.1172,-4.0723,-4.0293,-3.9844,-3.8535,-3.7226,-3.5976,-3.585,0.0,-3.4493,-3.6689,-3.763,-3.7553,-3.9136,-3.9697,-3.9697,-3.9697,-3.9697,-3.9697,0.0,0.0,0.0,0.0,0.0,0.0,0.0,-1.4806,-1.5721,-1.6758,-1.8151,-1.8409,-1.6656,-1.6432,-1.5933,0.0,0.0,0.0,0.0,0.0,0.0,0.0,0.0,0.0,0.0,0.0,0.0,0.0,0.0,0.0,0.0,0.0,0.0,0.0,0.0,0.0,0.0,0.0,0.0,0.0,0.0,0.0,0.0,0.0,0.0,0.0,0.0,0.0,0.0,0.0,-2.3429,-2.4707,-2.6797,-2.7843,-2.811,-2.6922,-2.6349,-2.6111,-2.5979,-2.4603,-2.3164,-2.3106,-2.118,-1.9052,-1.7862,-1.658,0.0,0.0,-1.49,-1.6184,-1.6858,0.0,0.0,0.0,0.0,0.0,0.0,0.0,0.0,0.0,0.0,0.0,0.0,0.0,0.0,0.0,0.0,0.0,-5.1035,-5.0398,-4.8938,-4.6441,-4.4827,-4.3228,-4.1172,-4.1172,-4.0997,-4.0509,-3.999,-3.9261,-3.8576,-3.762,-3.6483,-3.5412,-3.5043,0.0,0.0,-3.5682,-3.6518,-3.659,-3.8819,-3.9697,-3.9697,-3.9697,-3.9697,-3.9697,0.0,0.0,0.0,0.0,0.0,0.0,0.0,-1.4631,-1.5844,-1.8152,-1.9614,-2.0265,-2.0,-1.8694,-1.7324,0.0,0.0,0.0,0.0,0.0,0.0,0.0,0.0,0.0,0.0,0.0,0.0,0.0,0.0,0.0,0.0,0.0,0.0,0.0,0.0,0.0,0.0,0.0,0.0,0.0,0.0,0.0,0.0,0.0,0.0,0.0,0.0,0.0,0.0,0.0,0.0,-2.3019,-2.3715,-2.516,-2.6201,-2.4275,0.0,0.0,-2.2605,-2.2076,-2.17,-2.1429,-2.0348,-1.9052,-1.7862,0.0,0.0,-1.4188,-1.5523,-1.6921,-1.7235,-1.9789,0.0,0.0,0.0,0.0,0.0,0.0,0.0,0.0,0.0,0.0,0.0,0.0,0.0,0.0,0.0,0.0,-5.0242,-5.0055,-4.8194,-4.4527,-4.4247,-4.3228,-4.1172,-4.1172,-4.0197,-3.8213,-3.7449,-3.6124,-3.4172,-3.4865,-3.4432,-3.3291,-3.4681,0.0,0.0,-3.5423,-3.6116,-3.5753,-3.8631,-3.9697,-3.9697,-3.9697,-3.9697,-3.9697,0.0,0.0,0.0,0.0,0.0,0.0,-1.3406,-1.4212,-1.5446,-1.8127,-1.9734,-2.0846,-2.1418,-2.032,-1.8923,-1.7287,0.0,0.0,0.0,0.0,0.0,0.0,0.0,0.0,0.0,0.0,0.0,0.0,0.0,0.0,0.0,0.0,0.0,0.0,0.0,0.0,0.0,0.0,0.0,0.0,0.0,0.0,0.0,0.0,0.0,0.0,0.0,0.0,0.0,0.0,0.0,0.0,-2.1845,-2.2791,0.0,0.0,-2.2235,-2.2021,-2.2009,-2.1845,-2.1483,-2.1189,-2.0094,-1.8878,-1.805,0.0,0.0,-1.559,-1.6459,-1.7527,-1.8776,-2.0615,-2.2129,0.0,0.0,0.0,0.0,0.0,0.0,0.0,0.0,0.0,0.0,0.0,0.0,0.0,0.0,0.0,-4.6566,-4.7613,-4.6882,-4.4247,-4.2922,-4.2062,-4.1172,-4.1172,-4.0063,-3.7692,-3.7149,-3.5502,-3.337,-3.4066,-3.3911,-3.3134,-3.4432,0.0,0.0,-3.5488,-3.6228,-3.5914,-3.8599,-3.9697,-3.9697,-3.9697,-3.9697,-3.9697,0.0,0.0,0.0,0.0,0.0,-1.1582,-1.3316,-1.4262,-1.572,-1.8265,-1.9526,-2.0711,-2.2017,-2.1302,-2.0236,-1.9212,-1.8068,0.0,0.0,0.0,0.0,0.0,0.0,0.0,0.0,0.0,0.0,-2.3528,0.0,0.0,0.0,0.0,0.0,0.0,0.0,0.0,0.0,0.0,0.0,0.0,0.0,0.0,0.0,0.0,0.0,0.0,0.0,0.0,0.0,0.0,0.0,0.0,0.0,0.0,0.0,0.0,-2.1025,-2.127,-2.1112,-2.1213,-2.1269,-2.1136,-1.9947,-1.8664,0.0,0.0,0.0,-1.661,-1.7488,-1.8559,-1.9937,-2.1267,-2.2168,0.0,0.0,0.0,0.0,0.0,0.0,0.0,0.0,0.0,0.0,0.0,0.0,0.0,0.0,0.0,0.0,-4.5425,-4.5276,-4.3359,-4.1907,-4.1172,-4.1172,-4.0529,-3.8993,-3.6517,-3.5487,-3.3692,-3.1293,-3.2757,-3.2998,-3.2123,-3.3974,0.0,0.0,-3.5358,-3.6139,-3.5981,-3.8624,-3.9697,-3.9697,-3.9697,-3.9697,-3.9697,0.0,0.0,0.0,0.0,0.0,0.0,-1.4031,-1.5314,-1.6875,-1.9049,-1.9297,-2.0052,-2.2029,-2.1385,-2.1167,-2.2093,-1.9469,0.0,0.0,0.0,0.0,0.0,0.0,0.0,0.0,0.0,-2.4256,-2.5259,-2.7977,-2.8907,0.0,0.0,0.0,0.0,0.0,0.0,0.0,0.0,0.0,0.0,0.0,0.0,0.0,0.0,0.0,0.0,0.0,0.0,0.0,0.0,0.0,0.0,0.0,0.0,0.0,0.0,-1.9491,-2.0654,-1.9334,-1.9786,-2.0748,-2.1042,-1.9786,-1.841,0.0,0.0,0.0,-1.6831,-1.8562,-2.0196,-2.0196,-2.1494,-2.25,-2.2519,0.0,0.0,0.0,0.0,0.0,0.0,0.0,0.0,0.0,0.0,0.0,0.0,0.0,0.0,0.0,-4.4096,-4.3207,-4.1327,-4.1172,-4.1172,-4.1172,-3.904,-3.6729,-3.4266,-3.1678,-2.9312,-2.6961,-3.0314,-3.1203,0.0,0.0,0.0,0.0,-3.4863,-3.5625,-3.5617,-3.8582,-3.9697,-3.9697,-3.9697,-3.9697,-3.9697,0.0,0.0,0.0,0.0,0.0,0.0,0.0,-1.4362,-1.5679,-1.8065,-1.8952,-2.0338,-2.2908,-2.2512,-2.2697,-2.4097,-2.1527,0.0,0.0,0.0,0.0,0.0,0.0,0.0,0.0,0.0,-2.7485,-2.8772,-3.0482,-3.1227,-3.0992,-3.1421,-3.0992,0.0,0.0,0.0,0.0,0.0,0.0,0.0,0.0,0.0,0.0,0.0,0.0,0.0,0.0,0.0,0.0,0.0,0.0,0.0,0.0,0.0,0.0,0.0,0.0,0.0,-1.9418,-1.9375,-1.9452,-1.9345,-1.8584,-1.7995,-1.8504,0.0,0.0,-1.9546,-2.0059,-2.0631,-2.1911,-2.2341,-2.2544,-2.2557,-2.4297,0.0,0.0,0.0,0.0,0.0,0.0,0.0,0.0,0.0,0.0,0.0,0.0,0.0,0.0,-4.2042,-4.1907,-4.1172,-4.1172,-4.0375,-3.8632,-3.7988,-3.5573,-3.1337,-3.0612,-2.8993,-2.6665,-2.9957,-3.068,0.0,0.0,0.0,0.0,-3.5168,-3.6268,-3.7026,-3.8921,-3.9697,-3.9697,-3.9697,-3.9697,-3.9697,0.0,0.0,0.0,0.0,0.0,0.0,0.0,-1.4423,-1.5543,-1.7298,-1.843,-2.02,-2.3176,-2.3163,-2.3839,-2.5946,-2.4254,0.0,0.0,0.0,0.0,0.0,0.0,0.0,0.0,-2.8207,-2.9762,-3.1124,-3.2757,-3.3397,-3.3148,-3.3406,-3.2751,-3.1348,-3.0797,0.0,0.0,0.0,0.0,0.0,0.0,0.0,-2.1145,0.0,0.0,0.0,0.0,0.0,0.0,0.0,0.0,0.0,0.0,0.0,0.0,0.0,-2.0307,0.0,0.0,-1.9241,-1.9223,-1.925,-1.8679,0.0,0.0,0.0,0.0,-2.098,-2.1273,-2.1521,-2.2309,-2.2195,-2.2017,-2.1778,-2.3269,0.0,0.0,0.0,0.0,0.0,0.0,0.0,0.0,0.0,0.0,0.0,0.0,0.0,0.0,-4.1172,-4.0841,-4.0021,-4.053,-3.9504,-3.6359,-3.6044,-3.4082,-3.0085,-2.9193,-2.7889,-2.6356,-2.9477,-3.0189,0.0,0.0,0.0,0.0,-3.4928,-3.6109,-3.6918,-3.8921,-3.9697,-3.9697,-3.9697,-3.9572,-3.9421,0.0,0.0,0.0,0.0,0.0,0.0,0.0,-1.5264,-1.6253,-1.6723,-1.7861,-1.9749,-2.2752,-2.3346,-2.4698,-2.7446,0.0,0.0,0.0,0.0,0.0,0.0,0.0,0.0,0.0,-2.988,-3.1216,-3.2469,-3.4486,-3.5211,-3.4562,-3.525,-3.4781,-3.3298,-3.1937,0.0,0.0,0.0,0.0,0.0,0.0,0.0,0.0,0.0,0.0,0.0,0.0,0.0,0.0,0.0,0.0,0.0,0.0,0.0,0.0,0.0,0.0,0.0,0.0,0.0,0.0,0.0,0.0,0.0,0.0,0.0,0.0,0.0,0.0,-2.2599,-2.1553,-2.1266,-2.0989,-2.0523,-2.1424,0.0,0.0,0.0,0.0,0.0,0.0,0.0,0.0,0.0,0.0,0.0,0.0,0.0,0.0,-4.1016,-4.0002,-3.7701,-3.9236,-3.8062,-3.3914,-3.3569,-3.211,-2.974,-2.7416,-2.6199,-2.6047,-2.8758,-2.9584,0.0,0.0,0.0,0.0,-3.4129,-3.5266,-3.5681,-3.8453,-3.9544,-3.9647,-3.9672,-3.932,-3.8894,0.0,0.0,0.0,0.0,0.0,0.0,0.0,0.0,0.0,0.0,-1.8559,-2.0081,-2.2503,-2.3806,-2.5189,0.0,0.0,0.0,0.0,0.0,0.0,0.0,0.0,0.0,0.0,-3.221,-3.3148,-3.3975,-3.4504,-3.4988,-3.5337,-3.5498,-3.5086,-3.4141,-3.3357,-3.1231,0.0,0.0,0.0,0.0,0.0,0.0,0.0,0.0,0.0,0.0,-2.5254,-2.5859,0.0,0.0,0.0,0.0,0.0,0.0,0.0,0.0,-2.2888,-2.1863,-2.0993,0.0,-1.9589,-1.967,-1.9509,0.0,0.0,0.0,0.0,0.0,0.0,0.0,0.0,-2.1026,-2.0311,-2.056,-2.1897,0.0,0.0,0.0,0.0,0.0,0.0,0.0,0.0,0.0,0.0,0.0,0.0,0.0,0.0,-3.9531,-3.7593,-3.5214,-3.5155,-3.4009,-3.1327,-3.0989,-2.974,-2.7258,-2.65,-2.5905,-2.5738,-2.8418,-2.9094,0.0,0.0,0.0,-3.2292,-3.3198,-3.4736,-3.6567,-3.7652,-3.8442,-3.912,-3.9546,-3.9069,-3.8291,0.0,0.0,0.0,0.0,0.0,0.0,0.0,0.0,0.0,0.0,0.0,0.0,0.0,0.0,0.0,0.0,0.0,0.0,0.0,0.0,0.0,0.0,0.0,0.0,-3.278,-3.3863,-3.4588,-3.4988,-3.5678,-3.6011,-3.6043,-3.6043,-3.5537,-3.4425,-3.3035,-3.101,0.0,0.0,0.0,0.0,-2.4236,0.0,0.0,0.0,0.0,0.0,-2.564,-2.5844,0.0,-2.5217,-2.5016,-2.4945,0.0,0.0,0.0,0.0,-2.331,-2.2725,-2.2214,-2.1356,-2.068,-2.068,-2.068,-2.0954,0.0,0.0,0.0,0.0,0.0,0.0,0.0,0.0,0.0,0.0,0.0,0.0,0.0,0.0,0.0,0.0,0.0,0.0,0.0,0.0,0.0,0.0,0.0,0.0,0.0,-3.8383,-3.6236,-3.2841,-3.219,-3.0989,-2.8787,-2.9409,-2.8631,-2.6186,-2.5892,-2.5976,-2.6383,-2.824,-2.8925,0.0,0.0,0.0,-3.1401,-3.2204,-3.3377,-3.4978,-3.6555,-3.7477,-3.803,-3.8991,-3.8592,-3.7739,0.0,0.0,0.0,0.0,0.0,0.0,0.0,0.0,0.0,0.0,0.0,0.0,0.0,0.0,0.0,0.0,0.0,0.0,0.0,0.0,0.0,0.0,0.0,-3.2588,-3.3888,-3.5015,-3.5652,-3.5756,-3.6852,-3.71,-3.66,-3.6382,-3.5641,-3.4262,-3.2265,-3.0586,0.0,0.0,0.0,0.0,-2.4915,0.0,0.0,0.0,0.0,0.0,0.0,0.0,0.0,-2.5071,-2.5016,-2.4945,-2.4631,0.0,0.0,0.0,0.0,0.0,-2.3242,-2.2617,-2.1987,-2.1952,-2.1787,-2.1915,0.0,0.0,0.0,0.0,0.0,0.0,0.0,0.0,0.0,0.0,0.0,0.0,0.0,0.0,0.0,0.0,0.0,0.0,0.0,0.0,0.0,0.0,0.0,0.0,0.0,-3.692,-3.4643,-3.0926,-3.0067,-2.8647,-2.6694,-2.8133,-2.7876,-2.5959,-2.5571,-2.5935,-2.7152,-2.7947,-2.8804,-2.9834,0.0,0.0,-3.0192,-3.1113,-3.1814,-3.2611,-3.5146,-3.6308,-3.6677,-3.7853,-3.7767,-3.7211,0.0,0.0,0.0,0.0,0.0,0.0,0.0,0.0,0.0,0.0,0.0,0.0,0.0,0.0,0.0,0.0,0.0,0.0,0.0,0.0,0.0,0.0,-3.4153,-3.4789,-3.6265,-3.5837,-3.592,-3.6525,-3.5737,-3.5718,-3.6496,-3.5565,-3.4626,-3.3634,-3.2557,-3.1622,-3.0768,-2.9013,-2.8557,-2.9089,-2.8177,0.0,0.0,0.0,0.0,0.0,0.0,0.0,0.0,-2.5314,-2.5016,-2.5088,-2.5441,0.0,0.0,0.0,0.0,0.0,-2.3764,-2.3025,-2.2071,-2.1572,-2.0807,-2.0222,0.0,0.0,0.0,0.0,0.0,0.0,0.0,0.0,0.0,0.0,0.0,0.0,0.0,0.0,0.0,0.0,0.0,0.0,0.0,0.0,0.0,0.0,0.0,0.0,0.0,-3.352,-3.1158,-3.025,-2.8269,-2.6892,-2.6092,-2.6351,-2.6297,-2.5945,-2.5144,-2.5312,-2.6343,-2.7099,-2.8027,-2.9148,0.0,-3.0059,-2.9668,-2.9925,-3.0681,-3.1948,-3.2767,-3.428,-3.5868,-3.5455,-3.5842,-3.6659,0.0,0.0,0.0,0.0,0.0,0.0,0.0,0.0,0.0,0.0,0.0,0.0,0.0,0.0,0.0,0.0,0.0,0.0,0.0,0.0,0.0,-3.5056,-3.5065,-3.5259,-3.5613,-3.6368,-3.6724,-3.6554,-3.6243,-3.6073,-3.6172,-3.4542,-3.3747,-3.3455,-3.2344,-3.1594,-3.1161,-3.0311,-3.0183,-3.0488,0.0,0.0,0.0,0.0,0.0,0.0,0.0,0.0,0.0,0.0,-2.7071,-2.6533,-2.7132,0.0,0.0,0.0,0.0,0.0,-2.3549,-2.1968,-2.0263,-2.0405,-2.0623,-2.0753,0.0,0.0,0.0,0.0,0.0,0.0,0.0,0.0,0.0,0.0,0.0,0.0,0.0,0.0,0.0,0.0,0.0,0.0,0.0,0.0,0.0,0.0,0.0,0.0,0.0,0.0,-2.9615,-2.8386,-2.7132,-2.6466,-2.6199,-2.5718,-2.5398,-2.5237,-2.552,-2.6222,-2.716,-2.7994,-2.896,-3.003,0.0,-2.9824,-2.9219,-2.9219,-2.9639,-3.0295,-3.135,-3.2362,-3.3302,-3.4211,-3.5637,-3.7337,0.0,0.0,0.0,0.0,0.0,0.0,0.0,0.0,0.0,0.0,0.0,0.0,0.0,0.0,0.0,0.0,0.0,0.0,0.0,0.0,-3.5446,-3.5248,-3.5399,-3.5346,-3.5112,-3.6625,-3.7195,-3.6755,-3.6843,-3.6611,-3.5842,-3.4582,-3.3885,-3.3694,-3.2677,-3.2108,-3.1936,-3.1748,-3.1718,-3.1763,0.0,0.0,0.0,0.0,0.0,0.0,0.0,0.0,0.0,0.0,0.0,0.0,0.0,0.0,0.0,-2.6191,-2.4792,-2.3505,-2.3624,-2.1438,-1.9289,-1.9853,0.0,0.0,0.0,0.0,0.0,0.0,0.0,0.0,0.0,0.0,0.0,0.0,0.0,0.0,0.0,0.0,0.0,0.0,0.0,0.0,0.0,0.0,0.0,0.0,0.0,0.0,0.0,0.0,-2.8431,-2.672,-2.644,-2.6253,-2.6186,-2.5384,-2.4863,-2.4623,-2.5798,-2.6847,-2.7769,-2.8776,-2.9786,-3.0703,-3.0254,-2.9609,-2.8906,-2.8809,-2.8828,-2.9015,-3.0166,-3.0808,-3.1275,-3.3561,-3.5599,-3.7245,0.0,0.0,0.0,0.0,0.0,0.0,0.0,0.0,0.0,0.0,0.0,0.0,0.0,0.0,0.0,0.0,0.0,0.0,0.0,0.0,-3.519,-3.4628,-3.5156,-3.5841,-3.655,-3.6585,-3.6878,-3.7497,-3.7039,-3.6489,-3.5942,-3.6674,-3.6111,-3.4412,-3.4292,-3.4292,-3.4196,-3.3333,-3.3492,-3.4133,-3.26,0.0,0.0,0.0,0.0,0.0,0.0,0.0,0.0,0.0,0.0,0.0,0.0,0.0,-2.6615,-2.7047,-2.5397,-2.3727,-2.4658,-2.2828,-2.0819,-2.0962,0.0,0.0,0.0,0.0,0.0,0.0,0.0,0.0,0.0,0.0,0.0,0.0,0.0,0.0,0.0,0.0,0.0,0.0,0.0,0.0,0.0,0.0,0.0,0.0,0.0,0.0,0.0,0.0,0.0,-2.6413,-2.6146,-2.5852,-2.5585,-2.497,-2.4663,-2.4623,-2.514,-2.5927,-2.7029,-2.8377,-2.9361,-3.0234,-2.9805,-2.9355,-2.8887,-2.8496,-2.8574,-2.8926,-2.9015,-2.9863,-3.1275,-3.3561,-3.4531,-3.4942,0.0,0.0,0.0,0.0,0.0,0.0,0.0,0.0,0.0,0.0,0.0,0.0,0.0,0.0,0.0,0.0,0.0,0.0,0.0,0.0,-3.5553,-3.583,-3.5611,-3.586,-3.6648,-3.6971,-3.7241,-3.7455,-3.7418,-3.6876,-3.587,-3.5822,-3.5133,-3.3935,-3.4395,-3.4334,-3.3873,-3.439,-3.4841,-3.504,-3.4036,-3.3384,0.0,0.0,0.0,0.0,0.0,0.0,0.0,0.0,-2.9194,-2.8413,0.0,-2.8093,-2.7266,-2.7328,-2.5469,-2.366,-2.4355,-2.2897,-2.1177,-2.1354,0.0,0.0,0.0,0.0,0.0,0.0,0.0,0.0,0.0,0.0,0.0,0.0,0.0,0.0,0.0,0.0,0.0,0.0,0.0,0.0,0.0,0.0,0.0,0.0,0.0,0.0,0.0,0.0,0.0,-2.5838,-2.5558,-2.5264,-2.497,-2.518,-2.5128,-2.4744,-2.5993,-2.7068,-2.8236,-2.9186,-2.9757,-2.9805,-2.9648,-2.918,-2.8535,-2.8633,-2.8633,-2.8535,-2.8535,-2.9514,-3.1275,-3.2634,-3.4047,-3.5685,0.0,0.0,0.0,0.0,0.0,0.0,0.0,0.0,0.0,0.0,0.0,0.0,0.0,0.0,0.0,0.0,0.0,0.0,0.0,-3.4997,-3.5873,-3.662,-3.5921,-3.5856,-3.66,-3.6998,-3.7248,-3.7404,-3.7768,-3.7448,-3.637,-3.5977,-3.5323,-3.4485,-3.5326,-3.5208,-3.4546,-3.5491,-3.5737,-3.5459,-3.4741,-3.4203,0.0,0.0,0.0,0.0,0.0,0.0,0.0,0.0,-3.016,-2.9285,0.0,0.0,0.0,0.0,-2.5588,-2.3862,-2.4355,-2.3125,-2.1762,0.0,0.0,0.0,0.0,0.0,0.0,0.0,0.0,0.0,0.0,0.0,0.0,0.0,0.0,0.0,0.0,0.0,0.0,0.0,0.0,0.0,0.0,0.0,0.0,0.0,0.0,0.0,0.0,0.0,0.0,0.0,-2.5432,-2.5373,-2.5056,-2.5928,-2.6167,-2.6134,-2.7156,-2.7916,-2.8625,-2.9623,-2.9766,-2.9355,-2.9355,-2.8965,-2.832,-2.8594,-2.8555,-2.8301,-2.8301,-2.9591,-3.1564,-3.2059,-3.387,-3.6281,0.0,0.0,0.0,0.0,0.0,0.0,0.0,0.0,0.0,0.0,0.0,0.0,0.0,0.0,0.0,0.0,0.0,0.0,-3.3475,-3.4802,-3.5919,-3.6678,-3.5962,-3.5888,-3.66,-3.6546,-3.6776,-3.7404,-3.8063,-3.8033,-3.7375,-3.7514,-3.725,-3.66,-3.744,-3.7322,-3.66,-3.66,-3.6165,-3.5459,-3.4741,-3.4472,-3.4322,0.0,0.0,0.0,0.0,0.0,0.0,0.0,-3.0514,-2.9371,0.0,0.0,0.0,0.0,-2.585,-2.4301,-2.487,-2.378,-2.2617,0.0,0.0,0.0,0.0,0.0,0.0,0.0,0.0,0.0,0.0,0.0,0.0,0.0,0.0,0.0,0.0,0.0,0.0,0.0,0.0,0.0,0.0,0.0,0.0,0.0,0.0,0.0,0.0,0.0,0.0,0.0,-2.604,-2.652,-2.6195,-2.6956,-2.7748,-2.862,-2.8349,-2.8074,-2.7831,-2.905,-2.9336,-2.8926,-2.8906,-2.8672,-2.8301,-2.8281,-2.8301,-2.8301,-2.8281,-2.9911,-3.223,-3.2331,-3.4044,-3.6533,0.0,0.0,0.0,0.0,0.0,0.0,0.0,0.0,0.0,0.0,0.0,0.0,0.0,0.0,0.0,0.0,0.0,0.0,0.0,-3.511,-3.6157,-3.7416,-3.6734,-3.6685,-3.744,-3.6804,-3.6776,-3.7404,-3.7614,-3.7375,-3.6776,-3.7255,-3.6632,-3.5213,-3.6909,-3.6693,-3.5152,-3.5676,-3.5737,-3.5459,-3.4741,-3.4472,-3.4442,0.0,0.0,0.0,0.0,0.0,0.0,0.0,0.0,0.0,0.0,0.0,0.0,-2.7957,-2.6137,-2.4377,-2.487,-2.4011,0.0,0.0,0.0,0.0,0.0,0.0,0.0,0.0,0.0,0.0,0.0,0.0,0.0,0.0,0.0,0.0,0.0,0.0,0.0,0.0,0.0,0.0,0.0,0.0,0.0,0.0,0.0,0.0,0.0,0.0,0.0,0.0,-2.5418,-2.5604,-2.6166,-2.7385,-2.7815,-2.7526,-2.8294,-2.8766,-2.905,-2.8052,-2.7456,-2.7327,-2.5892,-2.5824,-2.6825,-2.7833,-2.8301,-2.8388,-2.9303,-3.0203,-3.1154,-3.3522,-3.5123,-3.6354,0.0,0.0,0.0,0.0,0.0,0.0,0.0,0.0,0.0,0.0,0.0,0.0,0.0,0.0,0.0,0.0,0.0,0.0,0.0,0.0,-3.596,-3.7752,-3.711,-3.691,-3.7322,-3.6529,-3.6148,-3.6237,-3.6507,-3.6596,-3.6477,-3.6869,-3.6459,-3.5429,-3.7281,-3.6878,-3.4972,-3.5428,-3.5401,-3.507,-3.4651,-3.4651,-3.4831,0.0,0.0,0.0,0.0,0.0,0.0,0.0,0.0,0.0,0.0,0.0,0.0,-2.7279,-2.5554,-2.4002,-2.45,0.0,0.0,0.0,0.0,0.0,0.0,0.0,0.0,0.0,0.0,0.0,0.0,0.0,0.0,0.0,0.0,0.0,0.0,0.0,0.0,0.0,0.0,0.0,0.0,0.0,0.0,0.0,0.0,0.0,0.0,0.0,0.0,-2.5366,-2.6028,-2.6657,-2.7051,-2.8228,-2.8459,-2.7809,-2.8584,-2.8965,-2.9062,-2.7895,-2.7325,-2.7306,-2.6044,-2.6155,-2.706,-2.796,-2.8301,-2.8388,-2.9807,-3.0618,-3.1359,-3.4,-3.5425,-3.6431,0.0,0.0,0.0,0.0,0.0,0.0,0.0,0.0,0.0,0.0,0.0,0.0,0.0,0.0,0.0,0.0,0.0,0.0,0.0,0.0,-3.5428,-3.7725,-3.7236,-3.6831,-3.6691,-3.6006,-3.5224,-3.4472,-3.51,-3.5729,-3.6297,-3.6471,-3.6569,-3.66,-3.796,-3.7427,-3.5457,-3.5272,-3.4881,-3.4382,-3.4262,-3.4651,-3.519,-3.3963,0.0,0.0,0.0,0.0,0.0,0.0,0.0,0.0,-2.8475,0.0,-2.6634,-2.5829,-2.4522,-2.336,0.0,0.0,0.0,0.0,0.0,0.0,0.0,0.0,0.0,0.0,0.0,0.0,0.0,0.0,0.0,0.0,0.0,0.0,0.0,0.0,0.0,0.0,0.0,0.0,0.0,0.0,0.0,0.0,0.0,0.0,0.0,0.0,0.0,-2.5166,-2.7402,-2.842,-2.8264,-2.9032,-2.9258,-2.8867,-2.8789,-2.8574,-2.8242,-2.8048,-2.7814,-2.7669,-2.7902,-2.799,-2.7951,-2.8164,-2.8203,-2.8436,-2.9849,-3.1192,-3.2431,-3.4017,-3.5453,-3.6584,0.0,0.0,0.0,0.0,0.0,0.0,0.0,0.0,0.0,0.0,0.0,0.0,0.0,0.0,0.0,0.0,0.0,0.0,0.0,0.0,-3.4235,-3.692,-3.7959,-3.8144,-3.7557,-3.6753,-3.5766,-3.4472,-3.4622,-3.4771,-3.4921,-3.6014,-3.623,-3.5748,-3.6607,-3.6152,-3.4665,-3.3035,-3.2915,-3.3604,-3.2587,-3.2886,-3.3903,-3.3604,-3.3185,0.0,0.0,0.0,0.0,0.0,0.0,0.0,-2.8732,-2.7028,-2.5554,-2.5708,-2.4476,-2.2934,0.0,0.0,0.0,0.0,0.0,0.0,0.0,0.0,0.0,0.0,0.0,0.0,0.0,0.0,0.0,0.0,0.0,0.0,0.0,0.0,0.0,0.0,0.0,0.0,0.0,0.0,0.0,0.0,0.0,0.0,0.0,0.0,0.0,-2.7452,-2.7441,-2.7893,-2.8761,-2.8591,-2.8516,0.0,-2.7754,-2.7559,-2.7812,-2.5684,-2.3878,-2.2624,-2.5021,-2.5839,-2.5669,-2.6749,-2.75,-2.8107,-3.0493,-3.1795,-3.2678,-3.5526,-3.6793,-3.7111,0.0,0.0,0.0,0.0,0.0,0.0,0.0,0.0,0.0,0.0,0.0,0.0,0.0,0.0,0.0,0.0,0.0,0.0,0.0,0.0,0.0,0.0,-3.7578,-3.8019,-3.7263,-3.6531,-3.5462,-3.3993,-3.3993,0.0,0.0,0.0,0.0,-3.5519,-3.5878,-3.51,-3.3455,-3.2437,-3.2228,-3.2527,-3.2138,-3.2587,-3.3425,-3.2796,-3.2347,-3.1988,-3.1659,0.0,0.0,0.0,0.0,0.0,0.0,0.0,-2.4684,-2.4346,-2.2938,-2.1432,0.0,0.0,0.0,0.0,0.0,0.0,0.0,0.0,0.0,0.0,0.0,0.0,0.0,0.0,0.0,0.0,0.0,0.0,0.0,0.0,0.0,0.0,0.0,0.0,0.0,0.0,0.0,0.0,0.0,0.0,0.0,-2.577,-2.6689,-2.7347,-2.775,-2.8047,-2.832,-2.8301,-2.8086,-2.7676,-2.7441,-2.7014,-2.6266,-2.5609,-2.4827,-2.3888,-2.5496,-2.6031,-2.5928,-2.6686,-2.7436,-2.8452,-3.0833,-3.2165,-3.3226,-3.5864,-3.6784,-3.686,0.0,0.0,0.0,0.0,0.0,0.0,0.0,0.0,0.0,0.0,0.0,0.0,0.0,0.0,0.0,0.0,0.0,0.0,0.0,0.0,0.0,0.0,-3.6805,-3.7313,-3.66,-3.5949,-3.5002,0.0,0.0,0.0,0.0,0.0,0.0,-3.5669,0.0,-3.4562,-3.2677,-3.2437,-3.2048,-3.1511,-3.1812,-3.2378,-3.2856,-3.1456,-3.0924,-3.0862,-3.0184,-2.9959,-2.9854,-2.8962,0.0,0.0,0.0,0.0,-2.3534,-2.2476,-2.1073,-1.9691,0.0,0.0,0.0,0.0,0.0,0.0,0.0,0.0,0.0,0.0,0.0,0.0,0.0,0.0,0.0,0.0,0.0,0.0,0.0,0.0,0.0,0.0,0.0,0.0,0.0,0.0,0.0,0.0,0.0,0.0,-2.5357,-2.6584,-2.7118,-2.6791,-2.8,-2.8262,-2.7559,-2.7832,-2.7637,-2.7012,-2.7305,-2.6569,-2.4984,-2.6174,-2.6618,-2.6372,-2.6695,-2.6758,-2.668,-2.6861,-2.7622,-2.8859,-3.0994,-3.2453,-3.372,-3.5561,-3.6282,-3.6433,0.0,0.0,0.0,0.0,0.0,0.0,0.0,0.0,0.0,0.0,0.0,0.0,0.0,0.0,0.0,0.0,0.0,0.0,0.0,0.0,0.0,0.0,-3.5848,-3.6806,-3.66,-3.5949,-3.5216,0.0,0.0,0.0,0.0,0.0,0.0,-3.6357,0.0,0.0,-3.3275,-3.2138,-3.1571,-3.1364,-3.0192,-3.022,-3.0768,-2.9194,-2.8736,-2.8712,-2.8023,-2.8096,-2.8419,-2.748,-2.6961,0.0,0.0,0.0,-2.1649,-2.0907,-1.9963,-1.8887,0.0,0.0,0.0,0.0,0.0,0.0,0.0,0.0,0.0,0.0,0.0,0.0,0.0,0.0,0.0,0.0,0.0,0.0,0.0,0.0,0.0,0.0,0.0,0.0,0.0,0.0,0.0,0.0,0.0,0.0,-2.6867,-2.764,-2.8095,-2.8037,-2.7552,-2.7207,-2.7109,-2.6797,-2.6758,-2.7012,-2.6699,-2.6229,-2.5585,-2.5411,-2.483,-2.4063,-2.529,-2.5684,-2.5428,-2.6525,-2.7452,-2.8549,-3.1065,-3.2605,-3.3672,-3.5139,-3.5956,-3.6358,0.0,0.0,0.0,0.0,0.0,0.0,0.0,0.0,0.0,0.0,0.0,0.0,0.0,0.0,0.0,0.0,0.0,0.0,0.0,0.0,0.0,-3.2444,-3.4478,-3.535,-3.4851,-3.4657,0.0,0.0,0.0,0.0,0.0,-3.4823,-3.602,0.0,0.0,0.0,0.0,-3.2038,-3.08,-2.994,-2.9011,-2.9242,-2.9879,-2.7952,-2.7583,-2.8071,-2.7165,-2.638,-2.5774,-2.574,-2.5162,-2.44,-2.3956,0.0,0.0,0.0,-1.9279,0.0,0.0,0.0,0.0,0.0,0.0,0.0,0.0,0.0,0.0,0.0,0.0,0.0,0.0,0.0,0.0,0.0,0.0,0.0,0.0,0.0,0.0,0.0,0.0,0.0,0.0,0.0,0.0,0.0,0.0,-2.6444,-2.7056,-2.7353,-2.7461,-2.7226,-2.709,-2.6777,-2.6309,-2.6602,-2.6719,-2.666,-2.5977,-2.5547,-2.5352,-2.4902,-2.4544,-2.4447,-2.4813,-2.4883,-2.48,-2.6321,-2.7579,-2.8751,-3.1157,-3.2774,-3.3833,-3.5027,-3.5705,-3.5956,0.0,0.0,0.0,0.0,0.0,0.0,0.0,0.0,0.0,0.0,0.0,0.0,0.0,0.0,0.0,0.0,0.0,0.0,0.0,0.0,0.0,-3.121,-3.2932,-3.3783,-3.3484,-3.3264,0.0,0.0,0.0,0.0,-3.3753,-3.3799,-3.5872,0.0,-3.752,0.0,0.0,0.0,0.0,0.0,0.0,0.0,0.0,0.0,0.0,-2.6969,-2.5989,-2.4571,-2.3252,-2.3772,-2.3226,-2.2324,-2.2324,-2.1932,0.0,0.0,0.0,0.0,0.0,0.0,0.0,0.0,0.0,0.0,0.0,0.0,0.0,0.0,0.0,0.0,0.0,0.0,0.0,0.0,0.0,0.0,0.0,0.0,0.0,0.0,0.0,0.0,0.0,0.0,0.0,0.0,0.0,-2.6039,-2.6929,-2.6914,-2.6719,-2.6406,-2.6465,-2.6211,-2.5566,-2.6094,-2.6191,-2.5879,-2.5215,-2.4902,-2.4883,-2.471,-2.4874,-2.5172,-2.4834,-2.4754,-2.5057,-2.6913,-2.8366,-2.9576,-3.1621,-3.3039,-3.4022,-3.4977,-3.5429,-3.5629,0.0,0.0,0.0,0.0,0.0,0.0,0.0,0.0,0.0,0.0,0.0,0.0,-2.4092,-2.5159,-2.5493,-2.4495,0.0,0.0,0.0,0.0,0.0,-3.0462,-3.124,0.0,-3.3455,0.0,0.0,0.0,0.0,0.0,-3.4538,-3.4436,-3.6346,-3.9809,-3.7786,-3.5609,-3.3303,0.0,0.0,0.0,0.0,0.0,0.0,0.0,0.0,0.0,0.0,-2.2647,-2.1374,-2.1529,-2.1213,-2.0715,-2.0857,-2.0544,-1.9713,0.0,0.0,0.0,0.0,0.0,0.0,0.0,0.0,0.0,0.0,0.0,0.0,0.0,0.0,0.0,0.0,0.0,0.0,0.0,0.0,0.0,0.0,0.0,0.0,0.0,0.0,0.0,0.0,0.0,0.0,0.0,0.0,-2.6929,-2.7012,-2.6641,-2.6406,-2.6387,-2.5605,-2.5156,-2.5098,-2.4746,-2.4531,-2.4512,-2.4473,-2.4453,-2.4434,-2.5043,-2.5388,-2.5409,-2.5367,-2.5685,-2.6351,-2.8654,-3.0209,-3.1199,-3.255,-3.3445,-3.3972,-3.455,-3.5102,-3.5629,0.0,0.0,0.0,0.0,0.0,0.0,0.0,0.0,0.0,0.0,0.0,0.0,0.0,-2.4608,-2.454,-2.4131,-2.4908,0.0,0.0,0.0,0.0,-3.0432,-3.1569,-3.2198,-3.2228,0.0,0.0,0.0,0.0,-2.847,-3.1128,-3.0619,-3.1602,-3.3953,-3.533,-3.535,-3.4124,-3.1629,0.0,0.0,0.0,0.0,0.0,0.0,0.0,0.0,0.0,0.0,0.0,0.0,-2.0594,-2.0146,-1.9938,-1.9865,-1.9541,-1.788,-1.7897,0.0,0.0,0.0,0.0,0.0,0.0,0.0,0.0,0.0,0.0,0.0,0.0,0.0,0.0,0.0,0.0,0.0,0.0,0.0,0.0,0.0,0.0,0.0,0.0,0.0,0.0,0.0,0.0,0.0,0.0,0.0,-2.5352,-2.5195,-2.5254,-2.5527,-2.4961,-2.4648,-2.4648,-2.4492,-2.4414,-2.4414,-2.4141,-2.4004,-2.4004,-2.4748,-2.5039,-2.5125,-2.654,-2.6903,-2.662,-2.8888,-3.0,-3.0491,-3.2339,-3.3194,-3.347,-3.4399,-3.4851,-3.5152,0.0,0.0,0.0,0.0,0.0,0.0,0.0,0.0,0.0,-2.2381,0.0,0.0,0.0,0.0,-2.4092,-2.4719,-2.5595,-2.6823,-2.8525,-2.8607,-2.9175,-3.0432,-3.1599,-3.1988,-3.1482,0.0,0.0,0.0,0.0,0.0,0.0,-2.8079,-2.8825,-3.0687,-3.2064,-3.3037,0.0,0.0,0.0,-2.875,0.0,0.0,-2.7369,0.0,0.0,0.0,0.0,0.0,0.0,0.0,0.0,0.0,-1.8984,-1.9043,-1.9015,-1.7797,-1.8404,0.0,0.0,0.0,0.0,0.0,0.0,0.0,0.0,0.0,0.0,0.0,0.0,0.0,0.0,0.0,0.0,0.0,0.0,0.0,0.0,0.0,0.0,0.0,0.0,0.0,0.0,0.0,0.0,0.0,0.0,0.0,-2.4414,-2.4414,-2.4492,-2.4629,-2.4355,-2.4141,-2.3984,-2.3984,-2.3984,-2.3984,-2.3711,-2.3732,-2.4155,-2.5019,-2.5546,-2.6025,-2.7844,-2.8122,-2.7438,-2.9487,-3.0469,-3.0821,-3.2436,-3.3068,-3.3219,-3.4324,-3.4726,-3.4876,0.0,0.0,0.0,0.0,0.0,0.0,0.0,0.0,-2.1587,-2.1151,0.0,0.0,0.0,0.0,0.0,-2.6116,-2.706,-2.7861,-2.8614,-2.8667,-2.9235,-3.0462,0.0,0.0,0.0,0.0,0.0,0.0,0.0,0.0,0.0,0.0,-2.8373,-3.0382,-2.8247,-2.8824,-3.1317,0.0,-3.0959,-3.0306,0.0,-2.7092,-2.8072,0.0,0.0,0.0,-2.5708,-2.4028,0.0,-1.9553,0.0,0.0,0.0,0.0,-1.8008,-1.8008,0.0,0.0,0.0,0.0,0.0,0.0,0.0,0.0,0.0,0.0,0.0,0.0,0.0,0.0,0.0,0.0,0.0,0.0,0.0,0.0,0.0,0.0,0.0,0.0,0.0,0.0,0.0,0.0,0.0,0.0,0.0,-2.4375,-2.4375,-2.4394,-2.4199,-2.3789,-2.3789,-2.3574,-2.3144,-2.3144,-2.3144,-2.3144,-2.3144,-2.3714,-2.4787,-2.5964,-2.7035,-2.8084,-2.9209,-2.9401,-2.8974,-3.0728,-3.1712,-3.2265,-3.2842,-3.3068,-3.3219,-3.4324,-3.4726,-3.4876,0.0,0.0,0.0,0.0,0.0,0.0,-2.5319,-2.3893,-2.2793,0.0,0.0,0.0,-2.1993,-2.2916,-2.4763,-2.7927,-2.7963,-2.871,-3.0559,-3.0253,-3.0342,-3.121,-3.1898,-3.2018,0.0,0.0,0.0,0.0,0.0,0.0,0.0,0.0,0.0,0.0,-2.7773,-2.8265,-2.8601,-2.7652,0.0,0.0,-2.6214,-2.6163,0.0,0.0,0.0,0.0,0.0,-2.4958,-2.4494,0.0,-2.1901,-2.183,0.0,0.0,0.0,0.0,0.0,0.0,-1.8262,0.0,0.0,0.0,0.0,0.0,0.0,0.0,0.0,0.0,0.0,0.0,0.0,0.0,0.0,0.0,0.0,0.0,0.0,0.0,0.0,0.0,0.0,0.0,0.0,0.0,0.0,0.0,-2.3672,-2.3496,-2.3496,-2.3789,-2.3769,-2.334,-2.3633,-2.3574,-2.3144,-2.3144,-2.3144,-2.3144,-2.3144,-2.3299,-2.3627,-2.4702,-2.5462,-2.5775,-2.6953,-2.729,-2.7392,-3.0229,-3.1712,-3.2265,-3.2842,-3.3068,-3.3219,-3.4324,-3.4726,-3.4694,0.0,0.0,0.0,0.0,0.0,-2.5563,-2.4964,-2.383,-2.2969,0.0,0.0,0.0,-2.2421,-2.4142,-2.6493,-2.9498,-2.9449,-3.0025,-3.1781,-3.13,-3.112,-3.1452,-3.2437,-3.2617,-3.1958,0.0,0.0,0.0,0.0,0.0,0.0,0.0,0.0,0.0,0.0,0.0,0.0,0.0,0.0,0.0,-2.6249,0.0,0.0,-2.664,-2.6892,0.0,0.0,0.0,-2.6434,-2.3536,-2.2345,0.0,0.0,0.0,0.0,0.0,0.0,0.0,0.0,0.0,0.0,0.0,0.0,0.0,-2.0392,-2.0527,0.0,0.0,0.0,0.0,0.0,0.0,0.0,0.0,0.0,0.0,0.0,0.0,0.0,0.0,0.0,0.0,0.0,0.0,0.0,-2.3535,-2.3281,-2.3144,-2.3144,-2.3379,-2.3398,-2.3144,-2.3379,-2.3398,-2.3144,-2.3144,-2.3144,-2.3144,-2.3144,-2.3387,-2.38,-2.4532,-2.5041,-2.5546,-2.6235,-2.6707,-2.7217,-2.914,-3.0458,-3.1329,-3.2571,-3.3068,-3.3219,-3.4324,-3.4338,-3.3912,0.0,0.0,0.0,-2.7238,-2.5936,-2.4447,-2.3175,-2.2913,-2.259,0.0,-2.1265,-2.1659,-2.4269,-2.6229,-2.838,-3.0624,-3.0974,-3.143,-3.2377,-3.187,-3.1482,-3.1482,-3.2586,-3.2944,-3.2288,-3.0779,0.0,0.0,0.0,0.0,0.0,0.0,0.0,0.0,0.0,0.0,0.0,0.0,0.0,-2.805,-2.6892,-2.7364,0.0,0.0,-2.8725,-2.9601,-2.8694,-2.8402,-2.7901,-2.4116,-2.1611,0.0,0.0,0.0,0.0,0.0,-1.8926,0.0,0.0,0.0,0.0,0.0,0.0,0.0,-2.0206,-2.049,0.0,0.0,0.0,0.0,0.0,0.0,0.0,0.0,0.0,0.0,0.0,0.0,0.0,0.0,0.0,0.0,0.0,-2.3496,-2.3555,-2.3164,-2.3144,-2.3144,-2.3144,-2.3144,-2.3144,-2.3144,-2.3144,-2.3144,-2.3144,-2.3144,-2.3144,-2.3144,-2.3144,-2.3627,-2.4617,-2.4617,-2.5126,-2.6152,-2.6152,-2.6639,-2.7435,-2.7611,-2.8528,-2.9939,-3.2068,-3.2896,-3.3021,-3.4209,-3.3857,-3.2841,0.0,0.0,-2.7702,-2.6816,-2.5981,-2.5383,-2.5054,-2.3988,-2.3154,-2.3071,-2.1909,-2.2391,-2.5739,-2.5802,-2.7128,-3.0818,-3.0828,-3.1096,-3.2095,-3.1752,-3.1482,-3.1482,-3.1569,-3.129,-3.0713,-2.9937,-2.8812,0.0,0.0,0.0,0.0,0.0,0.0,0.0,0.0,0.0,0.0,0.0,0.0,-2.6625,-2.6179,0.0,-2.8197,-2.7645,-2.8122,-2.9025,-2.8849,-2.9071,-2.9213,-2.7553,-2.4336,-2.1208,0.0,0.0,0.0,-1.9043,0.0,0.0,0.0,0.0,0.0,0.0,0.0,0.0,-2.0219,-2.0935,-2.2024,0.0,0.0,0.0,0.0,0.0,0.0,0.0,0.0,0.0,0.0,0.0,0.0,0.0,0.0,0.0,0.0,-2.3223,-2.3223,-2.3144,-2.3144,-2.3144,-2.3144,-2.3144,-2.3144,-2.3144,-2.3144,-2.3144,-2.3144,-2.3144,-2.3144,-2.3144,-2.3144,-2.3212,-2.3474,-2.3474,-2.356,-2.3714,-2.3714,-2.3901,-2.421,-2.5878,-2.7765,-2.9602,-3.1063,-3.1601,-3.1809,-3.3941,-3.3857,-3.2747,0.0,0.0,-2.6273,-2.5714,-2.4934,-2.4367,-2.4367,-2.3494,-2.2958,0.0,0.0,-2.3888,-2.6229,-2.66,-2.7878,-3.0966,-3.0735,-3.0719,-3.1425,-3.1339,-3.1159,-3.0925,-3.1058,-3.119,-3.1219,-2.9792,-2.8675,-2.7802,0.0,0.0,0.0,0.0,0.0,0.0,0.0,0.0,0.0,0.0,-2.7143,-2.6109,-2.6622,0.0,-2.7318,-2.7595,-2.8197,-2.8925,-2.8925,-2.8425,-2.7677,-2.6935,-2.4717,0.0,0.0,-2.1212,-2.0449,0.0,-1.9609,-1.9609,0.0,0.0,0.0,-1.9648,0.0,0.0,0.0,-2.104,-2.1923,0.0,0.0,0.0,0.0,0.0,0.0,0.0,0.0,0.0,0.0,0.0,0.0,0.0,0.0,0.0,0.0,-2.2695,-2.291,-2.3125,-2.3144,-2.3144,-2.3144,-2.3144,-2.3144,-2.3144,-2.3144,-2.3144,-2.3144,-2.3144,-2.3144,-2.3144,-2.3144,-2.3144,-2.3144,-2.3144,-2.3144,-2.3144,-2.3144,-2.3379,-2.3809,-2.4947,-2.6187,-2.7746,-3.0214,-3.1365,-3.1722,-3.3174,-3.2559,-3.1149,-2.5405,0.0,0.0,-2.4324,-2.3614,-2.3105,-2.3027,-2.2793,0.0,0.0,0.0,0.0,0.0,0.0,0.0,0.0,-3.044,-3.0166,-3.0979,-3.074,-3.0368,-2.9915,-3.0387,-3.0722,-3.0779,-2.9254,-2.8313,-2.7971,0.0,0.0,0.0,0.0,0.0,0.0,0.0,0.0,0.0,0.0,0.0,-2.6011,0.0,-2.7204,-2.6716,-2.762,-2.8298,-2.8775,-2.8775,-2.7582,-2.607,-2.5828,-2.4843,-2.3495,-2.1934,-2.1912,0.0,0.0,0.0,0.0,0.0,0.0,0.0,0.0,0.0,-2.1161,0.0,0.0,0.0,0.0,0.0,0.0,0.0,0.0,0.0,0.0,0.0,0.0,0.0,0.0,0.0,0.0,0.0,0.0,0.0,-2.2246,-2.2539,-2.2871,-2.2969,-2.3027,-2.3027,-2.3086,-2.3144,-2.3144,-2.3144,-2.3144,-2.3144,-2.3144,-2.3144,-2.3144,-2.3144,-2.3144,-2.3144,-2.3144,-2.3144,-2.3144,-2.3299,-2.387,-2.4524,-2.4611,-2.5292,-2.6425,-2.9329,-3.074,-3.1182,-3.1972,-3.1031,-2.945,-2.3727,-2.4261,0.0,0.0,-2.2722,-2.3008,-2.2637,-2.2852,0.0,0.0,0.0,0.0,0.0,0.0,0.0,0.0,0.0,0.0,-3.1668,0.0,-2.853,-2.8446,-2.8698,-2.7931,-2.6049,-2.694,-2.6772,-2.5214,0.0,0.0,0.0,0.0,0.0,0.0,-2.3811,0.0,0.0,0.0,-2.6276,0.0,-2.6707,-2.7074,0.0,-2.7318,-2.772,-2.8197,-2.8197,-2.7723,-2.7201,0.0,-2.6749,-2.5405,0.0,-2.3503,-2.2102,-2.1253,0.0,0.0,0.0,0.0,0.0,0.0,-2.2192,0.0,0.0,0.0,0.0,0.0,0.0,0.0,0.0,0.0,0.0,0.0,0.0,0.0,0.0,0.0,0.0,0.0,0.0,0.0,0.0,0.0,-2.1973,-2.2031,-2.2383,-2.2578,-2.2578,-2.293,-2.3144,-2.3144,-2.3144,-2.3144,-2.3144,-2.3144,-2.3144,-2.3144,-2.3144,-2.3144,-2.3144,-2.3144,-2.3144,-2.3144,-2.4125,-2.468,-2.4846,-2.5591,-2.6615,-2.7657,-2.7893,-2.807,-2.8271,-2.9858,-2.9773,-2.8969,-2.2534,-2.2877,0.0,0.0,0.0,-2.2715,-2.2539,-2.3086,0.0,0.0,0.0,0.0,0.0,0.0,0.0,0.0,0.0,-3.0292,0.0,0.0,0.0,-2.8905,-2.861,-2.8106,-2.7129,-2.6088,-2.5232,-2.4481,-2.3412,0.0,0.0,0.0,0.0,0.0,-2.2738,0.0,-2.4812,0.0,0.0,0.0,0.0,0.0,0.0,-2.6666,-2.7143,-2.7595,-2.7268,-2.6992,-2.6741,0.0,-2.5942,0.0,0.0,0.0,0.0,0.0,0.0,0.0,0.0,0.0,0.0,0.0,0.0,0.0,-2.13,0.0,-2.2138,0.0,0.0,0.0,0.0,0.0,0.0,0.0,0.0,0.0,0.0,0.0,0.0,0.0,0.0,0.0,0.0,0.0,0.0,0.0,-2.1758,-2.2031,-2.1777,-2.2168,-2.2519,-2.2773,-2.2773,-2.2891,-2.3144,-2.3144,-2.3144,-2.3144,-2.3144,-2.3144,-2.3144,-2.3144,-2.3474,-2.4125,-2.4617,-2.5275,-2.6086,-2.6098,-2.652,-2.7179,-2.6689,-2.7099,-2.7998,-2.8742,-2.8446,-2.7844,-2.1465,0.0,0.0,0.0,0.0,0.0,0.0,0.0,0.0,0.0,0.0,0.0,-3.0579,-3.1472,0.0,0.0,-3.219,-3.1411,0.0,0.0,-2.9352,0.0,0.0,0.0,0.0,-2.4719,-2.3743,-2.3461,-2.1932,0.0,0.0,0.0,0.0,0.0,0.0,-2.2128,-2.2739,0.0,0.0,-2.4285,-2.4657,-2.4937,-2.5209,-2.5787,-2.6264,-2.6565,-2.6163,-2.6013,-2.5912,-2.5259,-2.5208,0.0,-2.3942,0.0,0.0,0.0,0.0,0.0,-2.0996,0.0,0.0,0.0,0.0,0.0,0.0,0.0,0.0,0.0,0.0,0.0,0.0,0.0,0.0,0.0,0.0,0.0,0.0,0.0,0.0,0.0,0.0,0.0,0.0,0.0,0.0,-2.0391,-2.0977,-2.125,-2.1055,-2.1465,-2.1953,-2.25,-2.2402,-2.2598,-2.3125,-2.3027,-2.3027,-2.3144,-2.3144,-2.3144,-2.3144,-2.3387,-2.4039,-2.4872,-2.5441,-2.6307,-2.7273,-2.6672,-2.6615,-2.6901,-2.5924,-2.6383,-2.7503,-2.7503,-2.7301,-2.707,-2.0605,-2.1309,0.0,0.0,0.0,0.0,0.0,0.0,0.0,0.0,0.0,0.0,0.0,0.0,0.0,0.0,0.0,-3.2641,-3.3696,0.0,-2.7804,0.0,0.0,-2.4891,0.0,0.0,-2.2246,-2.1286,0.0,0.0,0.0,0.0,0.0,0.0,0.0,-2.124,-2.1638,-2.1868,-2.2361,-2.2919,-2.2815,-2.3311,-2.4104,0.0,-2.4883,-2.4908,-2.4883,0.0,0.0,-2.541,-2.535,0.0,0.0,0.0,0.0,0.0,0.0,0.0,0.0,0.0,0.0,-2.1953,0.0,0.0,0.0,0.0,-2.0183,0.0,0.0,0.0,0.0,0.0,0.0,0.0,0.0,0.0,0.0,0.0,0.0,0.0,0.0,0.0,0.0,0.0,0.0,-1.9941,-1.9961,-2.0156,-2.0566,-2.1016,-2.1641,-2.248,-2.2109,-2.2305,-2.3125,-2.2734,-2.2734,-2.3144,-2.3144,-2.3144,-2.3144,-2.4211,-2.4787,-2.4957,-2.7093,-2.8004,-2.7995,-2.7334,-2.732,-2.7459,-2.5817,-2.5352,-2.5762,-2.5762,-2.6289,-2.7012,0.0,0.0,0.0,0.0,0.0,0.0,0.0,-2.3894,0.0,0.0,0.0,0.0,0.0,-3.465,-3.5629,0.0,0.0,-3.4413,-3.3223,-3.1414,0.0,0.0,0.0,-2.5746,0.0,0.0,0.0,0.0,0.0,0.0,0.0,0.0,0.0,0.0,0.0,-2.0249,0.0,0.0,0.0,0.0,0.0,-2.2982,-2.3513,0.0,0.0,-2.4782,-2.4406,-2.4506,0.0,-2.4607,-2.4296,-2.3928,-2.336,-2.2426,-2.1397,-2.0814,-2.0469,0.0,0.0,0.0,-2.1193,-2.1053,0.0,0.0,0.0,0.0,0.0,0.0,0.0,0.0,0.0,0.0,0.0,0.0,0.0,0.0,0.0,0.0,0.0,0.0,0.0,0.0,0.0,0.0,0.0,-1.8672,-1.8906,-1.9141,-1.9277,-1.9961,-2.0625,-2.1211,-2.1367,-2.1738,-2.2305,-2.2441,-2.2578,-2.2734,-2.3008,-2.3474,-2.4211,-2.4617,-2.5608,-2.7012,-2.7763,-2.8505,-2.9077,-2.7667,-2.7297,-2.7525,-2.5797,-2.5352,-2.5742,-2.5742,-2.5918,-2.625,-2.123,0.0,0.0,0.0,0.0,0.0,0.0,0.0,0.0,0.0,-2.9239,0.0,-3.3707,0.0,-3.5403,0.0,-3.5885,-3.4674,-3.239,-3.1576,0.0,-2.7042,-2.6759,0.0,0.0,0.0,0.0,0.0,0.0,-1.9512,0.0,0.0,0.0,0.0,0.0,0.0,0.0,0.0,-1.9901,0.0,0.0,-2.1952,0.0,0.0,-2.366,-2.4165,0.0,-2.3717,-2.3737,-2.3589,-2.2941,-2.223,-2.2103,-2.1317,-2.0451,-2.0206,-2.0117,-2.0234,-2.0644,-2.0781,0.0,-2.0605,-2.0684,0.0,-1.9902,0.0,0.0,0.0,0.0,0.0,0.0,0.0,0.0,0.0,0.0,0.0,0.0,-1.8535,0.0,0.0,0.0,0.0,0.0,0.0,-1.8691,-1.8262,-1.834,-1.8477,0.0,0.0,-1.9961,-2.0547,-2.084,-2.1289,-2.1875,-2.2148,-2.2363,-2.2519,-2.3342,-2.4125,-2.4872,-2.5608,-2.6767,-2.8084,-2.8505,-2.8846,-2.9052,-2.7566,-2.6882,-2.6736,-2.5209,-2.498,-2.5527,-2.5684,-2.584,-2.6074,0.0,0.0,0.0,0.0,-2.1621,0.0,0.0,0.0,-2.553,0.0,-2.8015,-2.9706,-3.1869,-3.2583,-3.3331,-3.4374,-3.4441,-3.3615,-3.1639,-3.134,0.0,0.0,-2.5868,-2.503,-2.2598,0.0,0.0,0.0,0.0,0.0,0.0,0.0,0.0,0.0,-1.9687,0.0,-1.6772,-1.8516,-1.8529,-1.7573,-1.9227,-2.0124,-2.0593,-2.0613,-2.159,-2.2991,-2.3009,-2.258,-2.1949,-2.2512,-2.1417,-1.9954,-2.0576,-2.0317,-1.9785,-1.9434,-1.9902,-2.0449,-2.0019,-2.0527,-2.1055,-2.0605,0.0,0.0,0.0,0.0,-2.1113,0.0,0.0,0.0,0.0,0.0,0.0,0.0,0.0,0.0,0.0,0.0,0.0,0.0,0.0,0.0,0.0,-1.9797,-1.9043,-1.8562,-1.8223,-1.8164,0.0,0.0,-1.9668,-2.0469,-2.0547,-2.0977,-2.1855,-2.1958,-2.2173,-2.2605,-2.4176,-2.4872,-2.5041,-2.7093,-2.8084,-2.8164,-2.9287,-2.9106,-2.7924,-2.6871,-2.6018,-2.5326,-2.4217,-2.4316,-2.5117,-2.5566,-2.5996,-2.6406,-2.1719,-2.1973,-2.2187,0.0,-2.2012,-2.2129,0.0,0.0,0.0,0.0,-2.9926,-3.1989,-3.2767,-3.3879,-3.4818,-3.5064,-3.4751,0.0,0.0,0.0,0.0,-2.6247,-2.5892,-2.5066,-2.3496,-2.3672,0.0,-2.2012,0.0,0.0,-2.0371,0.0,0.0,0.0,0.0,0.0,-1.6733,-1.7891,-1.8167,-1.7941,-1.8998,-1.9937,0.0,0.0,-2.0864,-2.1294,-2.198,-2.2063,-2.1901,-2.2044,-2.0899,-1.9561,-2.0023,-1.9555,-1.9062,-1.959,-1.9902,-2.0059,-1.9941,-2.0078,-2.0156,-1.9727,-1.9941,-2.0234,0.0,0.0,0.0,0.0,0.0,0.0,0.0,0.0,0.0,0.0,0.0,0.0,0.0,0.0,0.0,-1.9043,0.0,0.0,0.0,-1.8655,-1.8301,-1.8184,-1.7773,-1.7734,0.0,0.0,0.0,-1.9609,-2.0234,-2.084,-2.1387,-2.2494,-2.335,-2.3805,-2.533,-2.6461,-2.7256,-2.7844,-2.8084,-2.8084,-2.8426,-2.7947,-2.6789,-2.5714,-2.5317,-2.5326,-2.4217,-2.4316,-2.5117,-2.5566,-2.5801,-2.5957,-2.1914,0.0,0.0,-2.2793,0.0,0.0,-2.3887,0.0,0.0,-2.7251,-2.9597,0.0,-3.1227,-3.2309,-3.3098,-3.3098,-3.2674,0.0,-3.0309,0.0,0.0,-2.6445,-2.5977,-2.5215,-2.4082,-2.3574,0.0,-2.2246,0.0,0.0,-2.0254,0.0,0.0,0.0,0.0,-1.8535,0.0,-1.7598,-1.7823,-1.7999,-1.8304,0.0,0.0,-1.9431,-1.9691,-2.007,-2.0597,-2.0782,-2.0782,-2.0782,-1.9879,-1.8771,-1.9015,-1.8825,-1.873,-1.9219,-1.9492,-1.9648,-1.9648,-1.9648,-1.959,-1.9355,-1.9473,-1.9648,-1.9648,-2.0176,-2.0586,0.0,0.0,0.0,0.0,0.0,0.0,0.0,0.0,0.0,0.0,0.0,0.0,0.0,-1.8848,0.0,0.0,-1.832,-1.8203,-1.8027,-1.7949,0.0,0.0,0.0,0.0,-1.9297,-2.0312,-2.0977,-2.123,-2.2919,-2.3945,-2.4198,-2.6214,-2.7522,-2.8084,-2.8084,-2.8084,-2.8084,-2.7602,-2.6789,-2.5714,-2.5041,-2.4612,-2.4398,-2.4177,-2.4355,-2.4863,-2.5508,-2.5742,-2.5781,0.0,0.0,0.0,0.0,0.0,0.0,0.0,-2.5293,0.0,-2.7012,0.0,-2.9004,-2.9004,-2.9668,-3.0117,-3.0117,0.0,-2.9141,-2.834,-2.8535,-2.7988,-2.6465,-2.5918,-2.5254,-2.4434,-2.2812,-2.1973,0.0,0.0,-1.9922,-1.9902,0.0,0.0,0.0,0.0,0.0,0.0,-1.7559,-1.7598,0.0,-1.7598,-1.7695,-1.8008,-1.8008,-1.8462,-1.911,-1.911,-1.9177,-1.9309,-1.9309,-1.8731,-1.8008,-1.8008,-1.8301,-1.8562,-1.8562,-1.8945,-1.9277,-1.9219,-1.9199,-1.918,-1.9141,-1.916,-1.9199,-1.9199,-1.957,-1.9847,-1.9752,-2.0177,-2.0449,0.0,0.0,0.0,0.0,0.0,0.0,0.0,0.0,0.0,0.0,0.0,0.0,0.0,0.0,-1.8457,-1.8047,-1.834,0.0,0.0,0.0,0.0,-1.9297,-2.0449,-2.1152,-2.1309,0.0,-2.4341,-2.4282,-2.7071,-2.8187,-2.7924,-2.8004,-2.7924,-2.7602,-2.6707,-2.563,-2.4532,-2.4532,-2.3953,-2.3223,-2.4023,-2.4355,-2.4512,-2.5352,-2.5684,-2.5742,0.0,0.0,0.0,0.0,0.0,-2.4805,-2.5977,-2.6445,-2.7012,-2.7949,-2.8887,-2.9453,-2.9453,-2.959,-2.9687,-2.9687,-2.9277,0.0,0.0,0.0,0.0,-2.6426,-2.5625,-2.4941,-2.4434,-2.3086,-2.2402,0.0,-2.0723,-1.9922,-1.9902,0.0,0.0,0.0,0.0,0.0,-1.7988,-1.7559,0.0,-1.7519,-1.7793,-1.7949,-1.8008,-1.8008,-1.8076,-1.8212,-1.8212,-1.8731,-1.9309,-1.9309,-1.8731,-1.8008,-1.8008,-1.8301,-1.8562,-1.8562,-1.8945,-1.9219,-1.8848,-1.875,-1.8672,-1.832,-1.8496,-1.875,-1.875,-1.9355,-1.9676,-1.8745,-1.962,-2.0294,-1.934,0.0,0.0,0.0,0.0,0.0,0.0,0.0,0.0,0.0,0.0,-1.8828,0.0,0.0,0.0,0.0,0.0,0.0,0.0,0.0,0.0,0.0,-1.9844,0.0,0.0,0.0,-2.4902,-2.4746,-2.798,-2.853,-2.6812,-2.7683,-2.7093,-2.5357,-2.521,-2.4467,-2.3387,-2.3387,-2.3299,-2.3184,-2.3691,-2.4102,-2.4473,-2.5,-2.543,-2.5742,0.0,0.0,0.0,0.0,0.0,0.0,0.0,-2.7402,0.0,-2.7949,-2.832,-2.8574,-2.8574,-2.8769,-2.8984,-2.9219,-2.8437,-2.7949,-2.7969,-2.7363,-2.6719,-2.6074,-2.543,0.0,-2.4102,-2.2617,-2.1953,-2.2187,-2.0215,-1.9355,-1.957,0.0,0.0,0.0,0.0,-1.8437,0.0,0.0,0.0,-1.8027,-1.8008,-1.8008,-1.8008,-1.8008,-1.8008,-1.8008,-1.8008,-1.8259,-1.8664,-1.8664,-1.8327,-1.8008,-1.8008,-1.8144,-1.832,-1.832,-1.8457,-1.8574,-1.8379,-1.832,-1.8262,-1.8066,-1.8164,-1.832,-1.832,-1.8533,-1.8601,-1.8055,-1.8929,-1.959,-1.9116,-1.7812,0.0,0.0,0.0,0.0,0.0,0.0,0.0,0.0,0.0,0.0,0.0,0.0,0.0,0.0,0.0,0.0,0.0,0.0,0.0,0.0,0.0,0.0,0.0,0.0,0.0,-2.4872,-2.7035,-2.7545,-2.6483,-2.6461,-2.5775,-2.4787,-2.4211,-2.3627,-2.3144,-2.3144,-2.3144,-2.3203,-2.3867,-2.4238,-2.4492,-2.5176,-2.5547,-2.5742,0.0,-2.4492,0.0,0.0,-2.5937,0.0,-2.7305,-2.791,-2.8203,-2.7969,-2.7851,-2.7754,-2.7676,-2.7969,-2.8262,-2.8496,-2.7598,-2.709,-2.7246,-2.6934,-2.6367,-2.5488,-2.5039,-2.4473,-2.3809,-2.2109,-2.1406,0.0,-1.9746,-1.8906,0.0,0.0,0.0,0.0,0.0,0.0,0.0,0.0,-1.8203,-1.8407,-1.8144,-1.8008,-1.8008,-1.8008,-1.8008,-1.8008,-1.8008,-1.8008,-1.8008,-1.8008,-1.8008,-1.8008,-1.8008,-1.8008,-1.8008,-1.8008,-1.8008,-1.8008,-1.8008,-1.8008,-1.8008,-1.8008,-1.8008,-1.7959,-1.7831,-1.7712,-1.7578,-1.7197,-1.7908,-1.8718,-1.8957,-1.7871,0.0,0.0,0.0,0.0,0.0,0.0,0.0,0.0,0.0,0.0,-1.8086,0.0,0.0,0.0,0.0,-1.8359,-1.8027,-1.873,-1.9199,0.0,0.0,-2.125,-2.1875,0.0,-2.4514,-2.4467,-2.5797,-2.6235,-2.5735,-2.5126,-2.4702,-2.4382,-2.3474,-2.3144,-2.3144,-2.3242,-2.3281,-2.3359,-2.4121,-2.4473,-2.4629,-2.5332,-2.5664,-2.5742,0.0,0.0,0.0,0.0,0.0,0.0,0.0,-2.7519,-2.8418,-2.875,-2.8476,-2.8086,-2.7715,-2.7695,-2.7578,-2.7226,-2.709,-2.6699,-2.5957,-2.5879,-2.5469,-2.457,-2.4141,-2.3867,-2.3789,-2.2109,-2.125,0.0,-1.9902,-1.9043,0.0,0.0,0.0,0.0,0.0,0.0,0.0,-1.8047,-1.8027,-1.8066,-1.8027,-1.8008,-1.8008,-1.8008,-1.8008,-1.8008,-1.8008,-1.8008,-1.8008,-1.8008,-1.8008,-1.8008,-1.8008,-1.8008,-1.8008,-1.8008,-1.8008,-1.8008,-1.8008,-1.8008,-1.8008,-1.8008,-1.8008,-1.7831,-1.7259,-1.7387,-1.7273,-1.5668,-1.6509,-1.7738,-1.8798,-1.8318,-1.7266,0.0,0.0,0.0,0.0,0.0,0.0,0.0,0.0,0.0,0.0,-1.8398,0.0,0.0,-1.8047,-1.8047,-1.8008,-1.8437,-1.8887,-1.9277,0.0,-2.0625,-2.1875,-2.3042,-2.3474,-2.3299,-2.5484,-2.54,-2.3474,-2.4382,-2.4211,-2.3212,-2.3144,-2.3144,-2.3164,-2.3574,-2.373,-2.3769,-2.4238,-2.4668,-2.5019,-2.5098,-2.5391,-2.5742,0.0,0.0,0.0,0.0,0.0,0.0,0.0,-2.7187,-2.7598,-2.7754,-2.7851,-2.7851,-2.7676,-2.7207,-2.6934,-2.7012,-2.6289,-2.582,-2.5742,-2.5234,-2.4668,-2.4062,-2.3887,-2.3672,-2.3398,-2.2227,-2.1504,0.0,0.0,0.0,0.0,0.0,0.0,0.0,0.0,-1.7773,-1.7988,-1.7734,-1.7773,-1.8008,-1.8008,-1.8008,-1.8008,-1.8008,-1.8008,-1.8008,-1.8008,-1.8008,-1.8008,-1.8008,-1.8008,-1.8008,-1.8008,-1.8008,-1.8008,-1.8008,-1.8008,-1.8008,-1.8008,-1.8008,-1.8008,-1.8008,-1.8008,-1.791,-1.765,-1.708,-1.6505,-1.5809,-1.6046,-1.6683,-1.7738,-1.7204,-1.636,0.0,0.0,0.0,0.0,0.0,0.0,0.0,0.0,0.0,0.0,0.0,0.0,0.0,0.0,-1.8008,-1.8008,-1.8164,-1.8574,-1.9258,0.0,-2.0547,-2.1875,-2.2526,-2.2944,-2.3144,-2.4059,-2.3973,-2.3144,-2.3541,-2.356,-2.3144,-2.3144,-2.3281,-2.3535,-2.3711,-2.3945,-2.4199,-2.4648,-2.4922,-2.5098,-2.5371,-2.5586,-2.5742,-2.5176,0.0,-2.5352,0.0,-2.623,-2.6269,-2.6758,-2.6934,-2.6973,-2.6836,-2.6992,-2.7148,-2.7285,-2.6758,-2.6406,-2.6445,-2.5605,-2.5098,-2.5156,-2.459,-2.4043,-2.3613,-2.3594,0.0,-2.2969,-2.2246,-2.1602,-2.1035,-2.0293,0.0,0.0,0.0,0.0,0.0,-1.7695,-1.7734,-1.7988,-1.7695,-1.7734,-1.8008,-1.8008,-1.8008,-1.8008,-1.8008,-1.8008,-1.8008,-1.8008,-1.8008,-1.8008,-1.8008,-1.8008,-1.8008,-1.8008,-1.8008,-1.8008,-1.8008,-1.8008,-1.8008,-1.8008,-1.8008,-1.8047,-1.8164,-1.8105,-1.8037,-1.8056,-1.7295,-1.6446,-1.6431,-1.6573,-1.6927,-1.7658,-1.7008,-1.6314,-1.6206,0.0,0.0,0.0,0.0,0.0,0.0,-1.7496,-1.7549,-1.7959,-1.8125,0.0,0.0,0.0,0.0,-1.8379,-1.8379,0.0,0.0,0.0,0.0,0.0,-2.2305,-2.2715,-2.3144,-2.3144,-2.3144,-2.3144,-2.3144,-2.3144,-2.3144,-2.3144,-2.332,-2.3613,-2.3867,-2.4082,-2.4277,-2.4844,-2.5,-2.4922,-2.5371,-2.5547,-2.5566,-2.4258,-2.4785,-2.5352,-2.623,-2.6719,-2.6855,-2.6465,-2.6738,-2.6875,-2.6445,-2.6035,-2.5918,-2.6367,-2.6387,-2.6035,-2.5176,-2.5078,-2.4707,-2.3867,-2.3809,-2.3594,0.0,0.0,-2.2949,-2.2539,-2.2109,-2.1465,-2.0566,0.0,0.0,-1.8562,0.0,-1.8008,-1.8008,-1.8008,-1.8008,-1.8008,-1.8008,-1.8008,-1.8008,-1.8008,-1.8008,-1.8008,-1.8008,-1.8008,-1.8008,-1.8008,-1.8008,-1.8008,-1.8008,-1.8008,-1.8008,-1.8008,-1.8008,-1.8008,-1.8008,-1.8008,-1.8008,-1.8008,-1.8008,-1.8105,-1.8516,-1.832,-1.8062,-1.8224,-1.7979,-1.7623,-1.7329,-1.8141,-1.8957,-1.8957,-1.8288,-1.768,-1.7318,0.0,0.0,0.0,0.0,0.0,0.0,-1.8599,-1.8945,-1.8086,0.0,0.0,0.0,0.0,0.0,0.0,0.0,0.0,-1.9297,-2.0547,0.0,-2.1875,-2.2305,-2.2715,-2.3144,-2.3144,-2.3144,-2.3144,-2.3144,-2.3144,-2.3144,-2.3144,-2.3144,-2.3223,-2.4062,-2.416,-2.3887,-2.4727,-2.4805,-2.4473,-2.4922,-2.5078,-2.5137,-2.4316,-2.4766,-2.5059,-2.5039,-2.5664,-2.5996,-2.5547,-2.5605,-2.5644,-2.5508,-2.5117,-2.4883,-2.5039,-2.5039,-2.4922,0.0,-2.4355,-2.4082,0.0,-2.3516,-2.3281,-2.3144,-2.3144,-2.2949,-2.2519,-2.2109,-2.1445,-2.0566,0.0,0.0,0.0,-1.9082,-1.873,-1.8418,-1.8144,-1.8008,-1.8008,-1.8008,-1.8008,-1.8008,-1.8008,-1.8008,-1.8008,-1.8008,-1.8008,-1.8008,-1.8008,-1.8008,-1.8008,-1.8008,-1.8203,-1.8379,-1.8105,-1.8008,-1.8008,-1.8008,-1.8008,-1.8008,-1.8008,-1.8223,-1.8477,-1.8594,-1.875,-1.8913,-1.8934,-1.8526,-1.7941,-1.7396,-1.7859,-1.8292,-1.8292,-1.8145,-1.7929,-1.7813,-1.7365,0.0,0.0,0.0,0.0,0.0,-1.6547,-1.6663,0.0,-1.7352,0.0,0.0,0.0,0.0,0.0,0.0,0.0,0.0,-2.0566,0.0,-2.2305,-2.2441,-2.2715,-2.3144,-2.3144,-2.3144,-2.3144,-2.3144,-2.3144,-2.3144,-2.3144,-2.3301,-2.3613,-2.3887,-2.4082,-2.4238,-2.4512,-2.4531,-2.4434,-2.457,-2.4805,-2.5098,-2.3887,-2.4297,-2.4512,-2.4238,-2.4766,-2.5156,-2.4863,-2.4824,-2.4824,-2.4824,-2.4453,-2.418,-2.418,-2.4043,0.0,-2.416,-2.3945,-2.3711,-2.3555,-2.3301,-2.3144,-2.3144,-2.3144,-2.2949,-2.2519,-2.2109,0.0,-2.082,-2.0488,-2.0019,-1.9434,-1.916,-1.8809,-1.8398,-1.8125,-1.8008,-1.8008,-1.8008,-1.8008,-1.8008,-1.8008,-1.8008,-1.8008,-1.8008,-1.8008,-1.8008,-1.8008,-1.8008,-1.8008,-1.8008,-1.8281,-1.8555,-1.8144,-1.8125,-1.8223,-1.8047,-1.8008,-1.8008,-1.8008,-1.8203,-1.8477,-1.8789,-1.8965,-1.9121,-1.9453,-1.9317,-1.8884,-1.8089,-1.8615,-1.9059,-1.8711,-1.8628,-1.8628,-1.8628,-1.8117,-1.761,-1.7371,0.0,0.0,0.0,0.0,0.0,0.0,-1.6818,-1.7235,0.0,0.0,0.0,0.0,0.0,0.0,-2.0547,-2.1035,0.0,-2.25,-2.2208,-2.2157,-2.2403,-2.1943,-2.1765,-2.1765,-2.2227,-2.2403,-2.2492,-2.2862,-2.3301,-2.3555,-2.373,-2.3848,-2.3945,-2.4121,-2.4082,-2.3965,-2.4121,-2.4355,-2.4609,-2.3144,-2.3496,0.0,0.0,-2.4121,0.0,-2.4375,-2.4375,-2.4375,-2.4375,-2.4004,-2.375,-2.375,-2.3379,-2.3301,-2.3711,0.0,0.0,0.0,-2.3144,-2.3144,-2.3144,-2.3144,-2.293,-2.248,-2.209,-2.166,-2.1191,-2.0371,-1.9531,-1.873,-1.8691,-1.8457,-1.8047,-1.8027,-1.8008,-1.8008,-1.8008,-1.8008,-1.8008,-1.8008,-1.8008,-1.8008,-1.8008,-1.8008,-1.8008,-1.8008,-1.8027,-1.8047,-1.8027,-1.832,-1.8652,-1.8164,-1.832,-1.8594,-1.8144,-1.794,-1.7872,-1.7872,-1.7891,-1.8173,-1.901,-1.8951,-1.8984,-1.9766,-2.0273,-2.0333,-1.9311,-2.024,-2.0947,-1.9952,-1.977,-1.9734,-1.9716,-1.8964,-1.8267,-1.8213,0.0,0.0,0.0,0.0,0.0,0.0,-1.654,-1.6636,0.0,0.0,0.0,0.0,0.0,-1.9366,-2.0566,-2.1773,-2.2434,-2.2559,-2.1757,-2.1284,-2.1194,-2.0025,-1.9497,-1.9588,-2.0747,-2.1302,-2.1391,-2.258,-2.3144,-2.3164,-2.3574,-2.3496,-2.3184,-2.3594,-2.3496,-2.3184,-2.3594,-2.3769,-2.3848,0.0,0.0,-2.3691,-2.3359,-2.3926,-2.4316,-2.3984,-2.3945,-2.3945,-2.3945,-2.3555,-2.3301,-2.3301,-2.3203,-2.3184,-2.3281,-2.3301,-2.3242,-2.3144,-2.3144,-2.3144,-2.3144,-2.3144,-2.2793,-2.2051,-2.1934,-2.1504,-2.0723,-2.0508,-2.0137,-1.9609,-1.9277,-1.8906,-1.8407,-1.8144,-1.8008,-1.8008,-1.8008,-1.8008,-1.8008,-1.8008,-1.8008,-1.8008,-1.8008,-1.8008,-1.8008,-1.8008,-1.8223,-1.8437,-1.8125,-1.873,-1.9414,-1.8359,-1.8516,-1.8984,-1.8223,-1.751,-1.6922,-1.6922,-1.7162,-1.753,-1.8101,-1.9164,-2.0156,-2.0371,-2.0488,-2.0586,-2.0678,-2.1264,-2.1753,-2.1794,-2.1582,-2.1274,-2.0866,-1.9455,-1.8221,-1.755,-1.6867,-1.6121,0.0,-1.5403,-1.5286,-1.4261,-1.5448,-1.5896,0.0,0.0,0.0,0.0,-1.704,-1.8228,-2.0255,-2.0845,-2.1757,-2.2988,-2.1887,-2.0836,-1.9951,-1.9679,-1.9497,-1.9588,-2.0747,-2.1302,-2.1391,-2.258,-2.3144,-2.3144,-2.3242,-2.3242,-2.3144,-2.3242,-2.3223,-2.3144,-2.3262,-2.3496,-2.3719,-2.3144,-2.332,-2.3418,-2.3184,-2.3516,-2.375,-2.3535,-2.3496,-2.3496,-2.3496,-2.3281,-2.3144,-2.3144,-2.3144,-2.3144,-2.3144,-2.3144,-2.3144,-2.3144,-2.3144,-2.3047,-2.2852,-2.2852,-2.2539,-2.1894,-2.1699,-2.125,-2.0566,-2.0566,-2.0332,-1.9902,-1.9492,-1.916,-1.8906,-1.8281,-1.8125,-1.8281,-1.8086,-1.8008,-1.8008,-1.8008,-1.8008,-1.8008,-1.8008,-1.8008,-1.8008,-1.8008,-1.8164,-1.832,-1.8086,-1.8594,-1.918,-1.8301,-1.8457,-1.8906,-1.8437,-1.7505,-1.6627,-1.6627,-1.6865,-1.7479,-1.8508,-1.9678,-2.0625,-2.082,-2.0879,-2.0996,-2.1445,-2.1875,-2.2246,-2.248,-2.2168,-2.1574,-2.0704,-1.9358,-1.7993,-1.6924,-1.6037,-1.5296,-1.481,-1.4828,-1.4699,-1.4314,-1.5154,-1.5339,-1.4349,-1.5168,0.0,-1.549,-1.6017,-1.7578,-2.0314,-2.0779,-2.135,-2.2296,-2.1123,-1.9844,-1.8688,-1.9222,-1.9497,-1.9588,-2.0747,-2.1302,-2.1391,-2.258,-2.3144,-2.3144,-2.3144,-2.3144,-2.3144,-2.3144,-2.3144,-2.3144,-2.3144,-2.3281,-2.3299,-2.3144,-2.3144,-2.3144,-2.3144,-2.3144,-2.3144,-2.3144,-2.3144,-2.3144,-2.3144,-2.3144,-2.3144,-2.3144,-2.3144,-2.3144,-2.3144,-2.3144,-2.3144,-2.3144,-2.3086,-2.2891,-2.2519,-2.2441,-2.2227,-2.1797,-2.1289,-2.0879,-2.0566,-2.0508,-2.0273,-1.9902,-1.9551,-1.9316,-1.916,-1.8418,-1.8262,-1.8516,-1.8164,-1.8008,-1.8008,-1.8008,-1.8008,-1.8008,-1.8008,-1.8008,-1.8008,-1.8008,-1.8086,-1.8203,-1.8125,-1.8477,-1.8848,-1.8359,-1.8496,-1.8809,-1.875,-1.7807,-1.6738,-1.6598,-1.683,-1.7587,-1.9428,-2.0293,-2.0762,-2.0893,-2.1109,-2.1364,-2.1627,-2.1993,-2.2264,-2.2322,-2.1767,-2.0976,-1.9761,-1.8585,-1.745,-1.6207,0.0,-1.4685,-1.5238,-1.4698,-1.4469,-1.4923,-1.5231,-1.5084,-1.4335,-1.5164,-1.5297,-1.4402,-1.5244,-1.7121,-2.0184,-2.0588,-2.0836,-2.1033,-2.0025,-1.8948,-1.7963,-1.9039,-1.9497,-1.9588,-2.0747,-2.1302,-2.1391,-2.258,-2.3144,-2.3144,-2.3144,-2.3144,-2.3144,-2.3144,-2.3144,-2.3144,-2.3144,-2.295,-2.2687,-2.3144,-2.3144,-2.3144,-2.3144,-2.3144,-2.3144,-2.3144,-2.3144,-2.3144,-2.3144,-2.3144,-2.3144,-2.3144,-2.3144,-2.3144,-2.3144,-2.3144,-2.3144,-2.3144,-2.2812,-2.2578,-2.2519,-2.2168,-2.1777,-2.1348,-2.0527,-2.0273,-2.0566,-2.0195,-1.998,-1.9922,-1.9844,-1.9434,-1.873,-1.8594,-1.8379,-1.8105,-1.8047,-1.8008,-1.8008,-1.8008,-1.8008,-1.8008,-1.8008,-1.8008,-1.8008,-1.8008,-1.8477,-1.9023,-1.8672,-1.9316,-2.0137,-1.9336,-1.9375,-1.9648,-1.9297,-1.8467,-1.7512,-1.6512,-1.6632,-1.7415,-1.9411,-2.0527,-2.0893,-1.9861,-2.075,-2.1646,-2.0992,-2.0948,-2.1094,-2.1423,-2.0096,-1.882,-1.8512,-1.6974,-1.5666,-1.5302,0.0,-1.4226,-1.4321,-1.4825,-1.5137,-1.4977,-1.5231,-1.5337,-1.5204,-1.5137,-1.5231,-1.5538,-1.5498,-1.6281,-1.8149,-1.8211,-1.878,-1.977,-1.9588,-1.9405,-1.9222,-1.9405,-1.9497,-1.9588,-2.0747,-2.1302,-2.1391,-2.258,-2.3144,-2.3144,-2.3144,-2.3144,-2.3144,-2.3144,-2.3144,-2.3144,-2.3144,-2.2492,-2.1391,-2.3144,-2.3144,-2.3144,-2.3144,-2.3144,-2.3144,-2.3144,-2.3144,-2.3144,-2.3144,-2.3144,-2.3144,-2.3144,-2.3144,-2.3144,-2.3144,-2.293,-2.2812,-2.2812,-2.2617,-2.2305,-2.1836,-2.1641,-2.1328,-2.0879,-2.0254,-2.0019,-2.0215,-1.9785,-1.9687,-1.9902,-1.9687,-1.9492,-1.9297,-1.8848,-1.8535,-1.834,-1.8105,-1.8008,-1.8008,-1.8008,-1.8008,-1.8008,-1.8008,-1.8008,-1.8047,-1.8262,-1.8594,-1.8945,-1.8965,-1.9375,-1.9805,-1.9414,-1.9414,-1.959,-1.9609,-1.8788,-1.7746,-1.686,-1.6868,-1.7359,-1.8461,-1.9181,-1.9662,-2.0045,-2.0668,-2.1182,-2.1047,-2.1031,-2.0908,-2.0459,-1.9255,-1.8148,-1.7541,-1.6331,0.0,0.0,-1.4484,-1.4442,-1.475,-1.515,-1.5404,-1.5431,-1.5551,-1.5565,-1.5404,-1.5418,-1.5484,-1.5591,-1.5618,-1.5967,-1.6669,-1.7311,-1.7963,-1.8503,-1.8503,-1.8503,-1.8503,-1.9222,-1.9497,-1.9497,-2.0116,-2.0296,-2.0387,-2.1569,-2.212,-2.2208,-2.2862,-2.3144,-2.3057,-2.2403,-2.212,-2.2031,-2.1409,-2.0854,-2.0116,-2.3144,-2.3144,-2.3144,-2.3144,-2.3144,-2.3144,-2.3144,-2.3144,-2.3144,-2.3144,-2.3144,-2.3144,-2.3144,-2.3047,-2.2988,-2.2988,-2.2617,-2.2324,-2.2227,-2.2207,-2.1914,-2.1269,-2.1133,-2.0859,-2.043,-1.998,-1.9766,-1.9766,-1.9453,-1.9512,-1.9902,-1.959,-1.9609,-1.9883,-1.9023,-1.8562,-1.8543,-1.8184,-1.8008,-1.8008,-1.8008,-1.8008,-1.8008,-1.8008,-1.8008,-1.8066,-1.8496,-1.8711,-1.8848,-1.9297,-1.9492,-1.959,-1.959,-1.959,-1.9648,-1.9961,-1.9374,-1.8406,-1.7429,-1.7139,-1.7218,-1.7662,-1.8038,-1.8605,-1.959,-2.0167,-2.0413,-2.0425,-2.0477,-2.0206,-1.9222,-1.8345,-1.7435,-1.6714,0.0,0.0,0.0,-1.4723,-1.4897,-1.5337,-1.5458,-1.5578,-1.5805,-1.5832,-1.5738,-1.5511,-1.5698,-1.5725,-1.5511,-1.5712,-1.5832,-1.5832,-1.6763,-1.7404,-1.7684,-1.7684,-1.787,-1.8149,-1.9039,-1.9497,-1.9497,-1.9497,-1.9497,-1.9588,-2.0477,-2.0836,-2.0944,-2.1854,-2.2227,-2.2138,-2.1212,-2.0836,-2.0747,-1.9861,-1.9314,-1.8948,-2.3144,-2.3144,-2.3144,-2.3144,-2.3144,-2.3144,-2.3144,-2.3144,-2.3144,-2.3144,-2.3144,-2.3144,-2.3144,-2.2793,-2.2559,-2.2559,-2.2168,-2.1758,-2.1348,-2.1328,-2.1309,-2.123,-2.084,-2.041,-1.998,-1.9551,-1.9336,-1.9336,-1.9297,-1.9512,-1.9922,-1.9883,-1.9883,-1.9883,-1.9023,-1.8562,-1.8543,-1.8184,-1.8008,-1.8008,-1.8008,-1.8008,-1.8008,-1.8008,-1.8008,-1.8066,-1.8496,-1.8906,-1.9297,-1.9727,-2.0137,-2.0469,-2.0469,-2.0469,-2.0469,-2.0508,-2.0703,-2.0514,-1.8459,-1.7296,-1.6794,-1.7624,-1.8321,-1.8475,-1.7507,-1.8478,-1.9281,-1.8226,-1.7963,-1.7963,-1.787,-1.6572,-1.5722,-1.5806,0.0,0.0,-1.5284,-1.5324,-1.5351,-1.5391,-1.5631,-1.5805,-1.5832,-1.5832,-1.5818,-1.5805,-1.5818,-1.5818,-1.5792,-1.5818,-1.5832,-1.5832,-1.5927,-1.648,-1.7684,-1.7684,-1.8226,-1.9405,-1.9497,-1.9497,-1.9497,-1.9497,-1.9497,-1.9497,-1.9588,-1.9679,-1.9679,-1.977,-1.977,-1.977,-1.9679,-1.9679,-1.9588,-1.9497,-1.8764,-1.7777,-2.3086,-2.293,-2.2832,-2.3086,-2.3144,-2.3144,-2.3144,-2.3144,-2.3144,-2.3144,-2.291,-2.2754,-2.2754,-2.2383,-2.2129,-2.2129,-2.1738,-2.1406,-2.125,-2.0977,-2.082,-2.082,-2.0664,-2.0352,-1.9922,-1.9512,-1.9297,-1.9297,-1.875,-1.8848,-1.9512,-1.9258,-1.9121,-1.9102,-1.8789,-1.8496,-1.8242,-1.8086,-1.8164,-1.8398,-1.8398,-1.8555,-1.8769,-1.8496,-1.8574,-1.8828,-1.8984,-1.9316,-1.9746,-2.0176,-2.043,-2.0566,-2.0566,-2.0762,-2.1074,-2.1621,-2.0857,-1.9591,-1.8902,-1.8392,-1.7752,-1.658,-1.6617,-1.7028,-1.7398,-1.7949,-1.8226,-1.7777,-1.7684,-1.7498,-1.6669,-1.5871,-1.5484,-1.5778,0.0,-1.5124,-1.5605,-1.5511,-1.5471,-1.5645,-1.5765,-1.5832,-1.5832,-1.5832,-1.5832,-1.5832,-1.5832,-1.5832,-1.5832,-1.5832,-1.5832,-1.5832,-1.5832,-1.6008,-1.648,-1.648,-1.6749,-1.7203,-1.7203,-1.7203,-1.7203,-1.7203,-1.7203,-1.7203,-1.8041,-1.8411,-1.8411,-1.9222,-1.9497,-1.9405,-1.8688,-1.8411,-1.8319,-1.7483,-1.6936,-1.648,-2.2695,-2.2617,-2.2598,-2.2891,-2.3047,-2.3086,-2.2969,-2.2949,-2.2891,-2.2754,-2.25,-2.2305,-2.2305,-2.1934,-2.168,-2.168,-2.1269,-2.1016,-2.1016,-2.0742,-2.0508,-2.0371,-2.0234,-1.9961,-1.9531,-1.9238,-1.9023,-1.8887,-1.8574,-1.8711,-1.9277,-1.9121,-1.9102,-1.9238,-1.8965,-1.875,-1.8594,-1.8477,-1.8363,-1.8328,-1.8686,-1.8807,-1.88,-1.8802,-1.9023,-1.9297,-1.9434,-1.9668,-1.998,-2.041,-2.0566,-2.0566,-2.0566,-2.0879,-2.1286,-2.1568,-2.0634,-1.9339,-1.8832,-1.8595,-1.8037,-1.5957,-1.5618,-1.6008,-1.6951,-1.7124,-1.7124,-1.7124,-1.7124,-1.6857,-1.5927,-1.5671,-1.5605,-1.5792,-1.5498,-1.5378,-1.5765,-1.5658,-1.5605,-1.5805,-1.5832,-1.5832,-1.5832,-1.5832,-1.5832,-1.5832,-1.5832,-1.5832,-1.5832,-1.5832,-1.5832,-1.5832,-1.5832,-1.5832,-1.5832,-1.5832,-1.5832,-1.5832,-1.5832,-1.5832,-1.5832,-1.5832,-1.5832,-1.5832,-1.6763,-1.7124,-1.7124,-1.8041,-1.8303,-1.8303,-1.7404,-1.7124,-1.7044,-1.6103,-1.5832,-1.5832,-2.1894,-2.2227,-2.25,-2.25,-2.2852,-2.2988,-2.2578,-2.2519,-2.2363,-2.1934,-2.1875,-2.1875,-2.1875,-2.1484,-2.123,-2.123,-2.082,-2.0566,-2.0566,-2.0566,-2.0371,-1.9941,-1.9512,-1.9102,-1.8652,-1.8652,-1.8437,-1.8008,-1.8867,-1.9277,-1.9297,-1.9707,-2.0137,-2.0527,-1.9668,-1.9512,-1.9883,-1.9473,-1.8692,-1.7784,-1.8839,-1.8692,-1.7859,-1.8912,-1.9297,-1.9355,-1.9766,-1.9922,-1.998,-2.043,-2.0566,-2.0566,-2.0586,-2.0879,-2.1067,-2.0272,-2.0314,-2.0272,-1.8226,-1.7684,-1.7331,-1.5749,-1.5618,-1.5832,-1.5832,-1.5832,-1.5832,-1.5832,-1.5832,-1.5832,-1.5832,-1.5832,-1.5832,-1.5832,-1.5832,-1.5832,-1.5832,-1.5832,-1.5832,-1.5832,-1.5832,-1.5832,-1.5832,-1.5832,-1.5832,-1.5832,-1.5832,-1.5832,-1.5832,-1.5832,-1.5832,-1.5832,-1.5832,-1.5832,-1.5832,-1.5832,-1.5832,-1.5832,-1.5832,-1.5832,-1.5832,-1.5832,-1.5832,-1.5832,-1.5832,-1.5832,-1.5832,-1.5832,-1.5832,-1.5832,-1.5832,-1.5832,-1.5832,-1.5832,-1.5832,-1.5832,-2.1836,-2.1738,-2.1719,-2.2012,-2.2422,-2.2559,-2.2129,-2.2324,-2.2363,-2.1934,-2.1621,-2.1426,-2.1426,-2.1035,-2.0762,-2.0762,-2.0371,-2.0117,-2.0117,-2.0117,-2.0059,-1.9922,-2.0078,-1.9844,-1.9102,-1.9102,-1.8887,-1.8457,-1.8418,-1.8691,-1.9277,-1.9102,-1.9258,-1.9668,-1.9394,-1.8969,-1.8322,-1.8211,-1.8172,-1.8105,-1.8504,-1.9051,-1.9755,-1.9694,-1.9922,-2.0156,-1.998,-2.0117,-2.043,-2.0879,-2.1035,-2.1133,-2.1738,-2.1408,-2.0881,-2.092,-1.9788,-1.847,-1.784,-1.703,-1.6278,-1.5819,-1.5765,-1.5832,-1.5832,-1.5832,-1.5832,-1.5832,-1.5832,-1.5832,-1.5832,-1.5832,-1.5832,-1.5832,-1.5832,-1.5832,-1.5832,-1.5832,-1.5832,-1.5832,-1.5832,-1.5832,-1.5832,-1.5832,-1.5832,-1.5832,-1.5832,-1.5832,-1.5832,-1.5832,-1.5832,-1.5832,-1.5832,-1.5832,-1.5832,-1.5832,-1.5832,-1.5832,-1.5832,-1.5832,-1.5832,-1.5832,-1.5832,-1.5832,-1.5832,-1.5832,-1.5832,-1.5832,-1.5832,-1.5832,-1.5832,-1.5832,-1.5832,-1.5832,-1.5832,-1.5832,-2.1309,-2.1289,-2.1309,-2.1582,-2.1973,-2.2129,-2.1699,-2.1836,-2.1855,-2.1426,-2.1133,-2.0977,-2.0977,-2.0723,-2.0566,-2.0566,-2.0176,-1.9922,-1.9922,-1.9766,-1.9668,-1.9668,-1.9922,-1.9746,-1.9043,-1.9199,-1.9082,-1.8562,-1.873,-1.8945,-1.9297,-1.9355,-1.9453,-1.9551,-1.9707,-1.9485,-1.8863,-1.8863,-1.8764,-1.8596,-1.9062,-1.954,-1.9963,-2.012,-2.0332,-2.0527,-2.0273,-2.0332,-2.0605,-2.0385,-2.0093,-2.0008,-2.0565,-2.0425,-1.9868,-1.9647,-1.8653,-1.7591,-1.7138,-1.6386,-1.5832,-1.5832,-1.5832,-1.5832,-1.5832,-1.5832,-1.5832,-1.5832,-1.5832,-1.5832,-1.5832,-1.5832,-1.5832,-1.5832,-1.5832,-1.5832,-1.5832,-1.5832,-1.5832,-1.5832,-1.5832,-1.5832,-1.5832,-1.5832,-1.5832,-1.5832,-1.5832,-1.5832,-1.5832,-1.5832,-1.5832,-1.5832,-1.5832,-1.5832,-1.5832,-1.5832,-1.5832,-1.5832,-1.5832,-1.5832,-1.5832,-1.5832,-1.5832,-1.5832,-1.5832,-1.5832,-1.5832,-1.5832,-1.5832,-1.5832,-1.5832,-1.5832,-1.5832,-1.5832,-1.5832,-1.5832,-2.0566,-2.0898,-2.1172,-2.1172,-2.1543,-2.168,-2.125,-2.1211,-2.1074,-2.0625,-2.0566,-2.0566,-2.0566,-2.0566,-2.0547,-2.0508,-2.0117,-1.9844,-1.9805,-1.9473,-1.9297,-1.9297,-1.9297,-1.9102,-1.8711,-1.9082,-1.9102,-1.8691,-1.9473,-1.9687,-1.9355,-2.0137,-2.0312,-1.998,-2.0391,-2.0566,-2.0489,-2.0489,-1.9923,-1.9116,-2.0079,-1.9923,-1.9274,-2.0235,-2.0566,-2.0489,-2.0489,-2.0391,-2.0177,-1.9366,-1.8585,-1.7959,-1.8407,-1.8562,-1.8466,-1.7387,-1.7246,-1.7326,-1.6103,-1.5832,-1.5832,-1.5832,-1.5832,-1.5832,-1.5832,-1.5832,-1.5832,-1.5832,-1.5832,-1.5832,-1.5832,-1.5832,-1.5832,-1.5832,-1.5832,-1.5832,-1.5832,-1.5832,-1.5832,-1.5832,-1.5832,-1.5832,-1.5832,-1.5832,-1.5832,-1.5832,-1.5832,-1.5832,-1.5832,-1.5832,-1.5832,-1.5832,-1.5832,-1.5832,-1.5832,-1.5832,-1.5832,-1.5832,-1.5832,-1.5832,-1.5832,-1.5832,-1.5832,-1.5832,-1.5832,-1.5832,-1.5832,-1.5832,-1.5832,-1.5832,-1.5832,-1.5832,-1.5832,-1.5832,-1.5832,-1.5832,-2.0566,-2.0644,-2.0703,-2.0703,-2.1074,-2.123,-2.0781,-2.1016,-2.1074,-2.0625,-2.0566,-2.0566,-2.0566,-2.0566,-2.043,-2.0078,-1.9668,-1.9277,-1.8926,-1.9141,-1.9297,-1.9297,-1.9297,-1.9238,-1.916,-1.9238,-1.9238,-1.9141,-1.9336,-1.9551,-1.9785,-1.9961,-2.0195,-2.043,-2.0527,-2.0157,-1.9353,-1.9353,-1.9195,-1.9036,-1.9274,-1.9687,-2.0235,-2.0489,-2.0079,-1.9353,-1.9353,-1.8798,-1.8227,-1.9495,-1.9451,-1.905,-2.0201,-1.9405,-1.7857,-1.7672,-1.6893,-1.6103,-1.5927,-1.5832,-1.5832,-1.5832,-1.5832,-1.5832,-1.5832,-1.5832,-1.5832,-1.5832,-1.5832,-1.5832,-1.5832,-1.5832,-1.5832,-1.5832,-1.5832,-1.5832,-1.5832,-1.5832,-1.5832,-1.5832,-1.5832,-1.5832,-1.5832,-1.5832,-1.5832,-1.5832,-1.5832,-1.5832,-1.5832,-1.5832,-1.5832,-1.5832,-1.5832,-1.5832,-1.5832,-1.5832,-1.5832,-1.5832,-1.5832,-1.5832,-1.5832,-1.5832,-1.5832,-1.5832,-1.5832,-1.5832,-1.5832,-1.5832,-1.5832,-1.5832,-1.5832,-1.5832,-1.5832,-1.5832,-1.5832,-1.5832,-2.0566,-2.0391,-2.0332,-2.0527,-2.0586,-2.0586,-2.0566,-2.0762,-2.084,-2.0605,-2.0566,-2.0566,-2.0566,-2.0566,-2.0469,-2.0254,-1.9648,-1.9199,-1.8965,-1.8769,-1.8672,-1.8672,-1.8672,-1.8556,-1.8297,-1.8432,-1.886,-1.959,-1.959,-1.9687,-1.9922,-1.9583,-1.9755,-2.0254,-1.9984,-1.9844,-1.9766,-1.9766,-1.9766,-1.9766,-1.9766,-2.0079,-2.0566,-2.0566,-2.0235,-1.9687,-1.9195,-1.79,-1.6711,-1.8074,-1.793,-1.7295,-1.8315,-1.784,-1.6763,-1.6763,-1.6292,-1.5832,-1.5832,-1.5832,-1.5832,-1.5832,-1.5832,-1.5832,-1.5832,-1.5832,-1.5832,-1.5832,-1.5939,-1.6005,-1.5858,-1.5939,-1.5992,-1.5845,-1.5832,-1.5832,-1.5832,-1.5832,-1.5832,-1.5832,-1.5832,-1.5832,-1.5832,-1.5832,-1.5832,-1.5832,-1.5832,-1.5832,-1.5832,-1.5832,-1.5832,-1.5832,-1.5832,-1.5832,-1.5832,-1.5832,-1.5832,-1.5832,-1.5832,-1.5832,-1.5832,-1.5832,-1.5832,-1.5832,-1.5832,-1.5832,-1.5832,-1.5832,-1.5832,-1.5832,-1.5832,-1.5832,-1.5832,-1.5832,-1.5832,-1.5832,-2.0352,-2.0059,-1.9922,-2.0293,-2.0098,-2.0039,-2.0391,-2.0527,-2.0566,-2.0566,-2.0566,-2.0566,-2.0566,-2.043,-2.0352,-2.0352,-1.957,-1.9062,-1.9062,-1.8398,-1.8008,-1.8008,-1.8008,-1.777,-1.7243,-1.744,-1.821,-1.9355,-1.9431,-1.9469,-1.9469,-1.8952,-1.9012,-1.9411,-1.897,-1.9195,-2.0079,-2.0079,-2.0157,-2.0313,-2.0079,-2.0157,-2.0333,-2.0079,-1.9904,-1.9668,-1.8798,-1.7204,-1.5639,-1.6461,-1.5988,-1.5228,-1.5939,-1.6021,-1.5832,-1.5832,-1.5832,-1.5832,-1.5832,-1.5832,-1.5832,-1.5832,-1.5832,-1.5832,-1.5832,-1.5832,-1.5832,-1.5832,-1.6072,-1.6179,-1.5885,-1.6072,-1.6179,-1.5872,-1.5832,-1.5832,-1.5832,-1.5832,-1.5832,-1.5832,-1.5832,-1.5832,-1.5832,-1.5832,-1.5832,-1.5832,-1.5832,-1.5832,-1.5832,-1.5832,-1.5832,-1.5832,-1.5832,-1.5832,-1.5832,-1.5832,-1.5832,-1.5832,-1.5832,-1.5832,-1.5832,-1.5832,-1.5832,-1.5832,-1.5832,-1.5832,-1.5832,-1.5832,-1.5832,-1.5832,-1.5832,-1.5832,-1.5832,-1.5832,-1.5832,-1.5832,-1.9453,-1.9414,-1.9394,-1.9453,-1.9707,-1.9941,-1.998,-2.0332,-2.0566,-2.0566,-2.0566,-2.0566,-2.0566,-1.9902,-1.9453,-1.9453,-1.8672,-1.8184,-1.8184,-1.8066,-1.8008,-1.8008,-1.8008,-1.777,-1.7243,-1.7153,-1.716,-1.732,-1.7502,-1.7671,-1.7671,-1.756,-1.756,-1.7671,-1.756,-1.7577,-1.7738,-1.7738,-1.8318,-1.9116,-1.8141,-1.8318,-1.9116,-1.8141,-1.7172,-1.6355,-1.6191,-1.5471,-1.4884,-1.6521,-1.6301,-1.5575,-1.7022,-1.6669,-1.5832,-1.5832,-1.5832,-1.5832,-1.5832,-1.5832,-1.5832,-1.5832,-1.5832,-1.5832,-1.5832,-1.5832,-1.5832,-1.5832,-1.6072,-1.6179,-1.5885,-1.6072,-1.6179,-1.5872,-1.5832,-1.5832,-1.5832,-1.5832,-1.5832,-1.5832,-1.5832,-1.5832,-1.5832,-1.5832,-1.5832,-1.5832,-1.5832,-1.5832,-1.5832,-1.5832,-1.5832,-1.5832,-1.5832,-1.5832,-1.5832,-1.5832,-1.5832,-1.5832,-1.5832,-1.5832,-1.5832,-1.5832,-1.5832,-1.5832,-1.5832,-1.5832,-1.5832,-1.5832,-1.5832,-1.5832,-1.5832,-1.5832,-1.5832,-1.5832,-1.5832,-1.5832,-1.9297,-1.9102,-1.9082,-1.9551,-1.959,-1.9727,-2.0215,-2.0234,-2.0195,-2.0195,-2.0,-1.9844,-1.9844,-1.9512,-1.9297,-1.9297,-1.8711,-1.8359,-1.8359,-1.8144,-1.8008,-1.8008,-1.8008,-1.7655,-1.6899,-1.6471,-1.6038,-1.5623,-1.6523,-1.702,-1.71,-1.6477,-1.6477,-1.702,-1.6477,-1.6589,-1.7334,-1.7334,-1.7577,-1.798,-1.7496,-1.7577,-1.798,-1.7496,-1.7009,-1.6535,-1.6073,-1.5319,-1.469,-1.5812,-1.5837,-1.5537,-1.6383,-1.6292,-1.5832,-1.5832,-1.5832,-1.5832,-1.5832,-1.5832,-1.5832,-1.5832,-1.5832,-1.5832,-1.5832,-1.5832,-1.5872,-1.6046,-1.6179,-1.6286,-1.6313,-1.6286,-1.6233,-1.6099,-1.5939,-1.5832,-1.5832,-1.5832,-1.5832,-1.5832,-1.5832,-1.5832,-1.5832,-1.5832,-1.5832,-1.5832,-1.5832,-1.5832,-1.5832,-1.5832,-1.5832,-1.5832,-1.5832,-1.5832,-1.5832,-1.5832,-1.5832,-1.5832,-1.5832,-1.5832,-1.5832,-1.5832,-1.5832,-1.5832,-1.5832,-1.5832,-1.5832,-1.5832,-1.5832,-1.5832,-1.5832,-1.5832,-1.5832,-1.5832,-1.5832,-1.5832]},{"header":{"parameterUnit":"m.s-1","parameterCategory":1,"la1":30.6,"la2":28.766,"lo1":-90.7593,"lo2":-88.6598,"dy":0.0162,"dx":0.0183,"nx":116,"ny":114,"refTime":"2023-06-11T06:00:00:Z","depth":0,"parameterNumber":3,"parameterNumberName":"V-component_of_WINDS"},"data":[0.0,0.0,0.0,0.0,0.0,0.0,0.0,0.0,0.0,0.0,0.0,0.0,0.0,0.0,0.0,0.0,0.0,0.0,0.0,0.0,0.0,0.0,0.0,0.0,0.0,0.0,0.0,0.0,0.0,0.0,0.0,0.0,0.0,0.0,0.0,0.0,0.0,0.0,0.0,0.0,0.0,0.0,0.0,0.0,0.0,0.0,0.0,0.0,0.0,0.0,0.0,0.0,0.0,0.0,0.0,0.0,0.0,0.0,0.0,0.0,0.0,0.0,0.0,0.0,0.0,0.0,0.0,0.0,0.0,0.0,0.0,0.0,0.0,0.0,0.0,0.0,0.0,0.0,0.0,0.0,0.0,0.0,0.0,0.0,0.0,0.0,0.0,0.0,0.0,0.0,0.0,0.0,0.0,0.0,0.0,0.0,0.0,0.0,0.0,0.0,0.0,0.0,0.0,0.0,0.0,0.0,0.0,0.0,0.0,0.0,0.0,0.0,0.0,0.0,0.0,0.0,0.0,0.0,0.0,0.0,0.0,0.0,0.0,0.0,0.0,0.0,0.0,0.0,0.0,0.0,0.0,0.0,0.0,0.0,0.0,0.0,0.0,0.0,0.0,0.0,0.0,0.0,0.0,0.0,0.0,0.0,0.0,0.0,0.0,0.0,0.0,0.0,0.0,0.0,0.0,0.0,0.0,0.0,0.0,0.0,0.0,0.0,0.0,0.0,0.0,0.0,0.0,0.0,0.0,0.0,0.0,0.0,0.0,0.0,0.0,0.0,0.0,0.0,0.0,0.0,0.0,0.0,0.0,0.0,0.0,0.0,0.0,0.0,0.0,0.0,0.0,0.0,0.0,0.0,0.0,0.0,0.0,0.0,0.0,0.0,0.0,0.0,0.0,0.0,0.0,0.0,0.0,0.0,0.0,0.0,0.0,0.0,0.0,0.0,0.0,0.0,0.0,0.0,0.0,0.0,0.0,0.0,0.0,0.0,0.0,0.0,0.0,0.0,0.0,0.0,0.0,0.0,0.0,0.0,0.0,0.0,0.0,0.0,0.0,0.0,0.0,0.0,0.0,0.0,0.0,0.0,0.0,0.0,0.0,0.0,0.0,0.0,0.0,0.0,0.0,0.0,0.0,0.0,0.0,0.0,0.0,0.0,0.0,0.0,0.0,0.0,0.0,0.0,0.0,0.0,0.0,0.0,0.0,0.0,0.0,0.0,0.0,0.0,0.0,0.0,0.0,0.0,0.0,0.0,0.0,0.0,0.0,0.0,0.0,0.0,0.0,0.0,0.0,0.0,0.0,0.0,0.0,0.0,0.0,0.0,0.0,0.0,0.0,0.0,0.0,0.0,0.0,0.0,0.0,0.0,0.0,0.0,0.0,0.0,0.0,0.0,0.0,0.0,0.0,0.0,0.0,0.0,0.0,0.0,0.0,0.0,0.0,0.0,0.0,0.0,0.0,0.0,0.0,0.0,0.0,0.0,0.0,0.0,0.0,0.0,0.0,0.0,0.0,0.0,0.0,0.0,0.0,0.0,0.0,0.0,0.0,0.0,0.0,0.0,0.0,0.0,0.0,0.0,0.0,0.0,0.0,0.0,0.0,0.0,0.0,0.0,0.0,0.0,0.0,0.0,0.0,0.0,0.0,0.0,0.0,0.0,0.0,0.0,0.0,0.0,0.0,0.0,0.0,0.0,0.0,0.0,0.0,0.0,0.0,0.0,0.0,0.0,0.0,0.0,0.0,0.0,0.0,0.0,0.0,0.0,0.0,0.0,0.0,0.0,0.0,0.0,0.0,0.0,0.0,0.0,0.0,0.0,0.0,0.0,0.0,0.0,0.0,0.0,0.0,0.0,0.0,0.0,0.0,0.0,0.0,0.0,0.0,0.0,0.0,0.0,0.0,0.0,0.0,0.0,0.0,0.0,0.0,0.0,0.0,0.0,0.0,0.0,0.0,0.0,0.0,0.0,0.0,0.0,0.0,0.0,0.0,0.0,0.0,0.0,0.0,0.0,0.0,0.0,0.0,0.0,0.0,0.0,0.0,0.0,0.0,0.0,0.0,0.0,0.0,0.0,0.0,0.0,0.0,0.0,0.0,0.0,0.0,0.0,0.0,0.0,0.0,0.0,0.0,0.0,0.0,0.0,0.0,0.0,0.0,0.0,0.0,0.0,0.0,0.0,0.0,0.0,0.0,0.0,0.0,0.0,0.0,0.0,0.0,0.0,0.0,0.0,0.0,0.0,0.0,0.0,0.0,0.0,0.0,0.0,0.0,0.0,0.0,0.0,0.0,0.0,0.0,0.0,0.0,0.0,0.0,0.0,0.0,0.0,0.0,0.0,0.0,0.0,0.0,0.0,0.0,0.0,0.0,0.0,0.0,0.0,0.0,0.0,0.0,0.0,0.0,0.0,0.0,0.0,0.0,0.0,0.0,0.0,0.0,0.0,0.0,0.0,0.0,0.0,0.0,0.0,0.0,0.0,0.0,0.0,0.0,0.0,0.0,0.0,0.0,0.0,0.0,0.0,0.0,0.0,0.0,0.0,0.0,0.0,0.0,0.0,0.0,0.0,0.0,0.0,0.0,0.0,0.0,0.0,0.0,0.0,0.0,0.0,0.0,0.0,0.0,0.0,0.0,0.0,0.0,0.0,0.0,0.0,0.0,0.0,0.0,0.0,0.0,0.0,0.0,0.0,0.0,0.0,0.0,0.0,0.0,0.0,0.0,0.0,0.0,0.0,0.0,0.0,0.0,0.0,0.0,0.0,0.0,0.0,0.0,0.0,0.0,0.0,0.0,0.0,0.0,0.0,0.0,0.0,0.0,0.0,0.0,0.0,0.0,0.0,0.0,0.0,0.0,0.0,0.0,0.0,0.0,0.0,0.0,0.0,0.0,0.0,0.0,0.0,0.0,0.0,0.0,0.0,0.0,0.0,0.0,0.0,0.0,0.0,0.0,0.0,0.0,0.0,0.0,0.0,0.0,0.0,0.0,0.0,0.0,0.0,0.0,0.0,0.0,0.0,0.0,0.0,0.0,0.0,0.0,0.0,0.0,0.0,0.0,0.0,0.0,0.0,0.0,0.0,0.0,0.0,0.0,0.0,0.0,0.0,0.0,0.0,0.0,0.0,0.0,0.0,0.0,0.0,0.0,0.0,0.0,0.0,0.0,0.0,0.0,0.0,0.0,0.0,0.0,0.0,0.0,0.0,0.0,0.0,0.0,0.0,0.0,0.0,0.0,0.0,0.0,0.0,0.0,0.0,0.0,0.0,0.0,0.0,0.0,0.0,0.0,0.0,0.0,0.0,0.0,0.0,0.0,0.0,0.0,0.0,0.0,0.0,0.0,0.0,0.0,0.0,0.0,0.0,0.0,0.0,0.0,0.0,0.0,0.0,0.0,0.0,0.0,0.0,0.0,0.0,0.0,0.0,0.0,0.0,0.0,0.0,0.0,0.0,0.0,0.0,0.0,0.0,0.0,0.0,0.0,0.0,0.0,0.0,0.0,0.0,0.0,0.0,0.0,0.0,0.0,0.0,0.0,0.0,0.0,0.0,0.0,0.0,0.0,0.0,0.0,0.0,0.0,0.0,0.0,0.0,0.0,0.0,0.0,0.0,0.0,0.0,0.0,0.0,0.0,0.0,0.0,0.0,0.0,0.0,0.0,0.0,0.0,0.0,0.0,0.0,0.0,0.0,0.0,0.0,0.0,0.0,0.0,0.0,0.0,0.0,0.0,0.0,0.0,0.0,0.0,0.0,0.0,0.0,0.0,0.0,0.0,0.0,0.0,0.0,0.0,0.0,0.0,0.0,0.0,0.0,0.0,0.0,0.0,0.0,0.0,0.0,0.0,0.0,0.0,0.0,0.0,0.0,0.0,0.0,0.0,0.0,0.0,0.0,0.0,0.0,0.0,0.0,0.0,0.0,0.0,0.0,0.0,0.0,0.0,0.0,0.0,0.0,0.0,0.0,0.0,0.0,0.0,0.0,0.0,0.0,0.0,0.0,0.0,0.0,0.0,0.0,0.0,0.0,0.0,0.0,0.0,0.0,0.0,0.0,0.0,0.0,0.0,0.0,0.0,0.0,0.0,0.0,0.0,0.0,0.0,0.0,0.0,0.0,0.0,0.0,0.0,0.0,0.0,0.0,0.0,0.0,0.0,0.0,0.0,0.0,0.0,0.0,0.0,0.0,0.0,0.0,0.0,0.0,0.0,0.0,0.0,0.0,0.0,0.0,0.0,0.0,0.0,0.0,0.0,0.0,0.0,0.0,0.0,0.0,0.0,0.0,0.0,0.0,0.0,0.0,0.0,0.0,0.0,0.0,0.0,0.0,0.0,0.0,0.0,0.0,0.0,0.0,0.0,0.0,0.0,0.0,0.0,0.0,0.0,0.0,0.0,0.0,0.0,0.0,0.0,0.0,0.0,0.0,0.0,0.0,0.0,0.0,0.0,0.0,0.0,0.0,0.0,0.0,0.0,0.0,0.0,0.0,0.0,0.0,0.0,0.0,0.0,0.0,0.0,0.0,0.0,0.0,0.0,0.0,0.0,0.0,0.0,0.0,0.0,0.0,0.0,0.0,0.0,0.0,0.0,0.0,0.0,0.0,0.0,0.0,0.0,0.0,0.0,0.0,0.0,0.0,0.0,0.0,0.0,0.0,0.0,0.0,0.0,0.0,0.0,0.0,0.0,0.0,0.0,0.0,0.0,0.0,0.0,0.0,0.0,0.0,0.0,0.0,0.0,0.0,0.0,0.0,0.0,0.0,0.0,0.0,0.0,0.0,0.0,0.0,0.0,0.0,0.0,0.0,0.0,0.0,0.0,0.0,0.0,0.0,0.0,0.0,0.0,0.0,0.0,0.0,0.0,0.0,0.0,0.0,0.0,0.0,0.0,0.0,0.0,0.0,0.0,0.0,0.0,0.0,0.0,0.0,0.0,0.0,0.0,0.0,0.0,0.0,0.0,0.0,0.0,0.0,0.0,0.0,0.0,0.0,0.0,0.0,0.0,0.0,0.0,0.0,0.0,0.0,0.0,0.0,0.0,0.0,0.0,0.0,0.0,0.0,0.0,0.0,0.0,0.0,0.0,0.0,0.0,0.0,0.0,0.0,0.0,0.0,0.0,0.0,0.0,0.0,0.0,0.0,0.0,0.0,0.0,0.0,0.0,0.0,0.0,0.0,0.0,0.0,0.0,0.0,0.0,0.0,0.0,0.0,0.0,0.0,0.0,0.0,0.0,0.0,0.0,0.0,0.0,0.0,0.0,0.0,0.0,0.0,0.0,0.0,0.0,0.0,0.0,0.0,0.0,0.0,0.0,0.0,0.0,0.0,0.0,0.0,0.0,0.0,0.0,0.0,0.0,0.0,0.0,0.0,0.0,0.0,0.0,0.0,0.0,0.0,0.0,0.0,0.0,0.0,0.0,0.0,0.0,0.0,0.0,0.0,0.0,0.0,0.0,0.0,0.0,0.0,0.0,0.0,0.0,0.0,0.0,0.0,0.0,0.0,0.0,0.0,0.0,0.0,0.0,0.0,0.0,0.0,0.0,0.0,0.0,0.0,0.0,0.0,0.0,0.0,0.0,0.0,0.0,0.0,0.0,0.0,0.0,0.0,0.0,0.0,0.0,0.0,0.0,0.0,0.0,0.0,0.0,0.0,0.0,0.0,0.0,0.0,0.0,0.0,0.0,0.0,0.0,0.0,0.0,0.0,0.0,0.0,0.0,0.0,0.0,0.0,0.0,0.0,0.0,0.0,0.0,0.0,0.0,0.0,0.0,0.0,0.0,0.0,0.0,0.0,0.0,0.0,0.0,0.0,0.0,0.0,0.0,0.0,0.0,0.0,0.0,0.0,0.0,0.0,0.0,0.0,0.0,0.0,0.0,0.0,0.0,0.0,0.0,0.0,0.0,0.0,0.0,0.0,0.0,0.0,0.0,0.0,0.0,0.0,0.0,0.0,0.0,0.0,0.0,0.0,0.0,0.0,0.0,0.0,0.0,0.0,0.0,0.0,0.0,0.0,0.0,0.0,0.0,0.0,0.0,0.0,0.0,0.0,0.0,0.0,0.0,0.0,0.0,0.0,0.0,0.0,0.0,0.0,-3.1213,0.0,0.0,0.0,0.0,0.0,0.0,0.0,0.0,0.0,0.0,0.0,0.0,0.0,0.0,0.0,0.0,0.0,0.0,0.0,0.0,0.0,0.0,0.0,0.0,0.0,0.0,0.0,0.0,0.0,0.0,0.0,0.0,0.0,0.0,0.0,0.0,0.0,0.0,0.0,0.0,0.0,0.0,0.0,0.0,0.0,0.0,0.0,0.0,0.0,0.0,0.0,0.0,0.0,0.0,0.0,0.0,0.0,0.0,0.0,0.0,0.0,0.0,0.0,0.0,0.0,0.0,0.0,0.0,0.0,0.0,0.0,0.0,0.0,0.0,0.0,0.0,0.0,0.0,0.0,0.0,0.0,0.0,0.0,0.0,0.0,0.0,0.0,0.0,0.0,0.0,0.0,0.0,0.0,0.0,0.0,0.0,0.0,0.0,0.0,0.0,0.0,0.0,0.0,0.0,0.0,0.0,0.0,0.0,0.0,0.0,0.0,0.0,0.0,0.0,0.0,0.0,-3.152,0.0,0.0,0.0,0.0,0.0,0.0,0.0,0.0,0.0,0.0,0.0,0.0,0.0,0.0,0.0,0.0,0.0,0.0,0.0,0.0,0.0,0.0,0.0,0.0,0.0,0.0,0.0,0.0,0.0,0.0,0.0,0.0,0.0,0.0,0.0,0.0,0.0,0.0,0.0,0.0,0.0,0.0,0.0,0.0,0.0,0.0,0.0,0.0,0.0,0.0,0.0,0.0,0.0,0.0,0.0,0.0,0.0,0.0,0.0,0.0,0.0,0.0,0.0,0.0,0.0,0.0,0.0,0.0,0.0,0.0,0.0,0.0,0.0,0.0,0.0,0.0,0.0,0.0,0.0,0.0,0.0,0.0,0.0,0.0,0.0,0.0,0.0,0.0,0.0,0.0,0.0,0.0,0.0,0.0,0.0,0.0,0.0,0.0,0.0,0.0,0.0,0.0,0.0,0.0,0.0,0.0,0.0,0.0,-3.911,-3.9768,-4.0098,-4.0337,-4.0068,-3.929,-3.7015,-3.4651,-3.2377,-3.2287,0.0,0.0,0.0,0.0,0.0,0.0,0.0,0.0,0.0,0.0,0.0,0.0,0.0,0.0,0.0,0.0,0.0,0.0,0.0,0.0,0.0,0.0,0.0,0.0,0.0,0.0,0.0,0.0,0.0,0.0,0.0,0.0,0.0,0.0,0.0,0.0,0.0,0.0,-2.3248,-2.3945,-2.4499,-2.4856,0.0,0.0,0.0,0.0,0.0,0.0,0.0,0.0,0.0,0.0,0.0,0.0,0.0,0.0,0.0,0.0,0.0,0.0,0.0,0.0,0.0,0.0,0.0,0.0,0.0,0.0,0.0,0.0,0.0,0.0,0.0,0.0,0.0,0.0,0.0,0.0,0.0,0.0,0.0,0.0,0.0,0.0,0.0,0.0,-2.738,-2.7876,0.0,0.0,0.0,0.0,0.0,0.0,0.0,0.0,0.0,0.0,0.0,0.0,0.0,-3.5828,-3.8631,-4.0606,-4.1354,-4.0876,-4.324,-4.3838,-4.2851,-4.3988,-4.4167,-4.3479,-4.2551,0.0,-3.5789,-3.522,0.0,0.0,0.0,0.0,0.0,0.0,0.0,0.0,0.0,0.0,0.0,0.0,0.0,0.0,0.0,0.0,0.0,0.0,0.0,0.0,0.0,0.0,0.0,0.0,0.0,0.0,0.0,0.0,0.0,0.0,0.0,0.0,0.0,0.0,0.0,0.0,-2.3601,-2.4382,-2.5092,-2.5455,-2.6045,-2.6731,-2.5909,-2.5769,-2.6142,-2.4573,0.0,0.0,0.0,0.0,0.0,0.0,0.0,0.0,0.0,0.0,0.0,0.0,0.0,0.0,0.0,0.0,0.0,0.0,0.0,0.0,0.0,0.0,0.0,0.0,0.0,0.0,0.0,0.0,0.0,0.0,0.0,0.0,0.0,0.0,0.0,0.0,0.0,0.0,0.0,-2.7961,-2.9247,-2.7659,-2.9109,-2.9535,0.0,0.0,0.0,0.0,0.0,0.0,0.0,0.0,0.0,-3.4815,-3.6541,-3.8736,-4.1517,-4.3599,-4.4616,-4.4736,-4.6262,-4.686,-4.6681,-4.689,-4.683,-4.6501,-4.5843,-4.3778,-4.0726,-3.8571,-3.7075,-3.5938,0.0,0.0,0.0,0.0,-3.3186,-3.3667,0.0,0.0,0.0,0.0,0.0,0.0,0.0,0.0,0.0,0.0,0.0,0.0,0.0,0.0,0.0,-2.3819,0.0,0.0,0.0,0.0,0.0,0.0,0.0,0.0,0.0,0.0,0.0,0.0,-2.4735,-2.5862,-2.6925,-2.719,-2.7732,-2.8423,-2.8289,-2.8021,-2.7622,-2.5769,-2.5121,0.0,0.0,0.0,0.0,0.0,0.0,0.0,0.0,0.0,0.0,0.0,0.0,0.0,0.0,0.0,0.0,0.0,0.0,0.0,0.0,0.0,0.0,0.0,0.0,0.0,0.0,0.0,0.0,0.0,0.0,0.0,0.0,0.0,0.0,0.0,0.0,0.0,0.0,-2.9759,-3.0979,-2.8174,-3.0893,-3.1988,0.0,0.0,0.0,0.0,0.0,0.0,-3.2907,-3.3172,-3.4792,-3.8162,-3.9872,-4.1906,-4.4586,-4.6082,-4.716,-4.7818,-4.8297,-4.8716,-4.9015,-4.8686,-4.8356,-4.7997,-4.7519,-4.6471,-4.4825,-4.1534,-3.9379,-3.8033,-3.6567,-3.5789,-3.5519,-3.5878,-3.5669,-3.537,0.0,0.0,0.0,0.0,0.0,0.0,0.0,0.0,0.0,0.0,0.0,0.0,0.0,0.0,-2.5916,-2.6902,-2.5989,-2.4818,0.0,0.0,0.0,0.0,0.0,0.0,0.0,0.0,0.0,-2.4346,-2.5739,-2.6982,-2.8015,-2.9063,-2.9961,-3.0696,-2.9961,-3.0615,-3.1998,-2.8154,-2.7779,-2.9525,0.0,0.0,0.0,0.0,0.0,0.0,0.0,0.0,0.0,0.0,0.0,0.0,0.0,0.0,0.0,0.0,0.0,0.0,0.0,0.0,0.0,0.0,0.0,0.0,0.0,0.0,0.0,0.0,0.0,0.0,0.0,0.0,0.0,0.0,0.0,0.0,0.0,0.0,0.0,-3.1422,-3.4678,0.0,0.0,0.0,0.0,-3.5096,-3.5605,-3.6649,-3.8525,-3.8427,-3.9898,-4.3429,-4.4269,-4.5698,-4.8027,-4.8147,-4.8506,-4.9164,-4.9194,-4.8895,-4.8356,-4.8955,-4.8536,-4.7369,-4.7309,-4.7249,-4.689,-4.3569,-4.1444,-4.0038,-3.8093,-3.7674,-3.8123,-3.7524,-3.7285,-3.7255,0.0,0.0,0.0,0.0,0.0,0.0,0.0,0.0,0.0,0.0,0.0,0.0,0.0,-2.7674,-2.8505,-2.8555,-2.8656,-2.7328,-2.406,0.0,0.0,0.0,0.0,0.0,0.0,0.0,-2.3237,-2.4455,-2.6004,-2.755,-2.9119,-2.9725,-3.051,-3.1384,-3.0992,-3.1759,-3.3128,-2.921,-2.7368,-2.6979,-2.5548,-2.4534,0.0,0.0,0.0,0.0,0.0,0.0,0.0,0.0,0.0,0.0,0.0,0.0,0.0,0.0,0.0,0.0,0.0,0.0,0.0,0.0,0.0,0.0,0.0,0.0,0.0,0.0,0.0,0.0,0.0,0.0,0.0,0.0,0.0,0.0,0.0,0.0,0.0,-3.537,-3.8063,0.0,-3.6866,-3.7098,-3.7623,-3.8193,-3.9734,-4.1085,-4.216,-4.3181,-4.4931,-4.7398,-4.7659,-4.8711,-5.081,-5.0391,-5.0301,-5.0511,-5.0511,-5.0391,-5.0152,-4.9553,-4.9015,-4.8506,-4.7668,-4.707,-4.6591,-4.5394,-4.4377,-4.3389,-4.1863,-4.0876,-4.0337,-4.0516,-4.0068,-3.9451,0.0,0.0,0.0,0.0,0.0,0.0,0.0,0.0,0.0,0.0,0.0,-2.5987,-2.7259,-2.9238,-3.0533,-3.0683,-3.0217,-2.851,-2.502,0.0,0.0,0.0,0.0,0.0,0.0,-2.2226,-2.3772,-2.5273,-2.6298,-2.7755,-2.9732,-2.9991,-3.0543,-3.1275,-3.1133,-3.1609,-3.2346,-3.0019,-2.8521,-2.7585,-2.6373,-2.5203,-2.4168,0.0,0.0,0.0,0.0,0.0,0.0,0.0,0.0,0.0,0.0,0.0,0.0,0.0,0.0,0.0,0.0,0.0,0.0,0.0,0.0,0.0,0.0,0.0,0.0,0.0,0.0,0.0,0.0,0.0,0.0,0.0,0.0,0.0,0.0,0.0,-3.8332,-3.8123,-4.1025,-4.2162,-3.9948,-4.0761,-4.1829,-4.2597,-4.4066,-4.5436,-4.6727,-4.7663,-4.8931,-5.071,-5.0613,-5.1238,-5.2516,-5.1648,-5.1319,-5.1558,-5.1109,-5.09,-5.084,-5.0002,-4.9344,-4.8895,-4.8027,-4.7279,-4.6651,-4.6651,-4.6381,-4.5843,-4.4556,-4.3479,-4.2731,-4.294,-4.2543,-4.2071,0.0,0.0,0.0,0.0,0.0,0.0,0.0,0.0,0.0,0.0,-2.561,-2.6894,-2.7772,-2.9939,-3.1833,-3.3288,-3.0516,-2.8077,-2.6652,-2.2382,0.0,0.0,0.0,0.0,-2.2147,-2.3308,-2.4863,-2.6756,-2.6554,-2.7529,-2.9639,-2.9832,-3.0098,-3.0367,-3.0367,-3.0241,-3.0098,-3.0671,-3.143,-3.1958,-2.8427,-2.5967,-2.4328,0.0,0.0,0.0,0.0,0.0,0.0,0.0,0.0,0.0,0.0,0.0,0.0,0.0,0.0,0.0,0.0,0.0,0.0,0.0,0.0,0.0,0.0,0.0,0.0,0.0,0.0,0.0,0.0,0.0,0.0,0.0,0.0,0.0,-3.4538,-3.8003,-4.0277,-3.9709,-4.3658,-4.5394,-4.2791,-4.4915,-4.698,-4.8267,-4.8416,-4.9553,-5.2127,-5.1678,-5.1947,-5.3234,-5.3234,-5.3234,-5.3234,-5.1947,-5.1588,-5.2187,-5.09,-5.0272,-5.0272,-5.0242,-4.9553,-4.8415,-4.8385,-4.7938,-4.7456,-4.7309,-4.7309,-4.7189,-4.5873,-4.5334,-4.5244,-4.4616,-4.4534,-4.4923,0.0,0.0,0.0,0.0,0.0,0.0,0.0,0.0,0.0,0.0,-2.633,-2.8239,-2.9536,-3.1564,-3.2949,-3.3355,-3.0342,-2.7617,-2.5837,0.0,0.0,0.0,0.0,0.0,-2.3391,-2.3731,-2.4448,-2.5589,-2.5629,-2.6536,-2.8251,-2.8142,-2.873,-2.9861,-2.932,-3.0007,-3.154,-3.0939,-3.1972,-3.377,-3.0767,-2.8596,-2.7336,0.0,0.0,0.0,0.0,0.0,0.0,0.0,0.0,0.0,0.0,0.0,0.0,0.0,0.0,0.0,0.0,0.0,0.0,0.0,0.0,0.0,0.0,0.0,0.0,0.0,0.0,0.0,0.0,0.0,0.0,0.0,0.0,-3.7082,-3.7331,-4.0307,-4.3,-4.4287,-4.68,-4.7967,-4.677,-4.8177,-4.9523,-5.0361,-5.1289,-5.2366,-5.3593,-5.3952,-5.4491,-5.5329,-5.4431,-5.4162,-5.464,-5.3324,-5.2486,-5.2187,-5.1828,-5.1846,-5.2119,-5.0788,-5.0964,-5.202,-4.9417,-4.8914,-4.9726,-4.7985,-4.7578,-4.7938,-4.707,-4.6471,-4.6022,-4.5843,-4.6107,-4.6621,0.0,0.0,0.0,0.0,0.0,0.0,0.0,0.0,0.0,0.0,-2.6206,-2.8272,-2.9369,-3.1083,-3.2018,-3.1758,-2.8695,-2.6057,-2.434,0.0,0.0,0.0,0.0,-2.3947,-2.4348,-2.4523,-2.4913,-2.5559,-2.5124,-2.571,-2.7195,-2.7191,-2.7921,-2.9166,-2.8738,-2.9509,-3.111,-3.0764,-3.1611,-3.3033,-3.204,-3.1481,-3.1334,-3.1447,-3.0614,-2.9157,-2.8286,-2.854,-2.9184,-2.8482,0.0,0.0,0.0,0.0,0.0,0.0,0.0,0.0,0.0,0.0,0.0,0.0,0.0,0.0,0.0,0.0,0.0,0.0,0.0,0.0,0.0,0.0,0.0,0.0,-3.8563,-4.051,-4.1412,-4.3042,-4.4885,-4.692,-4.8386,-4.9344,-4.9494,-5.0212,-5.102,-5.1977,-5.2486,-5.3204,-5.4162,-5.485,-5.5359,-5.5748,-5.5299,-5.5209,-5.5598,-5.4281,-5.3826,-5.4222,-5.3134,-5.313,-5.4009,-5.2516,-5.2436,0.0,-5.0901,-5.0192,-5.0762,-4.8914,-4.8177,0.0,0.0,0.0,0.0,0.0,-4.7418,-4.7405,0.0,0.0,0.0,0.0,0.0,0.0,0.0,0.0,0.0,0.0,0.0,-2.7518,-2.7925,-2.9343,-2.9954,-2.9264,-2.6412,-2.4043,0.0,0.0,0.0,-2.2474,-2.4738,-2.5773,-2.5413,-2.5546,-2.5831,-2.6224,-2.5086,-2.5242,-2.6622,-2.6823,-2.7509,-2.8634,-2.8558,-2.8995,-2.9848,-3.0502,-3.0917,-3.1337,-3.2633,-3.3949,-3.4922,-3.2989,-3.1851,-3.1421,-3.2424,-3.1261,-2.9296,-2.9383,0.0,0.0,0.0,0.0,0.0,0.0,0.0,0.0,0.0,0.0,0.0,0.0,0.0,0.0,0.0,0.0,0.0,0.0,0.0,0.0,0.0,0.0,0.0,0.0,-4.1496,-4.3864,-4.6028,-4.5929,-4.6371,-4.8057,-4.8985,-4.9942,-5.1109,-5.1289,-5.1887,-5.3204,-5.2755,-5.3025,-5.4371,0.0,0.0,0.0,0.0,-5.6166,-5.6166,-5.5089,-5.5334,-5.6867,-5.4643,-5.4515,-5.5942,-5.4819,-5.4269,-5.4083,-5.269,-5.1716,-5.1211,-4.9819,-4.8775,-4.8117,-4.7549,-4.7309,-4.7478,-4.8765,-4.8413,-4.7485,0.0,0.0,0.0,0.0,0.0,0.0,0.0,0.0,0.0,-2.3558,-2.577,-2.7235,-2.6695,-2.8229,-2.8982,-2.8171,-2.5916,-2.3751,0.0,0.0,-2.2866,-2.4869,-2.5113,-2.6017,-2.7769,-2.6347,-2.5831,-2.6224,-2.5587,-2.6033,-2.7469,-2.7083,-2.7828,-2.943,-2.8768,-2.9297,-3.0715,-3.1304,-3.1964,-3.268,-3.3604,-3.3521,-3.2864,-3.3053,-3.2638,-3.1767,-3.0564,-3.0611,-3.0872,-2.8296,-2.8053,-2.8535,-2.7148,0.0,0.0,0.0,0.0,0.0,0.0,0.0,0.0,0.0,0.0,0.0,0.0,0.0,0.0,0.0,0.0,0.0,0.0,0.0,0.0,-4.147,-4.3819,-4.6084,-4.8326,-4.8292,-4.8179,-4.8265,-4.9793,-5.093,-5.1199,-5.1708,-5.2576,-5.3922,-5.3892,-5.4401,-5.5718,-5.5418,-5.5658,-5.6705,-5.6376,-5.6166,-5.6166,-5.6406,-5.6455,-5.6154,0.0,0.0,-5.7937,-5.6734,-5.6871,-5.7783,-5.4253,-5.3201,-5.3629,-5.0018,-4.8087,-4.7489,-4.7369,-4.7309,-4.7452,-4.8522,-4.8337,-4.7778,0.0,0.0,0.0,0.0,0.0,0.0,0.0,0.0,0.0,0.0,-2.5633,-2.6824,-2.6698,-2.7193,-2.7186,-2.645,-2.431,0.0,0.0,-2.3499,-2.4887,-2.6725,-2.769,-2.8315,-2.8511,-2.756,-2.6974,-2.6809,-2.649,-2.7042,-2.8301,-2.8428,-2.9192,-3.0431,-3.0018,-3.0522,-3.1669,-3.192,-3.2152,-3.2486,-3.3268,-3.299,-3.2242,-3.3284,-3.3119,-3.2143,-3.1028,-3.0552,-3.0232,-2.8672,-2.8123,-2.805,-2.7742,-2.731,-2.7053,0.0,0.0,0.0,0.0,0.0,0.0,0.0,0.0,0.0,0.0,0.0,0.0,0.0,0.0,-3.7243,0.0,0.0,-4.2871,-4.593,-4.7545,-4.8932,-5.0399,-5.0306,-4.9997,-4.956,-4.9975,-5.075,-5.2067,-5.2187,-5.2755,-5.4102,-5.4221,-5.464,-5.5628,-5.5987,-5.6436,-5.7064,-5.6795,-5.6795,-5.7154,-5.6795,-5.7394,-5.8908,-5.8369,-5.9111,-6.0946,-5.9413,-5.9185,-5.9928,-5.6085,-5.4486,-5.4313,-5.0075,-4.8087,-4.7758,-4.7429,-4.7309,-4.7452,-4.846,-4.8295,-4.7867,0.0,0.0,0.0,0.0,0.0,0.0,0.0,0.0,0.0,0.0,0.0,-2.6218,-2.6615,-2.6101,-2.5411,0.0,0.0,0.0,0.0,-2.5262,-2.6929,-2.8271,-3.006,-3.0371,-2.9008,-2.8739,-2.8355,-2.7847,-2.7929,-2.8512,-2.9567,-3.0208,-3.097,-3.18,-3.1819,-3.2297,-3.3073,-3.2868,-3.2655,-3.25,-3.3022,-3.2834,-3.2371,-3.3188,-3.2967,-3.2182,-3.1373,-3.0127,-2.8863,-2.8712,-2.7841,-2.6974,-2.7645,-2.7942,-2.8004,-2.7862,-2.8694,0.0,0.0,0.0,0.0,0.0,0.0,0.0,0.0,0.0,-3.5708,-3.7798,-3.9467,-4.1037,-4.2703,-4.4659,-4.6936,-4.9492,-5.0589,-5.13,-5.1822,-5.1491,-5.1089,-5.0913,-5.0026,-5.0391,-5.2755,-5.2636,-5.2845,-5.3922,-5.4251,-5.464,-5.5149,-5.6286,-5.6974,-5.7094,-5.7214,-5.7483,-5.7932,-5.7557,-5.8955,-6.1916,-6.0866,-6.173,-6.3822,-6.2166,-6.1447,-6.1322,-5.7282,-5.4772,-5.3344,-4.9809,-4.8207,-4.8027,-4.7519,-4.7309,-4.7396,-4.821,-4.8091,-4.7762,0.0,0.0,0.0,0.0,0.0,0.0,0.0,0.0,0.0,0.0,0.0,0.0,0.0,0.0,0.0,0.0,0.0,0.0,-2.4257,-2.6032,-2.7802,-2.9429,-2.9646,-2.999,-3.0628,-2.9597,-2.914,-2.9368,-3.0355,-3.1162,-3.1826,-3.2214,-3.2989,-3.4058,-3.4098,-3.4632,-3.5393,-3.5007,-3.4864,-3.4793,-3.4271,-3.3796,-3.3296,-3.211,-3.1622,-3.1235,-2.9169,-2.8287,-2.7939,-2.6507,-2.6375,-2.6845,-2.6916,-2.7359,-2.7833,-2.7897,0.0,-2.8164,-2.8753,-2.9677,-3.1112,-3.3393,-3.4109,-3.5453,0.0,0.0,-4.0807,-4.2336,-4.3812,-4.4847,-4.498,-4.6641,-4.8377,-4.9328,-5.0798,-5.1822,-5.1888,-5.107,-5.0703,-5.1248,-5.0641,-5.069,-5.2157,-5.2785,-5.3144,-5.3294,-5.4401,-5.5119,-5.5179,-5.5897,-5.6526,-5.7064,-5.7693,-5.7752,-5.7214,-6.0114,-6.169,-6.2043,-6.4175,-6.5293,-6.5425,-6.46,-6.3485,-6.1998,-5.6955,-5.2941,-4.9823,-4.8773,-4.7938,-4.7399,-4.7339,-4.7309,-4.7309,-4.7452,-4.7422,-4.7332,0.0,0.0,0.0,0.0,0.0,0.0,0.0,0.0,0.0,0.0,0.0,0.0,0.0,0.0,0.0,0.0,0.0,0.0,-2.6204,-2.7811,-2.9752,-3.2195,-3.2269,-3.225,-3.2314,-3.1501,-3.1137,-3.1305,-3.2553,-3.371,-3.4698,-3.5545,-3.6224,-3.6717,-3.6746,-3.6957,-3.7258,-3.6512,-3.6122,-3.5878,-3.4888,-3.3709,-3.2383,-3.0742,-2.9488,-2.852,-2.7328,-2.6341,0.0,0.0,-2.4433,-2.4804,-2.5208,-2.5815,-2.6353,-2.6387,-2.7224,0.0,-2.9521,-3.0977,0.0,0.0,-3.6793,-3.9073,-4.1677,-4.276,-4.3618,-4.5085,-4.6569,-4.7651,-4.8032,-4.9526,-5.075,0.0,-5.2058,-5.2494,-5.147,-5.0431,-4.9732,-4.9347,-4.8828,-4.9344,-5.1439,-5.1887,-5.2366,-5.3114,-5.4072,-5.479,-5.5179,-5.6166,-5.7004,-5.7663,-5.8351,-5.874,-5.883,-6.1077,-6.27,-6.3804,-6.5727,-6.6989,-6.7624,-6.644,-6.3618,-5.9544,-5.5857,-5.2626,-4.9793,-4.9134,-4.8476,-4.7878,-4.7878,-4.7638,-4.7309,-4.7309,-4.7309,-4.7309,0.0,0.0,0.0,0.0,0.0,0.0,0.0,0.0,0.0,0.0,0.0,0.0,0.0,0.0,0.0,0.0,0.0,0.0,0.0,-2.8648,-3.06,-3.32,-3.3827,0.0,-3.3697,-3.3549,-3.3486,-3.3486,-3.473,-3.5875,-3.6842,-3.7588,-3.8247,-3.8749,-3.8512,-3.869,-3.9101,-3.7804,-3.7027,-3.6483,-3.4963,-3.3119,-3.1057,-2.949,-2.7727,-2.6015,-2.5514,-2.458,0.0,0.0,-2.2794,-2.2983,-2.35,-2.4434,-2.5329,-2.5259,-2.6768,-2.8714,-3.0209,0.0,0.0,-3.6373,-3.9558,-4.2388,-4.3335,-4.4553,-4.5872,-4.7124,-4.8274,-4.9221,-4.9965,-5.115,-5.2063,-5.2266,-5.2976,-5.2909,-5.1144,-5.005,-4.8942,-4.7698,-4.7236,-4.7848,-4.9942,-5.0631,-5.1498,-5.2815,-5.3533,-5.4311,-5.5149,-5.6406,-5.7483,-5.8381,-5.9039,-5.9697,-6.0356,-6.2359,-6.3987,-6.5404,-6.7349,-6.865,-6.935,-6.7387,-6.3463,-5.8093,-5.562,-5.3004,-5.0421,-4.9404,-4.8716,-4.8267,-4.8087,-4.7728,-4.7309,-4.7309,-4.7309,-4.7309,0.0,0.0,0.0,0.0,0.0,0.0,0.0,0.0,0.0,0.0,0.0,0.0,0.0,0.0,0.0,0.0,0.0,0.0,0.0,-2.7835,-2.9512,-3.1042,-3.2847,-3.4086,-3.4658,-3.5471,-3.5907,-3.5907,-3.6977,-3.7564,-3.7642,-3.7257,-3.7996,-3.9638,-3.8793,-3.9413,-4.0976,-3.9,-3.77,-3.6781,-3.439,-3.2002,-2.9732,-2.8497,-2.6609,-2.4489,-2.3748,0.0,0.0,0.0,-2.1858,-2.2147,-2.2146,-2.3626,0.0,-2.5221,-2.6686,0.0,0.0,0.0,-3.6456,-3.9084,-4.2144,-4.4857,-4.6312,-4.7259,-4.8037,-4.8781,-4.8984,-4.9221,-4.9965,-5.071,-5.1488,-5.2198,-5.2976,-5.2909,-5.1144,-5.005,-4.8751,-4.7154,-4.6538,-4.6621,0.0,-4.9134,-5.081,-5.2127,-5.2845,-5.3803,-5.5119,-5.6406,-5.7693,-5.9039,-5.9727,-6.0386,-6.1074,-6.4424,-6.6076,-6.6209,-6.955,-7.0872,-7.006,-6.7083,-6.3178,-5.871,-5.6627,-5.4022,-5.105,-4.9105,-4.8297,-4.8237,-4.7578,-4.7309,-4.7309,-4.7309,-4.7309,-4.7309,0.0,0.0,0.0,0.0,0.0,0.0,0.0,0.0,0.0,0.0,0.0,0.0,0.0,0.0,0.0,0.0,0.0,0.0,0.0,-2.8692,-2.9757,-3.1197,-3.2986,-3.393,-3.3971,-3.496,-3.5778,-3.6377,-3.6892,-3.7494,-3.8139,-3.8015,-3.8297,-3.8974,-3.9283,-3.9753,-4.0267,-3.8863,-3.8024,-3.7277,-3.3941,-3.1395,-2.9441,-2.7235,-2.5324,-2.3617,0.0,0.0,0.0,0.0,-2.0146,-1.9899,-1.9538,0.0,0.0,-2.4841,-2.7118,-2.9543,0.0,0.0,-3.9424,-4.2881,-4.5671,-4.7902,-4.939,-4.9526,-4.9289,-4.9052,-4.8206,-4.7462,-4.7225,-4.7767,-4.868,-4.9898,-5.1183,-5.1765,-5.0979,-5.0399,-4.9292,-4.7185,-4.6902,0.0,0.0,0.0,0.0,-5.1409,-5.2576,-5.3773,-5.5119,-5.6825,-5.8171,-5.9069,-6.0176,-6.1104,-6.1762,-6.5145,-6.6812,-6.6914,-6.9849,-7.0669,-6.9383,-6.6477,-6.3143,-5.9447,-5.6536,-5.3959,-5.1738,-5.0212,-4.9314,-4.8865,-4.8207,-4.7698,-4.7309,-4.7309,-4.7309,-4.7309,0.0,0.0,0.0,0.0,0.0,0.0,0.0,0.0,0.0,0.0,0.0,0.0,0.0,0.0,0.0,0.0,0.0,0.0,0.0,0.0,-2.9296,-3.0203,-3.1864,-3.2865,-3.2987,-3.3914,-3.4732,-3.5305,-3.5722,-3.6305,-3.6996,-3.727,-3.7665,-3.8137,-3.8927,-3.9287,-3.9254,-3.7964,-3.6742,-3.5375,-3.1981,-2.9375,-2.7287,-2.5456,-2.3943,0.0,0.0,0.0,0.0,0.0,0.0,0.0,-1.846,-2.0006,-2.2497,-2.5741,-2.8293,-3.0846,-3.4384,-3.8206,-4.2005,-4.5524,-4.8115,-4.9965,-5.0642,-5.0236,-4.9424,-4.8409,-4.6819,-4.5534,-4.5331,-4.5229,-4.5838,-4.7868,-4.9255,-5.0219,-5.0813,-5.0399,-4.9596,-4.8524,-4.8201,-4.8087,0.0,0.0,0.0,-5.1468,-5.2576,-5.3952,-5.5777,-5.7304,-5.865,-5.9787,-6.0894,-6.1988,-6.3152,-6.5827,-6.7673,-6.8732,-7.0482,-7.0534,-6.9045,-6.7,-6.4167,-6.0818,-5.7502,-5.5007,-5.3031,-5.0785,-4.9643,-4.9164,-4.8297,-4.7668,-4.7309,-4.7309,-4.7309,-4.7309,0.0,0.0,0.0,0.0,0.0,0.0,0.0,0.0,0.0,0.0,0.0,0.0,0.0,0.0,0.0,0.0,0.0,0.0,0.0,0.0,0.0,-2.8086,-2.9671,-3.0918,-3.1676,-3.2485,-3.288,-3.2929,-3.3647,-3.4129,-3.4434,-3.5088,-3.5952,-3.6972,-3.7553,-3.7858,-3.7833,-3.6207,-3.3952,-3.1294,-2.8637,-2.6021,-2.3676,-2.3335,0.0,0.0,0.0,0.0,0.0,0.0,0.0,0.0,0.0,-2.1288,-2.4423,-2.7794,-3.0193,-3.2762,-3.694,-4.0833,-4.4367,-4.7177,-4.9588,-5.1146,-5.0367,-4.9588,-4.8633,-4.7106,-4.497,-4.3559,0.0,0.0,-4.322,-4.6244,-4.7428,-4.8673,-5.085,-5.0237,-5.0009,0.0,0.0,0.0,0.0,0.0,0.0,-5.2306,0.0,-5.4401,-5.7004,-5.7812,-5.9069,-6.1044,-6.1732,-6.298,-6.5111,-6.6543,-6.8634,-7.1312,-7.1312,-7.0534,-6.9079,-6.8233,-6.5981,-6.2562,-5.9295,-5.6747,-5.4698,-5.085,-4.9254,-4.9134,-4.7818,-4.7309,-4.7309,-4.7309,-4.7309,-4.7309,0.0,0.0,0.0,0.0,0.0,0.0,0.0,0.0,0.0,0.0,0.0,0.0,0.0,0.0,0.0,0.0,0.0,0.0,0.0,0.0,0.0,0.0,0.0,0.0,0.0,0.0,0.0,0.0,0.0,-3.1872,-3.3081,-3.2596,-3.2878,-3.3705,-3.3646,-3.3487,-3.3135,-3.1778,-3.0501,-2.9166,0.0,-2.4865,-2.3691,0.0,0.0,0.0,0.0,0.0,0.0,0.0,0.0,0.0,0.0,-2.3806,-2.592,-2.9651,-3.3391,-3.6908,-3.9656,-4.3815,-4.7902,-4.9854,-5.1605,-5.2647,-5.1829,-5.0553,-4.8958,-4.6898,-4.4593,-4.2532,0.0,0.0,0.0,-4.5456,-4.753,0.0,-5.3953,-5.4162,0.0,-5.4444,0.0,-5.2815,-5.2456,-5.3473,0.0,0.0,-5.4581,-5.5598,-5.7752,-5.8501,-5.9548,-6.1074,-6.1283,-6.2526,-6.5111,-6.747,-6.9537,-7.1312,-7.1312,-7.0534,-6.9045,-6.7692,-6.521,-6.1805,-5.8464,-5.6017,-5.3926,-5.0638,-4.9254,-4.9134,-4.7818,-4.7309,-4.7309,-4.7309,-4.7309,-4.7309,0.0,0.0,0.0,0.0,0.0,0.0,0.0,0.0,0.0,0.0,0.0,0.0,0.0,0.0,0.0,0.0,0.0,0.0,0.0,0.0,0.0,0.0,0.0,0.0,0.0,0.0,0.0,0.0,0.0,0.0,0.0,-2.9599,-2.9983,-3.1038,-3.0785,-3.0534,-3.014,0.0,0.0,0.0,0.0,0.0,0.0,0.0,0.0,0.0,0.0,0.0,0.0,0.0,0.0,-2.0804,-2.4058,-2.6327,-2.8655,-3.2702,0.0,-3.9879,-4.2844,-4.691,-5.0557,-5.1872,-5.303,-5.3393,-5.1555,-4.9925,-4.7823,-4.4378,-4.2414,0.0,0.0,0.0,0.0,0.0,0.0,0.0,-5.5006,-5.5254,-5.5665,0.0,-5.6238,0.0,-5.491,-5.5568,-5.6166,0.0,-5.6196,-5.6765,-5.8471,-5.9189,-6.0146,-6.1493,-6.2435,-6.4151,-6.6855,-6.9024,-7.0482,-7.1312,-7.1312,-7.0534,-6.9079,-6.7861,-6.5531,-6.2283,0.0,-5.7001,-5.5143,-5.1462,-4.9965,-4.9843,-4.8049,-4.7309,-4.7309,-4.7309,-4.7309,-4.7309,0.0,0.0,0.0,0.0,0.0,0.0,0.0,0.0,0.0,0.0,0.0,0.0,0.0,0.0,0.0,0.0,0.0,0.0,0.0,0.0,0.0,0.0,0.0,0.0,0.0,0.0,0.0,0.0,0.0,0.0,0.0,0.0,0.0,0.0,0.0,0.0,0.0,0.0,0.0,0.0,0.0,0.0,0.0,0.0,0.0,0.0,0.0,0.0,0.0,0.0,-2.3782,-2.3716,-2.6329,-2.9029,-3.1989,-3.6075,-3.9376,-4.2555,-4.6024,-4.9742,-5.2775,-5.3428,-5.4068,-5.3654,-5.0484,-4.8409,-4.5868,-4.1386,0.0,-3.8818,-3.7617,-3.8036,-3.9468,-4.2155,0.0,-4.9086,-5.5277,-5.5273,-5.6303,-6.054,-5.843,-5.6765,-5.7304,-5.7363,-5.7603,-5.8201,-5.7693,-5.7902,-5.9159,-5.9847,-6.0886,-6.2371,-6.4364,-6.6647,-6.9217,-7.0574,-7.1312,-7.1312,-7.121,-7.0432,-6.9079,-6.8064,-6.6068,-6.3214,-6.0636,0.0,-5.6737,-5.2586,-5.0847,-5.0491,-4.8162,-4.7309,-4.7309,-4.7309,-4.7309,-4.7309,0.0,0.0,0.0,0.0,0.0,0.0,0.0,0.0,0.0,0.0,-3.0007,-2.9856,0.0,0.0,0.0,0.0,0.0,0.0,0.0,0.0,0.0,0.0,0.0,0.0,0.0,0.0,0.0,0.0,0.0,0.0,0.0,0.0,0.0,0.0,0.0,0.0,0.0,0.0,0.0,0.0,0.0,0.0,0.0,0.0,0.0,0.0,0.0,0.0,0.0,0.0,-2.5593,-2.5855,-2.9547,-3.2254,-3.4666,-3.8209,-4.2388,-4.6178,-4.7977,-5.1785,-5.5014,-5.4529,-5.4421,-5.3634,-5.039,-4.7368,0.0,0.0,0.0,-3.7972,-3.7347,-3.7993,0.0,-4.3579,0.0,0.0,0.0,0.0,-5.8064,0.0,0.0,0.0,0.0,0.0,0.0,0.0,0.0,-5.9099,-5.9877,-6.0565,-6.178,-6.3626,-6.5775,-6.7572,-6.9217,-7.0574,-7.1312,-7.1312,-7.0669,-6.9925,-6.9045,-6.6981,-6.4783,-6.2403,-5.9871,0.0,-5.5292,-5.2175,-5.0514,-4.9758,-4.7981,-4.7309,-4.7309,-4.7309,-4.7309,-4.7309,0.0,0.0,0.0,0.0,0.0,0.0,0.0,-2.8923,-2.9485,-3.0868,-3.1007,-3.061,-2.9626,-2.8941,-2.8315,0.0,0.0,0.0,0.0,0.0,0.0,0.0,0.0,0.0,0.0,0.0,0.0,0.0,0.0,0.0,0.0,0.0,0.0,0.0,0.0,0.0,0.0,0.0,0.0,0.0,0.0,0.0,0.0,0.0,0.0,0.0,0.0,0.0,0.0,0.0,-2.7039,-2.8356,-3.1929,-3.4512,-3.694,-4.0609,-4.4357,-4.7749,-5.012,-5.3471,-5.6295,-5.5902,-5.4783,-5.2926,-4.9689,0.0,0.0,0.0,-3.8522,-3.7611,-3.668,0.0,0.0,0.0,0.0,0.0,0.0,0.0,0.0,0.0,0.0,0.0,0.0,0.0,0.0,0.0,0.0,-6.0296,-6.0595,-6.2274,-6.3981,-6.5618,-6.7411,-6.8927,-7.0263,-7.1007,-7.1312,-7.1312,-7.0534,-6.9789,-6.9011,-6.6745,-6.4478,-6.2313,-6.0259,0.0,-5.6287,-5.3134,-5.1556,-5.0982,-4.8329,-4.7309,-4.7309,-4.7309,-4.7309,-4.7309,0.0,0.0,0.0,0.0,0.0,0.0,0.0,-3.0024,-3.0525,-3.2364,-3.2412,-3.1725,-3.0204,-2.8897,-2.7877,0.0,0.0,0.0,0.0,0.0,0.0,0.0,0.0,0.0,0.0,0.0,0.0,0.0,0.0,0.0,0.0,0.0,0.0,0.0,0.0,0.0,0.0,0.0,0.0,0.0,0.0,0.0,0.0,0.0,0.0,0.0,0.0,0.0,0.0,0.0,-2.8171,-3.0105,-3.3239,-3.5798,-3.8338,-4.1855,-4.5409,-4.885,-5.1822,-5.4937,-5.7333,-5.7188,-5.5176,-5.2344,-4.9077,-4.5553,0.0,0.0,-3.7584,-3.722,-3.636,0.0,0.0,0.0,0.0,0.0,0.0,0.0,0.0,0.0,0.0,0.0,0.0,0.0,0.0,0.0,0.0,0.0,-6.1911,-6.393,-6.5835,-6.7572,-6.8699,-6.9855,-7.1312,-7.1312,-7.1367,-7.16,-7.0682,-7.0106,-6.9594,-6.7175,-6.4812,-6.2591,-6.1003,0.0,0.0,-5.3909,-5.2397,-5.1774,-4.8584,-4.7309,-4.7309,-4.7309,-4.7309,-4.7309,0.0,0.0,0.0,0.0,0.0,0.0,0.0,-3.0674,-3.1952,-3.4501,-3.3465,-3.2431,-3.232,-3.1422,-3.0006,0.0,0.0,0.0,0.0,0.0,0.0,0.0,0.0,0.0,0.0,0.0,0.0,0.0,0.0,0.0,0.0,0.0,0.0,0.0,0.0,0.0,0.0,0.0,0.0,0.0,0.0,0.0,0.0,0.0,0.0,0.0,0.0,0.0,0.0,0.0,0.0,-2.9999,-3.2792,-3.56,-3.8302,-4.0601,0.0,0.0,-5.2615,-5.6043,-5.882,-5.8087,-5.553,-5.2344,-4.9077,0.0,0.0,-3.8982,-3.7246,-3.6288,-3.696,-3.7612,0.0,0.0,0.0,0.0,0.0,0.0,0.0,0.0,0.0,0.0,0.0,0.0,0.0,0.0,0.0,0.0,-6.4597,-6.494,-6.6333,-6.8894,-6.9121,-6.9855,-7.1312,-7.1312,-7.1776,-7.2631,-7.1179,-7.0898,-7.1643,-6.8426,-6.5792,-6.3612,-6.1927,0.0,0.0,-5.3518,-5.182,-5.0356,-4.8133,-4.7309,-4.7309,-4.7309,-4.7309,-4.7309,0.0,0.0,0.0,0.0,0.0,0.0,-3.1016,-3.0827,-3.1668,-3.4822,-3.4703,-3.4184,-3.3782,-3.3818,-3.2285,-2.8348,0.0,0.0,0.0,0.0,0.0,0.0,0.0,0.0,0.0,0.0,0.0,0.0,0.0,0.0,0.0,0.0,0.0,0.0,0.0,0.0,0.0,0.0,0.0,0.0,0.0,0.0,0.0,0.0,0.0,0.0,0.0,0.0,0.0,0.0,0.0,0.0,-3.0768,-3.363,0.0,0.0,-4.5089,-4.946,-5.2486,-5.6175,-5.9024,-5.8217,-5.5207,-5.1867,-4.9591,0.0,0.0,-3.9831,-3.808,-3.6953,-3.7866,-3.7968,-3.8328,0.0,0.0,0.0,0.0,0.0,0.0,0.0,0.0,0.0,0.0,0.0,0.0,0.0,0.0,0.0,-6.7438,-6.6751,-6.7266,-6.9121,-7.0043,-7.0699,-7.1312,-7.1312,-7.1538,-7.2022,-7.0984,-7.0818,-7.1157,-6.7955,-6.5491,-6.365,-6.1484,0.0,0.0,-5.3616,-5.198,-5.0817,-4.8309,-4.7309,-4.7309,-4.7309,-4.7309,-4.7309,0.0,0.0,0.0,0.0,0.0,-2.9403,-3.1182,-3.0761,-3.1358,-3.4352,-3.4866,-3.4813,-3.4559,-3.4592,-3.3184,-2.9443,-2.8089,0.0,0.0,0.0,0.0,0.0,0.0,0.0,0.0,0.0,0.0,-1.9482,0.0,0.0,0.0,0.0,0.0,0.0,0.0,0.0,0.0,0.0,0.0,0.0,0.0,0.0,0.0,0.0,0.0,0.0,0.0,0.0,0.0,0.0,0.0,0.0,0.0,0.0,0.0,0.0,-4.4329,-4.834,-5.1927,-5.5623,-5.8437,-5.807,-5.4803,-5.1279,0.0,0.0,0.0,-4.0348,-3.8821,-3.7842,-3.8504,-3.8367,-3.8396,0.0,0.0,0.0,0.0,0.0,0.0,0.0,0.0,0.0,0.0,0.0,0.0,0.0,0.0,0.0,0.0,-6.8306,-6.8405,-6.9727,-7.0791,-7.1312,-7.1312,-7.1634,-7.1816,-7.2056,-7.1567,-7.1438,-7.1541,-6.8292,-6.5825,-6.4079,-6.1292,0.0,0.0,-5.3421,-5.1852,-5.0912,-4.834,-4.7309,-4.7309,-4.7309,-4.7309,-4.7309,0.0,0.0,0.0,0.0,0.0,0.0,-2.992,-3.0382,-3.1242,-3.316,-3.3423,-3.3705,-3.4412,-3.3247,-3.2131,-3.1406,-2.9414,0.0,0.0,0.0,0.0,0.0,0.0,0.0,0.0,0.0,-1.8696,-1.7523,-1.8169,-1.8239,0.0,0.0,0.0,0.0,0.0,0.0,0.0,0.0,0.0,0.0,0.0,0.0,0.0,0.0,0.0,0.0,0.0,0.0,0.0,0.0,0.0,0.0,0.0,0.0,0.0,0.0,-4.3017,-4.7501,-5.103,-5.4363,-5.7005,-5.7813,-5.4363,-5.0582,0.0,0.0,0.0,-4.0383,-3.9358,-3.8589,-3.8589,-3.8777,-3.8971,-3.9005,0.0,0.0,0.0,0.0,0.0,0.0,0.0,0.0,0.0,0.0,0.0,0.0,0.0,0.0,0.0,-6.9217,-6.9822,-7.1222,-7.1312,-7.1312,-7.1312,-7.2279,-7.2868,-7.3067,-7.3291,-7.347,-7.3575,-7.0135,-6.7298,0.0,0.0,0.0,0.0,-5.2671,-5.1115,-5.0165,-4.8072,-4.7309,-4.7309,-4.7309,-4.7309,-4.7309,0.0,0.0,0.0,0.0,0.0,0.0,0.0,-2.8806,-2.9179,-3.1608,-3.1541,-3.1924,-3.3645,-3.3064,-3.2414,-3.2123,-3.0179,0.0,0.0,0.0,0.0,0.0,0.0,0.0,0.0,0.0,-1.8278,-1.8595,-1.8588,-1.8486,-1.8347,-1.8233,-1.8347,0.0,0.0,0.0,0.0,0.0,0.0,0.0,0.0,0.0,0.0,0.0,0.0,0.0,0.0,0.0,0.0,0.0,0.0,0.0,0.0,0.0,0.0,0.0,0.0,0.0,-4.8061,-5.114,-5.3445,-5.3151,-5.1059,-4.8779,-4.7583,0.0,0.0,-4.075,-3.9582,-3.8801,-3.9529,-3.9287,-3.9846,-4.2423,-4.3833,0.0,0.0,0.0,0.0,0.0,0.0,0.0,0.0,0.0,0.0,0.0,0.0,0.0,0.0,-7.0666,-7.0791,-7.1312,-7.1312,-7.1362,-7.1523,-7.1822,-7.2135,-7.2502,-7.2557,-7.2672,-7.2768,-6.9311,-6.655,0.0,0.0,0.0,0.0,-5.2139,-5.0612,-4.9135,-4.7849,-4.7309,-4.7309,-4.7309,-4.7309,-4.7309,0.0,0.0,0.0,0.0,0.0,0.0,0.0,-2.7855,-2.8186,-3.0112,-3.0075,-3.0663,-3.2793,-3.2323,-3.1779,-3.1615,-3.022,0.0,0.0,0.0,0.0,0.0,0.0,0.0,0.0,-1.8318,-1.8417,-1.8887,-1.9199,-1.9574,-1.9917,-2.0171,-2.0564,-2.1144,-2.0773,0.0,0.0,0.0,0.0,0.0,0.0,0.0,-3.2099,0.0,0.0,0.0,0.0,0.0,0.0,0.0,0.0,0.0,0.0,0.0,0.0,0.0,-4.007,0.0,0.0,-4.8847,-5.0738,-5.0477,-4.8981,0.0,0.0,0.0,0.0,-4.0954,-4.0008,-3.9431,-4.0246,-4.0041,-4.0762,-4.392,-4.518,0.0,0.0,0.0,0.0,0.0,0.0,0.0,0.0,0.0,0.0,0.0,0.0,0.0,0.0,-7.1312,-7.1457,-7.183,-7.1274,-7.1268,-7.2136,-7.1901,-7.1858,-7.2185,-7.2255,-7.2182,-7.1924,-6.8199,-6.5485,0.0,0.0,0.0,0.0,-5.1782,-5.039,-4.9215,-4.7849,-4.7309,-4.7309,-4.7309,-4.716,-4.698,0.0,0.0,0.0,0.0,0.0,0.0,0.0,-2.7537,-2.8009,-2.882,-2.9004,-2.9837,-3.1897,-3.1123,-3.0364,-3.0216,0.0,0.0,0.0,0.0,0.0,0.0,0.0,0.0,0.0,-1.8671,-1.9036,-1.884,-2.0112,-2.1262,-2.2445,-2.2892,-2.346,-2.4082,-2.3097,0.0,0.0,0.0,0.0,0.0,0.0,0.0,0.0,0.0,0.0,0.0,0.0,0.0,0.0,0.0,0.0,0.0,0.0,0.0,0.0,0.0,0.0,0.0,0.0,0.0,0.0,0.0,0.0,0.0,0.0,0.0,0.0,0.0,0.0,-4.0353,-4.0965,-4.1071,-4.1869,-4.4263,-4.6471,0.0,0.0,0.0,0.0,0.0,0.0,0.0,0.0,0.0,0.0,0.0,0.0,0.0,0.0,-7.1401,-7.1796,-7.281,-7.1148,-7.1208,-7.3145,-7.2401,-7.212,-7.2243,-7.2363,-7.1982,-7.1081,-6.6935,-6.4173,0.0,0.0,0.0,0.0,-5.1564,-5.0365,-5.0023,-4.8126,-4.7336,-4.7249,-4.7279,-4.686,-4.6352,0.0,0.0,0.0,0.0,0.0,0.0,0.0,0.0,0.0,0.0,-2.7908,-2.8283,-2.9998,-2.9929,-2.9754,0.0,0.0,0.0,0.0,0.0,0.0,0.0,0.0,0.0,0.0,-1.8973,-1.9917,-2.1333,-2.1665,-2.2722,-2.4514,-2.4626,-2.5142,-2.5961,-2.525,-2.5859,0.0,0.0,0.0,0.0,0.0,0.0,0.0,0.0,0.0,0.0,-2.9699,-2.9486,0.0,0.0,0.0,0.0,0.0,0.0,0.0,0.0,-3.8472,-3.9645,-4.1649,0.0,-4.3487,-4.3665,-4.3309,0.0,0.0,0.0,0.0,0.0,0.0,0.0,0.0,-4.2636,-4.4059,-4.8731,-4.9472,0.0,0.0,0.0,0.0,0.0,0.0,0.0,0.0,0.0,0.0,0.0,0.0,0.0,0.0,-7.2056,-7.2602,-7.3006,-7.2079,-7.2109,-7.3356,-7.2566,-7.2243,-7.2423,-7.183,-7.1174,-7.0237,-6.6146,-6.3109,0.0,0.0,0.0,-5.1678,-5.1612,-5.0305,-4.8306,-4.8409,-4.7684,-4.6621,-4.713,-4.6561,-4.5633,0.0,0.0,0.0,0.0,0.0,0.0,0.0,0.0,0.0,0.0,0.0,0.0,0.0,0.0,0.0,0.0,0.0,0.0,0.0,0.0,0.0,0.0,0.0,0.0,-1.8926,-1.9551,-2.0783,-2.2505,-2.2949,-2.429,-2.6549,-2.6549,-2.6901,-2.7629,-2.7232,-2.7556,0.0,0.0,0.0,0.0,-3.2604,0.0,0.0,0.0,0.0,0.0,-2.9366,-2.9083,0.0,-3.1702,-3.2602,-3.2804,0.0,0.0,0.0,0.0,-3.7668,-3.8387,-4.0075,-4.1244,-4.1936,-4.1936,-4.1936,-4.1799,0.0,0.0,0.0,0.0,0.0,0.0,0.0,0.0,0.0,0.0,0.0,0.0,0.0,0.0,0.0,0.0,0.0,0.0,0.0,0.0,0.0,0.0,0.0,0.0,0.0,-7.2188,-7.2678,-7.3761,-7.2726,-7.2566,-7.3551,-7.2336,-7.1765,-7.1945,-7.1138,-6.9941,-6.8283,-6.4562,-6.1679,0.0,0.0,0.0,-5.1493,-5.1041,-5.0188,-4.9038,-4.8511,-4.7753,-4.6963,-4.6881,-4.5992,-4.4975,0.0,0.0,0.0,0.0,0.0,0.0,0.0,0.0,0.0,0.0,0.0,0.0,0.0,0.0,0.0,0.0,0.0,0.0,0.0,0.0,0.0,0.0,0.0,-2.1467,-1.9664,-2.0523,-2.1741,-2.3332,-2.4508,-2.6219,-2.8467,-2.8681,-2.8733,-2.875,-2.8672,-2.8772,0.0,0.0,0.0,0.0,-3.3365,0.0,0.0,0.0,0.0,0.0,0.0,0.0,0.0,-3.1518,-3.2602,-3.2804,-3.4058,0.0,0.0,0.0,0.0,0.0,-3.9261,-4.1013,-4.2237,-4.1947,-4.2077,-4.2098,0.0,0.0,0.0,0.0,0.0,0.0,0.0,0.0,0.0,0.0,0.0,0.0,0.0,0.0,0.0,0.0,0.0,0.0,0.0,0.0,0.0,0.0,0.0,0.0,0.0,-7.207,-7.263,-7.4204,-7.3038,-7.2725,-7.334,-7.1878,-7.1223,-7.1321,-7.0257,-6.8455,-6.5958,-6.277,-6.0051,-5.7617,0.0,0.0,-5.2031,-5.0524,-5.0179,-5.0457,-4.8821,-4.7964,-4.7583,-4.6954,-4.5612,-4.4347,0.0,0.0,0.0,0.0,0.0,0.0,0.0,0.0,0.0,0.0,0.0,0.0,0.0,0.0,0.0,0.0,0.0,0.0,0.0,0.0,0.0,0.0,-2.47,-2.3026,-2.0937,-2.1961,-2.3438,-2.5338,-2.7795,-2.9443,-3.0219,-3.119,-3.0366,-2.8222,-2.8931,-2.8976,-2.8692,-3.0573,-3.0893,-3.0122,-3.1293,0.0,0.0,0.0,0.0,0.0,0.0,0.0,0.0,-3.1824,-3.2602,-3.2695,-3.3457,0.0,0.0,0.0,0.0,0.0,-3.803,-4.0696,-4.2853,-4.144,-4.196,-4.2635,0.0,0.0,0.0,0.0,0.0,0.0,0.0,0.0,0.0,0.0,0.0,0.0,0.0,0.0,0.0,0.0,0.0,0.0,0.0,0.0,0.0,0.0,0.0,0.0,0.0,-7.2295,-7.2961,-7.2581,-7.3166,-7.2893,-7.1688,-7.1427,-7.128,-7.1284,-6.9082,-6.6811,-6.439,-6.1224,-5.8431,-5.5992,0.0,-5.2063,-5.1386,-5.1056,-5.056,-4.9908,-5.0216,-4.8957,-4.7169,-4.8355,-4.65,-4.3688,0.0,0.0,0.0,0.0,0.0,0.0,0.0,0.0,0.0,0.0,0.0,0.0,0.0,0.0,0.0,0.0,0.0,0.0,0.0,0.0,0.0,-2.7143,-2.6423,-2.5034,-2.2907,-2.3393,-2.477,-2.7172,-2.948,-3.1083,-3.1861,-3.1514,-3.0121,-2.8072,-2.787,-2.8075,-2.8554,-2.9399,-2.9921,-3.0223,0.0,0.0,0.0,0.0,0.0,0.0,0.0,0.0,0.0,0.0,-3.1279,-3.1482,-3.205,0.0,0.0,0.0,0.0,0.0,-3.6964,-3.9631,-4.2009,-4.207,-4.3482,-4.4759,0.0,0.0,0.0,0.0,0.0,0.0,0.0,0.0,0.0,0.0,0.0,0.0,0.0,0.0,0.0,0.0,0.0,0.0,0.0,0.0,0.0,0.0,0.0,0.0,0.0,0.0,-7.2842,-7.2995,-7.3054,-7.2716,-7.1982,-7.066,-6.9779,-6.9339,-6.7359,-6.4903,-6.2093,-5.9355,-5.6836,-5.4456,0.0,-5.1657,-5.0608,-5.0608,-5.0318,-4.9925,-4.9686,-4.8893,-4.7782,-4.7087,-4.5819,-4.4496,0.0,0.0,0.0,0.0,0.0,0.0,0.0,0.0,0.0,0.0,0.0,0.0,0.0,0.0,0.0,0.0,0.0,0.0,0.0,0.0,-2.922,-2.7912,-2.7657,-2.6635,-2.47,-2.5054,-2.6287,-2.8458,-3.0778,-3.2249,-3.2987,-3.1412,-2.9848,-2.8273,-2.7419,-2.7666,-2.863,-2.8838,-2.9449,-3.0142,0.0,0.0,0.0,0.0,0.0,0.0,0.0,0.0,0.0,0.0,0.0,0.0,0.0,0.0,0.0,-3.3223,-3.3504,-3.4041,-3.6032,-3.8675,-4.1131,-4.2334,0.0,0.0,0.0,0.0,0.0,0.0,0.0,0.0,0.0,0.0,0.0,0.0,0.0,0.0,0.0,0.0,0.0,0.0,0.0,0.0,0.0,0.0,0.0,0.0,0.0,0.0,0.0,0.0,-7.2642,-7.3413,-7.2642,-7.2129,-7.1945,-6.9743,-6.8311,-6.765,-6.5493,-6.2867,-5.9891,-5.7716,-5.5434,-5.3179,-5.2401,-5.1285,-5.0067,-4.9898,-4.9932,-5.0004,-4.9227,-4.8827,-4.839,-4.5772,-4.4955,-4.5182,0.0,0.0,0.0,0.0,0.0,0.0,0.0,0.0,0.0,0.0,0.0,0.0,0.0,0.0,0.0,0.0,0.0,0.0,0.0,0.0,-2.9528,-2.88,-2.7964,-2.6886,-2.5711,-2.7195,-2.8298,-2.8903,-3.2056,-3.3436,-3.2935,-3.188,-3.0435,-2.8875,-2.8775,-2.8775,-2.8949,-2.9881,-2.9762,-2.9024,-2.9353,0.0,0.0,0.0,0.0,0.0,0.0,0.0,0.0,0.0,0.0,0.0,0.0,0.0,-3.1719,-3.2377,-3.3098,-3.3886,-3.538,-3.8371,-4.108,-4.1139,0.0,0.0,0.0,0.0,0.0,0.0,0.0,0.0,0.0,0.0,0.0,0.0,0.0,0.0,0.0,0.0,0.0,0.0,0.0,0.0,0.0,0.0,0.0,0.0,0.0,0.0,0.0,0.0,0.0,-7.2569,-7.1835,-7.1027,-7.0293,-6.8605,-6.776,-6.765,-6.3821,-6.0711,-5.8296,-5.6606,-5.4643,-5.2367,-5.1623,-5.0845,-5.0033,-4.9357,-4.9492,-5.0101,-5.0004,-4.9456,-4.839,-4.5772,-4.4799,-4.4925,0.0,0.0,0.0,0.0,0.0,0.0,0.0,0.0,0.0,0.0,0.0,0.0,0.0,0.0,0.0,0.0,0.0,0.0,0.0,0.0,-2.8407,-2.8373,-2.8709,-2.8397,-2.7242,-2.8241,-2.9359,-3.0466,-3.3105,-3.3939,-3.3013,-3.2254,-3.0676,-2.8349,-2.7728,-2.7803,-2.8423,-2.8475,-2.8849,-2.9402,-2.9198,-2.8638,0.0,0.0,0.0,0.0,0.0,0.0,0.0,0.0,-2.7344,-2.8044,0.0,-3.0258,-3.0954,-3.2139,-3.3042,-3.379,-3.4782,-3.792,-4.1117,-4.1685,0.0,0.0,0.0,0.0,0.0,0.0,0.0,0.0,0.0,0.0,0.0,0.0,0.0,0.0,0.0,0.0,0.0,0.0,0.0,0.0,0.0,0.0,0.0,0.0,0.0,0.0,0.0,0.0,0.0,-7.0991,-7.022,-6.9412,-6.8605,-6.6026,-6.4203,-6.3221,-6.1235,-5.9053,-5.6632,-5.4603,-5.2864,-5.1623,-5.1352,-5.0541,-4.9424,-4.9593,-4.9593,-4.9424,-4.9424,-4.912,-4.839,-4.639,-4.5802,-4.5881,0.0,0.0,0.0,0.0,0.0,0.0,0.0,0.0,0.0,0.0,0.0,0.0,0.0,0.0,0.0,0.0,0.0,0.0,0.0,-2.722,-2.6909,-2.7345,-2.8445,-2.8778,-2.8084,-2.9036,-3.0163,-3.1386,-3.3122,-3.3424,-3.2462,-3.1551,-3.0036,-2.805,-2.6984,-2.7138,-2.81,-2.7729,-2.8426,-2.9754,-2.9151,-2.8699,0.0,0.0,0.0,0.0,0.0,0.0,0.0,0.0,-2.6334,-2.7189,0.0,0.0,0.0,0.0,-3.3197,-3.4078,-3.4782,-3.7552,-4.05,0.0,0.0,0.0,0.0,0.0,0.0,0.0,0.0,0.0,0.0,0.0,0.0,0.0,0.0,0.0,0.0,0.0,0.0,0.0,0.0,0.0,0.0,0.0,0.0,0.0,0.0,0.0,0.0,0.0,0.0,0.0,-6.8476,-6.7414,-6.6573,-6.3378,-6.0906,-5.9045,-5.8237,-5.6921,-5.4988,-5.2895,-5.1555,-5.0845,-5.0845,-5.0168,-4.9052,-4.9526,-4.9458,-4.9018,-4.9018,-4.8525,-4.7688,-4.6647,-4.5982,-4.5611,0.0,0.0,0.0,0.0,0.0,0.0,0.0,0.0,0.0,0.0,0.0,0.0,0.0,0.0,0.0,0.0,0.0,0.0,-2.5803,-2.5401,-2.5385,-2.5801,-2.6854,-2.7663,-2.8084,-2.9727,-3.0859,-3.1386,-3.1938,-3.1913,-3.1361,-2.9706,-2.8583,-2.8084,-2.6953,-2.7116,-2.8084,-2.8084,-2.8767,-2.9754,-2.9151,-2.8925,-2.88,0.0,0.0,0.0,0.0,0.0,0.0,0.0,-2.6642,-2.7269,0.0,0.0,0.0,0.0,-3.3537,-3.4867,-3.5518,-3.7327,-3.9174,0.0,0.0,0.0,0.0,0.0,0.0,0.0,0.0,0.0,0.0,0.0,0.0,0.0,0.0,0.0,0.0,0.0,0.0,0.0,0.0,0.0,0.0,0.0,0.0,0.0,0.0,0.0,0.0,0.0,0.0,0.0,-6.6531,-6.4824,-6.4028,-6.0902,-5.8174,-5.5869,-5.5043,-5.4217,-5.3463,-5.1872,-5.0811,-5.0101,-5.0067,-4.9661,-4.9018,-4.8984,-4.9018,-4.9018,-4.8984,-4.7868,-4.6244,-4.6173,-4.4974,-4.3539,0.0,0.0,0.0,0.0,0.0,0.0,0.0,0.0,0.0,0.0,0.0,0.0,0.0,0.0,0.0,0.0,0.0,0.0,0.0,-2.4018,-2.3932,-2.4648,-2.5721,-2.6531,-2.6953,-2.9407,-3.0859,-3.1386,-3.1562,-3.1361,-3.0859,-3.0711,-2.993,-2.8642,-2.8322,-2.8411,-2.8593,-2.7873,-2.8426,-2.9754,-2.9151,-2.8925,-2.89,0.0,0.0,0.0,0.0,0.0,0.0,0.0,0.0,0.0,0.0,0.0,0.0,-3.2733,-3.3908,-3.4814,-3.5518,-3.7689,0.0,0.0,0.0,0.0,0.0,0.0,0.0,0.0,0.0,0.0,0.0,0.0,0.0,0.0,0.0,0.0,0.0,0.0,0.0,0.0,0.0,0.0,0.0,0.0,0.0,0.0,0.0,0.0,0.0,0.0,0.0,0.0,-6.2911,-6.106,-5.9116,-5.7092,-5.5183,-5.3445,-5.2111,-5.1629,-5.1872,-5.1398,-5.1098,-5.0858,-5.0815,-5.0411,-4.9664,-4.9195,-4.9018,-4.8923,-4.8289,-4.7638,-4.7069,-4.6139,-4.5773,-4.5703,0.0,0.0,0.0,0.0,0.0,0.0,0.0,0.0,0.0,0.0,0.0,0.0,0.0,0.0,0.0,0.0,0.0,0.0,0.0,0.0,-2.2799,-2.3248,-2.433,-2.5605,-2.7116,-2.9187,-3.0331,-3.0407,-3.0633,-3.0708,-3.0608,-3.0258,-2.9524,-2.8562,-2.8349,-2.8298,-2.8194,-2.7555,-2.8159,-2.9428,-2.9076,-2.9076,-2.9227,0.0,0.0,0.0,0.0,0.0,0.0,0.0,0.0,0.0,0.0,0.0,0.0,-3.2946,-3.3911,-3.4599,-3.6152,0.0,0.0,0.0,0.0,0.0,0.0,0.0,0.0,0.0,0.0,0.0,0.0,0.0,0.0,0.0,0.0,0.0,0.0,0.0,0.0,0.0,0.0,0.0,0.0,0.0,0.0,0.0,0.0,0.0,0.0,0.0,0.0,-6.2004,-5.986,-5.7823,-5.6082,-5.4225,-5.2688,-5.1485,-5.0521,-5.0168,-5.0338,-5.0325,-5.0326,-5.0292,-5.0298,-4.9976,-4.958,-4.9168,-4.9018,-4.8923,-4.7933,-4.7373,-4.6932,-4.5739,-4.5341,-4.5392,0.0,0.0,0.0,0.0,0.0,0.0,0.0,0.0,0.0,0.0,0.0,0.0,0.0,0.0,0.0,0.0,0.0,0.0,0.0,0.0,-2.203,-2.2001,-2.3042,-2.496,-2.79,-2.9028,-2.9426,-2.8925,-2.9453,-2.998,-3.0457,-2.901,-2.8315,-2.8211,-2.7833,-2.7568,-2.7454,-2.7311,-2.787,-2.885,-2.875,-2.9076,-2.9528,-2.8499,0.0,0.0,0.0,0.0,0.0,0.0,0.0,0.0,-3.0007,0.0,-3.0104,-3.2911,-3.3751,-3.4471,0.0,0.0,0.0,0.0,0.0,0.0,0.0,0.0,0.0,0.0,0.0,0.0,0.0,0.0,0.0,0.0,0.0,0.0,0.0,0.0,0.0,0.0,0.0,0.0,0.0,0.0,0.0,0.0,0.0,0.0,0.0,0.0,0.0,-6.0015,-5.7127,-5.5181,-5.4295,-5.2106,-5.0676,-4.9999,-4.9864,-4.9492,-4.8917,-4.9073,-4.9161,-4.9154,-4.9067,-4.8972,-4.8904,-4.8781,-4.8849,-4.8759,-4.7769,-4.6903,-4.6103,-4.5142,-4.4173,-4.3599,0.0,0.0,0.0,0.0,0.0,0.0,0.0,0.0,0.0,0.0,0.0,0.0,0.0,0.0,0.0,0.0,0.0,0.0,0.0,0.0,-2.266,-2.2959,-2.395,-2.5247,-2.6789,-2.7947,-2.8578,-2.8925,-2.9051,-2.9176,-2.9302,-2.982,-2.9866,-2.9468,-2.9776,-2.9406,-2.8449,-2.7232,-2.7254,-2.8197,-2.7344,-2.7595,-2.8448,-2.8197,-2.7846,0.0,0.0,0.0,0.0,0.0,0.0,0.0,-3.0677,-3.1368,-3.1982,-3.3203,-3.4314,-3.5827,0.0,0.0,0.0,0.0,0.0,0.0,0.0,0.0,0.0,0.0,0.0,0.0,0.0,0.0,0.0,0.0,0.0,0.0,0.0,0.0,0.0,0.0,0.0,0.0,0.0,0.0,0.0,0.0,0.0,0.0,0.0,0.0,0.0,-5.5974,-5.4147,-5.2459,-5.1094,-5.0023,-4.939,0.0,-4.8071,-4.7733,-4.8173,-4.9868,-5.0628,-5.0517,-4.9373,-4.8596,-4.8023,-4.752,-4.7631,-4.7956,-4.6289,-4.5832,-4.6024,-4.4863,-4.4238,-4.4227,0.0,0.0,0.0,0.0,0.0,0.0,0.0,0.0,0.0,0.0,0.0,0.0,0.0,0.0,0.0,0.0,0.0,0.0,0.0,0.0,0.0,0.0,-2.5109,-2.613,-2.7197,-2.7528,-2.7956,-2.8524,-2.8524,0.0,0.0,0.0,0.0,-2.9804,-3.0105,-2.9453,-2.8072,-2.7218,-2.7042,-2.7293,-2.6967,-2.7344,-2.8047,-2.7519,-2.7143,-2.6841,-2.6565,0.0,0.0,0.0,0.0,0.0,0.0,0.0,-3.2315,-3.3974,-3.4987,-3.6384,0.0,0.0,0.0,0.0,0.0,0.0,0.0,0.0,0.0,0.0,0.0,0.0,0.0,0.0,0.0,0.0,0.0,0.0,0.0,0.0,0.0,0.0,0.0,0.0,0.0,0.0,0.0,0.0,0.0,0.0,0.0,-5.5263,-5.3824,-5.3098,-5.1916,-5.0598,-4.9052,-4.9018,-4.8646,-4.7936,-4.753,-4.7505,-4.7877,-4.8674,-4.899,-4.8977,-4.8204,-4.7695,-4.7261,-4.6927,-4.681,-4.6658,-4.5497,-4.5094,-4.4903,-4.4092,-4.3838,-4.3928,0.0,0.0,0.0,0.0,0.0,0.0,0.0,0.0,0.0,0.0,0.0,0.0,0.0,0.0,0.0,0.0,0.0,0.0,0.0,0.0,0.0,0.0,-2.5891,-2.6862,-2.8084,-2.7584,-2.7593,0.0,0.0,0.0,0.0,0.0,0.0,-2.993,0.0,-2.9001,-2.7419,-2.7218,-2.6892,-2.6559,-2.705,-2.741,-2.757,-2.6985,-2.6646,-2.6358,-2.6008,-2.6622,-2.7839,-2.8711,0.0,0.0,0.0,0.0,-3.2392,-3.4775,-3.5597,-3.6646,0.0,0.0,0.0,0.0,0.0,0.0,0.0,0.0,0.0,0.0,0.0,0.0,0.0,0.0,0.0,0.0,0.0,0.0,0.0,0.0,0.0,0.0,0.0,0.0,0.0,0.0,0.0,0.0,0.0,0.0,-5.4378,-5.2741,-5.1543,-5.0921,-4.9998,-4.8951,-4.7733,-4.8206,-4.7868,-4.6786,-4.7293,-4.7442,-4.7237,-4.6499,-4.6336,-4.6612,-4.6472,-4.6346,-4.621,-4.606,-4.5745,-4.5299,-4.4677,-4.426,-4.3747,-4.3331,-4.324,-4.3419,0.0,0.0,0.0,0.0,0.0,0.0,0.0,0.0,0.0,0.0,0.0,0.0,0.0,0.0,0.0,0.0,0.0,0.0,0.0,0.0,0.0,0.0,-2.5688,-2.6497,-2.8084,-2.7584,-2.7762,0.0,0.0,0.0,0.0,0.0,0.0,-3.0507,0.0,0.0,-2.7921,-2.6967,-2.6609,-2.6552,-2.683,-2.6503,-2.6047,-2.7344,-2.7033,-2.608,-2.6593,-2.7251,-2.7927,-2.8958,-3.0075,0.0,0.0,0.0,-3.3496,-3.4968,-3.583,-3.7067,0.0,0.0,0.0,0.0,0.0,0.0,0.0,0.0,0.0,0.0,0.0,0.0,0.0,0.0,0.0,0.0,0.0,0.0,0.0,0.0,0.0,0.0,0.0,0.0,0.0,0.0,0.0,0.0,0.0,0.0,-5.2729,-5.0643,-4.9406,-4.9304,-4.7962,-4.7124,-4.6955,-4.6413,-4.6346,-4.6786,-4.6244,-4.5659,-4.4992,-4.4236,-4.4565,-4.5736,-4.5158,-4.4485,-4.3821,-4.3074,-4.3509,-4.4384,-4.2758,-4.2878,-4.3685,-4.2817,-4.2851,-4.3329,0.0,0.0,0.0,0.0,0.0,0.0,0.0,0.0,0.0,0.0,0.0,0.0,0.0,0.0,0.0,0.0,0.0,0.0,0.0,0.0,0.0,-2.6039,-2.6099,-2.6759,-2.8096,-2.6956,0.0,0.0,0.0,0.0,0.0,-3.219,-3.215,0.0,0.0,0.0,0.0,-2.8221,-2.7732,-2.7919,-2.7651,-2.7749,-2.7984,-2.723,-2.7105,-2.7108,-2.6695,-2.7199,-2.8251,-2.8966,-3.0388,-3.1942,-3.2374,0.0,0.0,0.0,-3.6069,0.0,0.0,0.0,0.0,0.0,0.0,0.0,0.0,0.0,0.0,0.0,0.0,0.0,0.0,0.0,0.0,0.0,0.0,0.0,0.0,0.0,0.0,0.0,0.0,0.0,0.0,0.0,0.0,0.0,0.0,-5.053,-4.9316,-4.8345,-4.7564,-4.7158,-4.6921,-4.638,-4.5568,-4.6075,-4.6278,-4.6177,-4.4993,-4.4248,-4.391,-4.3132,-4.3382,-4.4331,-4.3634,-4.3098,-4.274,-4.2327,-4.2266,-4.2425,-4.1915,-4.1761,-4.1967,-4.2303,-4.2551,-4.2851,0.0,0.0,0.0,0.0,0.0,0.0,0.0,0.0,0.0,0.0,0.0,0.0,0.0,0.0,0.0,0.0,0.0,0.0,0.0,0.0,0.0,-2.6189,-2.6431,-2.6993,-2.8097,-2.6578,0.0,0.0,0.0,0.0,-3.3753,-3.3652,-3.4041,0.0,-3.3049,0.0,0.0,0.0,0.0,0.0,0.0,0.0,0.0,0.0,0.0,-2.842,-2.7627,-2.8018,-2.8971,-2.9355,-3.0822,-3.2482,-3.2482,-3.3451,0.0,0.0,0.0,0.0,0.0,0.0,0.0,0.0,0.0,0.0,0.0,0.0,0.0,0.0,0.0,0.0,0.0,0.0,0.0,0.0,0.0,0.0,0.0,0.0,0.0,0.0,0.0,0.0,0.0,0.0,0.0,0.0,0.0,-4.7957,-4.6878,-4.6616,-4.6278,-4.5737,-4.5838,-4.5399,-4.4282,-4.5196,-4.5365,-4.4823,-4.3673,-4.3132,-4.3098,-4.2159,-4.2017,-4.2522,-4.195,-4.1816,-4.1909,-4.1442,-4.108,-4.0895,-4.1024,-4.08,-4.0546,-4.1683,-4.2222,-4.2462,0.0,0.0,0.0,0.0,0.0,0.0,0.0,0.0,0.0,0.0,0.0,0.0,-2.8584,-2.8437,-2.7821,-2.6615,0.0,0.0,0.0,0.0,0.0,-2.5561,-2.6214,0.0,-2.8072,0.0,0.0,0.0,0.0,0.0,-3.4238,-3.4286,-3.6188,-3.9463,-3.7786,-3.5764,-3.3595,0.0,0.0,0.0,0.0,0.0,0.0,0.0,0.0,0.0,0.0,-3.0329,-3.0384,-3.0322,-3.1302,-3.2517,-3.2426,-3.3361,-3.449,0.0,0.0,0.0,0.0,0.0,0.0,0.0,0.0,0.0,0.0,0.0,0.0,0.0,0.0,0.0,0.0,0.0,0.0,0.0,0.0,0.0,0.0,0.0,0.0,0.0,0.0,0.0,0.0,0.0,0.0,0.0,0.0,-4.6878,-4.6786,-4.6143,-4.5737,-4.5703,-4.435,-4.3572,-4.347,-4.2861,-4.2489,-4.2455,-4.2388,-4.2354,-4.232,-4.0867,-4.0238,-4.0271,-4.0205,-4.0512,-4.0968,-3.9439,-3.9548,-4.0659,-3.9839,-3.9858,-4.0487,-4.1175,-4.1833,-4.2462,0.0,0.0,0.0,0.0,0.0,0.0,0.0,0.0,0.0,0.0,0.0,0.0,0.0,-2.8812,-2.8355,-2.7883,-2.5906,0.0,0.0,0.0,0.0,-2.5536,-2.649,-2.7017,-2.7042,0.0,0.0,0.0,0.0,-2.8595,-3.309,-3.3561,-3.5252,-3.7709,-3.6585,-3.613,-3.6116,-3.3476,0.0,0.0,0.0,0.0,0.0,0.0,0.0,0.0,0.0,0.0,0.0,0.0,-3.264,-3.3694,-3.3182,-3.3725,-3.4364,-3.3628,-3.4017,0.0,0.0,0.0,0.0,0.0,0.0,0.0,0.0,0.0,0.0,0.0,0.0,0.0,0.0,0.0,0.0,0.0,0.0,0.0,0.0,0.0,0.0,0.0,0.0,0.0,0.0,0.0,0.0,0.0,0.0,0.0,-4.391,-4.3639,-4.3741,-4.4215,-4.3234,-4.2692,-4.2692,-4.2422,-4.2286,-4.2286,-4.1813,-4.1576,-4.1576,-3.9993,-3.9303,-3.9249,-3.8258,-3.8243,-3.8914,-3.8685,-3.892,-3.938,-3.9405,-3.9559,-3.9888,-4.0995,-4.1534,-4.1893,0.0,0.0,0.0,0.0,0.0,0.0,0.0,0.0,0.0,-2.7516,0.0,0.0,0.0,0.0,-2.8839,-2.7939,-2.6274,-2.4904,-2.4041,-2.4004,-2.4481,-2.5536,-2.6515,-2.6841,-2.6533,0.0,0.0,0.0,0.0,0.0,0.0,-3.2731,-3.4352,-3.641,-3.4992,-3.5583,0.0,0.0,0.0,-3.4262,0.0,0.0,-3.2617,0.0,0.0,0.0,0.0,0.0,0.0,0.0,0.0,0.0,-3.2882,-3.2983,-3.327,-3.2608,-3.3031,0.0,0.0,0.0,0.0,0.0,0.0,0.0,0.0,0.0,0.0,0.0,0.0,0.0,0.0,0.0,0.0,0.0,0.0,0.0,0.0,0.0,0.0,0.0,0.0,0.0,0.0,0.0,0.0,0.0,0.0,0.0,-4.2286,-4.2286,-4.2422,-4.2658,-4.2185,-4.1813,-4.1542,-4.1542,-4.1542,-4.1542,-4.1068,-4.0695,-4.04,-3.9084,-3.8414,-3.8044,-3.6783,-3.6816,-3.7765,-3.8083,-3.8305,-3.8574,-3.9174,-3.9409,-3.9589,-4.0905,-4.1384,-4.1564,0.0,0.0,0.0,0.0,0.0,0.0,0.0,0.0,-2.8389,-2.769,0.0,0.0,0.0,0.0,0.0,-2.6692,-2.5679,-2.4866,-2.4117,-2.4054,-2.4531,-2.5561,0.0,0.0,0.0,0.0,0.0,0.0,0.0,0.0,0.0,0.0,-3.3814,-3.6207,-3.3664,-3.42,-3.7157,0.0,-3.6896,-3.6118,0.0,-3.2287,-3.3455,0.0,0.0,0.0,-3.5061,-3.4961,0.0,-3.2866,0.0,0.0,0.0,0.0,-3.119,-3.119,0.0,0.0,0.0,0.0,0.0,0.0,0.0,0.0,0.0,0.0,0.0,0.0,0.0,0.0,0.0,0.0,0.0,0.0,0.0,0.0,0.0,0.0,0.0,0.0,0.0,0.0,0.0,0.0,0.0,0.0,0.0,-4.2219,-4.2219,-4.2252,-4.1914,-4.1204,-4.1204,-4.0832,-4.0087,-4.0087,-4.0087,-4.0087,-4.0087,-3.9662,-3.8908,-3.8133,-3.7381,-3.66,-3.591,-3.6307,-3.759,-3.7443,-3.7793,-3.8452,-3.914,-3.9409,-3.9589,-4.0905,-4.1384,-4.1564,0.0,0.0,0.0,0.0,0.0,0.0,-3.0714,-3.0308,-2.9974,0.0,0.0,0.0,-3.0132,-3.0273,-2.9907,-2.8419,-2.7721,-2.689,-2.587,-2.5385,-2.546,-2.6189,-2.6766,-2.6866,0.0,0.0,0.0,0.0,0.0,0.0,0.0,0.0,0.0,0.0,-3.1808,-3.1948,-3.2328,-3.2377,0.0,0.0,-3.124,-3.118,0.0,0.0,0.0,0.0,0.0,-3.3576,-3.3868,0.0,-3.5048,-3.5276,0.0,0.0,0.0,0.0,0.0,0.0,-3.163,0.0,0.0,0.0,0.0,0.0,0.0,0.0,0.0,0.0,0.0,0.0,0.0,0.0,0.0,0.0,0.0,0.0,0.0,0.0,0.0,0.0,0.0,0.0,0.0,0.0,0.0,0.0,-4.1001,-4.0696,-4.0696,-4.1204,-4.117,-4.0426,-4.0933,-4.0832,-4.0087,-4.0087,-4.0087,-4.0087,-4.0087,-3.9952,-3.9714,-3.8962,-3.8469,-3.8213,-3.744,-3.7389,-3.7701,-3.7496,-3.7793,-3.8452,-3.914,-3.9409,-3.9589,-4.0905,-4.1384,-4.1716,0.0,0.0,0.0,0.0,0.0,-3.3315,-3.3279,-3.295,-3.2652,0.0,0.0,0.0,-3.232,-3.1893,-3.1157,-2.9887,-2.894,-2.7999,-2.6905,-2.6264,-2.6113,-2.6508,-2.7218,-2.7369,-2.6816,0.0,0.0,0.0,0.0,0.0,0.0,0.0,0.0,0.0,0.0,0.0,0.0,0.0,0.0,0.0,-3.1006,0.0,0.0,-3.1749,-3.2048,0.0,0.0,0.0,-3.4763,-3.5059,-3.5415,0.0,0.0,0.0,0.0,0.0,0.0,0.0,0.0,0.0,0.0,0.0,0.0,0.0,-3.4275,-3.4331,0.0,0.0,0.0,0.0,0.0,0.0,0.0,0.0,0.0,0.0,0.0,0.0,0.0,0.0,0.0,0.0,0.0,0.0,0.0,-4.0764,-4.0324,-4.0087,-4.0087,-4.0493,-4.0527,-4.0087,-4.0493,-4.0527,-4.0087,-4.0087,-4.0087,-4.0087,-4.0087,-3.9901,-3.961,-3.9069,-3.8745,-3.8414,-3.7994,-3.8142,-3.869,-3.8496,-3.8463,-3.8516,-3.9163,-3.9409,-3.9589,-4.0905,-4.1656,-4.2254,0.0,0.0,0.0,-3.582,-3.5862,-3.5905,-3.5858,-3.5794,-3.563,0.0,-3.5392,-3.5518,-3.4984,-3.4182,-3.2936,-3.1299,-2.9781,-2.8549,-2.7652,-2.6861,-2.6533,-2.6533,-2.7586,-2.7889,-2.7334,-2.908,0.0,0.0,0.0,0.0,0.0,0.0,0.0,0.0,0.0,0.0,0.0,0.0,0.0,-3.0881,-3.1073,-3.2467,0.0,0.0,-3.4233,-3.5434,-3.6073,-3.6353,-3.6198,-3.509,-3.4584,0.0,0.0,0.0,0.0,0.0,-3.278,0.0,0.0,0.0,0.0,0.0,0.0,0.0,-3.2652,-3.2475,0.0,0.0,0.0,0.0,0.0,0.0,0.0,0.0,0.0,0.0,0.0,0.0,0.0,0.0,0.0,0.0,0.0,-4.0696,-4.0798,-4.0121,-4.0087,-4.0087,-4.0087,-4.0087,-4.0087,-4.0087,-4.0087,-4.0087,-4.0087,-4.0087,-4.0087,-4.0087,-4.0087,-3.9714,-3.9016,-3.9016,-3.869,-3.8051,-3.8051,-3.876,-3.9919,-3.9987,-3.9628,-3.9017,-3.9425,-3.9553,-3.9703,-4.095,-4.1997,-4.2993,0.0,0.0,-3.6596,-3.725,-3.6933,-3.6589,-3.6625,-3.6587,-3.6521,-3.6389,-3.6463,-3.6719,-3.7102,-3.6006,-3.4722,-3.3485,-3.1646,-3.0161,-2.9153,-2.748,-2.6533,-2.6533,-2.7808,-2.8297,-2.7654,-3.0331,-3.0763,0.0,0.0,0.0,0.0,0.0,0.0,0.0,0.0,0.0,0.0,0.0,0.0,-2.7451,-2.8569,0.0,-3.3604,-3.2946,-3.3514,-3.4745,-3.4841,-3.5266,-3.5755,-3.6071,-3.508,-3.3776,0.0,0.0,0.0,-3.2983,0.0,0.0,0.0,0.0,0.0,0.0,0.0,0.0,-3.2045,-3.1629,-3.1454,0.0,0.0,0.0,0.0,0.0,0.0,0.0,0.0,0.0,0.0,0.0,0.0,0.0,0.0,0.0,0.0,-4.0223,-4.0223,-4.0087,-4.0087,-4.0087,-4.0087,-4.0087,-4.0087,-4.0087,-4.0087,-4.0087,-4.0087,-4.0087,-4.0087,-4.0087,-4.0087,-4.0003,-3.985,-3.985,-3.9799,-3.9662,-3.9662,-3.9778,-4.0093,-4.0621,-4.097,-4.1309,-4.0665,-4.0447,-4.0532,-4.1173,-4.1997,-4.3065,0.0,0.0,-3.7873,-3.8302,-3.8395,-3.8434,-3.8434,-3.8151,-3.802,0.0,0.0,-3.7859,-3.7809,-3.678,-3.5523,-3.409,-3.2815,-3.1534,-3.0214,-2.8591,-2.7446,-2.7121,-2.8088,-2.8581,-2.8607,-3.0583,-3.1157,-3.0208,0.0,0.0,0.0,0.0,0.0,0.0,0.0,0.0,0.0,0.0,-2.6326,-2.7513,-2.8799,0.0,-3.2557,-3.2886,-3.3604,-3.4472,-3.4472,-3.4482,-3.4485,-3.4475,-3.4813,0.0,0.0,-3.4785,-3.5419,0.0,-3.3964,-3.3964,0.0,0.0,0.0,-3.4032,0.0,0.0,0.0,-3.0188,-2.9358,0.0,0.0,0.0,0.0,0.0,0.0,0.0,0.0,0.0,0.0,0.0,0.0,0.0,0.0,0.0,0.0,-3.9309,-3.9681,-4.0054,-4.0087,-4.0087,-4.0087,-4.0087,-4.0087,-4.0087,-4.0087,-4.0087,-4.0087,-4.0087,-4.0087,-4.0087,-4.0087,-4.0087,-4.0087,-4.0087,-4.0087,-4.0087,-4.0087,-4.0493,-4.1238,-4.1519,-4.2318,-4.3136,-4.1396,-4.0876,-4.1341,-4.1893,-4.3207,-4.4902,-3.6621,0.0,0.0,-3.8739,-3.9495,-4.002,-3.9884,-3.9478,0.0,0.0,0.0,0.0,0.0,0.0,0.0,0.0,-3.3512,-3.2491,-3.1662,-2.9686,-2.8319,-2.7774,-2.8585,-2.9027,-2.908,-3.0559,-3.117,-3.0794,0.0,0.0,0.0,0.0,0.0,0.0,0.0,0.0,0.0,0.0,0.0,-2.8511,0.0,-3.0748,-3.1839,-3.2916,-3.3724,-3.4292,-3.4292,-3.391,-3.3218,-3.2762,-3.4194,-3.5836,-3.3776,-3.5409,0.0,0.0,0.0,0.0,0.0,0.0,0.0,0.0,0.0,-3.2741,0.0,0.0,0.0,0.0,0.0,0.0,0.0,0.0,0.0,0.0,0.0,0.0,0.0,0.0,0.0,0.0,0.0,0.0,0.0,-3.8531,-3.9039,-3.9614,-3.9783,-3.9884,-3.9884,-3.9986,-4.0087,-4.0087,-4.0087,-4.0087,-4.0087,-4.0087,-4.0087,-4.0087,-4.0087,-4.0087,-4.0087,-4.0087,-4.0087,-4.0087,-3.9952,-4.0523,-4.1634,-4.1991,-4.2723,-4.3547,-4.1885,-4.1543,-4.214,-4.2622,-4.4317,-4.6451,-3.6711,-3.79,0.0,0.0,-3.9158,-3.9851,-3.9208,-3.958,0.0,0.0,0.0,0.0,0.0,0.0,0.0,0.0,0.0,0.0,-3.456,0.0,-2.8036,-2.7954,-2.9848,-2.9822,-2.757,-3.072,-3.1485,-2.9784,0.0,0.0,0.0,0.0,0.0,0.0,-2.5759,0.0,0.0,0.0,-2.6973,0.0,-2.9145,-3.0602,0.0,-3.2557,-3.3036,-3.3604,-3.3604,-3.3186,-3.2706,0.0,-3.3628,-3.4022,0.0,-3.5175,-3.5199,-3.6262,0.0,0.0,0.0,0.0,0.0,0.0,-3.5003,0.0,0.0,0.0,0.0,0.0,0.0,0.0,0.0,0.0,0.0,0.0,0.0,0.0,0.0,0.0,0.0,0.0,0.0,0.0,0.0,0.0,-3.8058,-3.8159,-3.8768,-3.9106,-3.9106,-3.9715,-4.0087,-4.0087,-4.0087,-4.0087,-4.0087,-4.0087,-4.0087,-4.0087,-4.0087,-4.0087,-4.0087,-4.0087,-4.0087,-4.0087,-3.9368,-3.9115,-3.9379,-4.0756,-4.0983,-4.0619,-4.2341,-4.3019,-4.3121,-4.304,-4.414,-4.5692,-3.7318,-3.7886,0.0,0.0,0.0,-3.9343,-3.9039,-3.9986,0.0,0.0,0.0,0.0,0.0,0.0,0.0,0.0,0.0,-3.5001,0.0,0.0,0.0,-3.046,-3.095,-3.0672,-2.9606,-3.1091,-3.1439,-3.064,-3.0238,0.0,0.0,0.0,0.0,0.0,-2.6505,0.0,-2.7436,0.0,0.0,0.0,0.0,0.0,0.0,-3.1779,-3.2347,-3.2886,-3.2497,-3.2168,-3.1869,0.0,-3.2322,0.0,0.0,0.0,0.0,0.0,0.0,0.0,0.0,0.0,0.0,0.0,0.0,0.0,-3.1431,0.0,-3.147,0.0,0.0,0.0,0.0,0.0,0.0,0.0,0.0,0.0,0.0,0.0,0.0,0.0,0.0,0.0,0.0,0.0,0.0,0.0,-3.7686,-3.8159,-3.7719,-3.8396,-3.9005,-3.9445,-3.9445,-3.9648,-4.0087,-4.0087,-4.0087,-4.0087,-4.0087,-4.0087,-4.0087,-4.0087,-3.985,-3.9368,-3.9016,-3.8919,-3.904,-4.0573,-4.1231,-4.1455,-4.334,-4.4005,-4.3948,-4.384,-4.4867,-4.634,-3.7178,0.0,0.0,0.0,0.0,0.0,0.0,0.0,0.0,0.0,0.0,0.0,-3.8964,-3.8348,0.0,0.0,-3.8362,-3.7434,0.0,0.0,-3.3176,0.0,0.0,0.0,0.0,-3.1497,-3.1509,-3.1134,-3.0466,0.0,0.0,0.0,0.0,0.0,0.0,-2.7819,-2.8332,0.0,0.0,-2.9592,-3.0045,-3.0117,-3.0043,-3.0731,-3.13,-3.1659,-3.118,-3.1001,-3.0881,-3.0103,-3.1409,0.0,-3.3878,0.0,0.0,0.0,0.0,0.0,-3.6366,0.0,0.0,0.0,0.0,0.0,0.0,0.0,0.0,0.0,0.0,0.0,0.0,0.0,0.0,0.0,0.0,0.0,0.0,0.0,0.0,0.0,0.0,0.0,0.0,0.0,0.0,-3.5318,-3.6332,-3.6806,-3.6468,-3.7178,-3.8024,-3.8971,-3.8802,-3.914,-4.0054,-3.9884,-3.9884,-4.0087,-4.0087,-4.0087,-4.0087,-3.9901,-3.942,-3.8854,-3.8437,-3.8277,-3.8412,-3.9917,-4.0983,-4.1822,-4.3574,-4.4347,-4.4444,-4.4444,-4.5436,-4.6887,-3.569,-3.6907,0.0,0.0,0.0,0.0,0.0,0.0,0.0,0.0,0.0,0.0,0.0,0.0,0.0,0.0,0.0,-3.8901,-4.0157,0.0,-3.388,0.0,0.0,-3.3333,0.0,0.0,-3.1919,-3.0541,0.0,0.0,0.0,0.0,0.0,0.0,0.0,-3.0334,-3.0196,-3.1086,-3.0637,-2.9335,-2.9465,-2.9175,-2.8727,0.0,-2.9654,-2.9684,-2.9654,0.0,0.0,-3.0283,-3.1445,0.0,0.0,0.0,0.0,0.0,0.0,0.0,0.0,0.0,0.0,-3.5476,0.0,0.0,0.0,0.0,-3.4263,0.0,0.0,0.0,0.0,0.0,0.0,0.0,0.0,0.0,0.0,0.0,0.0,0.0,0.0,0.0,0.0,0.0,0.0,-3.4539,-3.4573,-3.4912,-3.5622,-3.64,-3.7483,-3.8937,-3.8294,-3.8633,-4.0054,-3.9377,-3.9377,-4.0087,-4.0087,-4.0087,-4.0087,-3.9315,-3.8908,-3.8799,-3.7291,-3.6661,-3.6815,-3.8321,-3.9381,-4.0328,-4.2545,-4.391,-4.4621,-4.4621,-4.5534,-4.6786,0.0,0.0,0.0,0.0,0.0,0.0,0.0,-3.9964,0.0,0.0,0.0,0.0,0.0,-4.241,-4.2462,0.0,0.0,-4.1746,-4.1954,-3.9849,0.0,0.0,0.0,-3.643,0.0,0.0,0.0,0.0,0.0,0.0,0.0,0.0,0.0,0.0,0.0,-3.0162,0.0,0.0,0.0,0.0,0.0,-2.9682,-2.9961,0.0,0.0,-2.9535,-2.9086,-2.9205,0.0,-2.9325,-3.0137,-3.1467,-3.2902,-3.3405,-3.3749,-3.516,-3.5453,0.0,0.0,0.0,-3.6523,-3.5564,0.0,0.0,0.0,0.0,0.0,0.0,0.0,0.0,0.0,0.0,0.0,0.0,0.0,0.0,0.0,0.0,0.0,0.0,0.0,0.0,0.0,0.0,0.0,-3.2341,-3.2747,-3.3152,-3.3389,-3.4573,-3.5723,-3.6738,-3.7009,-3.7652,-3.8633,-3.887,-3.9106,-3.9377,-3.9851,-3.985,-3.9315,-3.9016,-3.8325,-3.735,-3.6843,-3.6322,-3.6067,-3.8081,-3.9349,-4.0236,-4.2512,-4.391,-4.4587,-4.4587,-4.4891,-4.5466,-3.6772,0.0,0.0,0.0,0.0,0.0,0.0,0.0,0.0,0.0,-4.2944,0.0,-4.5761,0.0,-4.511,0.0,-4.5725,-4.4984,-4.3772,-4.2868,0.0,-4.0092,-3.9859,0.0,0.0,0.0,0.0,0.0,0.0,-3.3795,0.0,0.0,0.0,0.0,0.0,0.0,0.0,0.0,-2.9924,0.0,0.0,-2.9532,0.0,0.0,-2.9745,-2.9841,0.0,-2.8643,-2.9182,-2.9,-2.9763,-3.1021,-3.216,-3.2826,-3.3373,-3.4476,-3.4844,-3.5047,-3.5757,-3.5994,0.0,-3.569,-3.5825,0.0,-3.4472,0.0,0.0,0.0,0.0,0.0,0.0,0.0,0.0,0.0,0.0,0.0,0.0,-3.2104,0.0,0.0,0.0,0.0,0.0,0.0,-3.2374,-3.163,-3.1765,-3.2002,0.0,0.0,-3.4573,-3.5588,-3.6096,-3.6874,-3.7889,-3.8362,-3.8734,-3.9005,-3.9429,-3.9368,-3.8854,-3.8325,-3.7526,-3.66,-3.6322,-3.6102,-3.6037,-3.7768,-3.9114,-4.0203,-4.1954,-4.3267,-4.4215,-4.4485,-4.4756,-4.5162,0.0,0.0,0.0,0.0,-3.7449,0.0,0.0,0.0,-4.3127,0.0,-4.4401,-4.5962,-4.6588,-4.7187,-4.8047,-4.932,-4.9416,-4.8231,-4.5608,-4.5387,0.0,0.0,-4.0998,-4.0646,-3.914,0.0,0.0,0.0,0.0,0.0,0.0,0.0,0.0,0.0,-3.41,0.0,-2.9197,-3.207,-3.0838,-2.706,-2.7975,-2.8874,-2.9547,-2.9438,-2.999,-3.051,-2.8414,-2.8008,-2.8604,-2.9206,-3.0305,-3.1473,-3.2142,-3.3317,-3.4269,-3.366,-3.4472,-3.5419,-3.4675,-3.5554,-3.6468,-3.569,0.0,0.0,0.0,0.0,-3.6569,0.0,0.0,0.0,0.0,0.0,0.0,0.0,0.0,0.0,0.0,0.0,0.0,0.0,0.0,0.0,0.0,-3.2947,-3.2983,-3.2313,-3.1562,-3.1461,0.0,0.0,-3.4066,-3.5453,-3.5588,-3.6332,-3.7855,-3.7841,-3.8212,-3.8956,-3.8877,-3.8854,-3.8745,-3.7291,-3.66,-3.6538,-3.5846,-3.5943,-3.6722,-3.7499,-3.8756,-4.0139,-4.0908,-4.2117,-4.3504,-4.4282,-4.5026,-4.5737,-3.7618,-3.8058,-3.843,0.0,-3.8125,-3.8328,0.0,0.0,0.0,0.0,-4.675,-4.7874,-5.0216,-4.9992,-4.9725,-5.0077,-4.9629,0.0,0.0,0.0,0.0,-4.4337,-4.3956,-4.2766,-4.0696,-4.1001,0.0,-3.8125,0.0,0.0,-3.5284,0.0,0.0,0.0,0.0,0.0,-2.913,-3.0987,-3.0235,-2.7892,-2.9255,-3.0555,0.0,0.0,-3.05,-3.1718,-2.9169,-2.8367,-2.8542,-2.8728,-2.9571,-3.0705,-3.1429,-3.2226,-3.3017,-3.3931,-3.4472,-3.4742,-3.4539,-3.4776,-3.4912,-3.4167,-3.4539,-3.5047,0.0,0.0,0.0,0.0,0.0,0.0,0.0,0.0,0.0,0.0,0.0,0.0,0.0,0.0,0.0,-3.2983,0.0,0.0,0.0,-3.1989,-3.1698,-3.1495,-3.0784,-3.0717,0.0,0.0,0.0,-3.3964,-3.5047,-3.6096,-3.7043,-3.7068,-3.7367,-3.8096,-3.8089,-3.779,-3.7172,-3.6783,-3.66,-3.66,-3.6384,-3.6753,-3.7557,-3.8302,-3.9171,-4.0139,-4.0908,-4.2117,-4.3504,-4.4282,-4.4688,-4.4959,-3.7956,0.0,0.0,-3.9478,0.0,0.0,-4.1373,0.0,0.0,-4.6963,-4.8063,0.0,-5.0958,-5.1206,-5.1211,-5.1211,-5.0555,0.0,-4.946,0.0,0.0,-4.5805,-4.4993,-4.3673,-4.1711,-4.0832,0.0,-3.8531,0.0,0.0,-3.5081,0.0,0.0,0.0,0.0,-3.2104,0.0,-3.048,-3.0258,-2.9515,-3.0016,0.0,0.0,-3.0648,-3.0761,-3.1353,-2.983,-2.9271,-2.9271,-2.9271,-2.9892,-3.0783,-3.1183,-3.1799,-3.2442,-3.3288,-3.3761,-3.4032,-3.4032,-3.4032,-3.3931,-3.3525,-3.3728,-3.4032,-3.4032,-3.4945,-3.5656,0.0,0.0,0.0,0.0,0.0,0.0,0.0,0.0,0.0,0.0,0.0,0.0,0.0,-3.2645,0.0,0.0,-3.1732,-3.1529,-3.1224,-3.1089,0.0,0.0,0.0,0.0,-3.3423,-3.5182,-3.6332,-3.6772,-3.7037,-3.7406,-3.7801,-3.7438,-3.7024,-3.66,-3.66,-3.66,-3.66,-3.6964,-3.7557,-3.8302,-3.8745,-3.9388,-4.0207,-4.1249,-4.2185,-4.3064,-4.4181,-4.4587,-4.4654,0.0,0.0,0.0,0.0,0.0,0.0,0.0,-4.3809,0.0,-4.6786,0.0,-5.0236,-5.0236,-5.1386,-5.2164,-5.2164,0.0,-5.0473,-4.9086,-4.9424,-4.8477,-4.5838,-4.4891,-4.3741,-4.232,-3.9512,-3.8058,0.0,0.0,-3.4506,-3.4472,0.0,0.0,0.0,0.0,0.0,0.0,-3.0412,-3.048,0.0,-3.048,-3.0649,-3.119,-3.119,-3.0878,-3.0435,-3.0435,-3.0393,-3.0309,-3.0309,-3.0716,-3.119,-3.119,-3.1698,-3.2313,-3.2313,-3.2814,-3.3389,-3.3288,-3.3254,-3.322,-3.3152,-3.3186,-3.3254,-3.3254,-3.3897,-3.4549,-3.4558,-3.5125,-3.5419,0.0,0.0,0.0,0.0,0.0,0.0,0.0,0.0,0.0,0.0,0.0,0.0,0.0,0.0,-3.1968,-3.1258,-3.1765,0.0,0.0,0.0,0.0,-3.3423,-3.5419,-3.6637,-3.6907,0.0,-3.7662,-3.7933,-3.692,-3.6569,-3.6722,-3.6661,-3.6722,-3.6964,-3.7616,-3.8358,-3.9069,-3.9069,-3.9473,-4.0223,-4.161,-4.2185,-4.2455,-4.391,-4.4485,-4.4587,0.0,0.0,0.0,0.0,0.0,-4.2963,-4.4993,-4.5805,-4.6786,-4.8409,-5.0033,-5.1014,-5.1014,-5.1251,-5.142,-5.142,-5.071,0.0,0.0,0.0,0.0,-4.5771,-4.4384,-4.32,-4.232,-3.9986,-3.8802,0.0,-3.5893,-3.4506,-3.4472,0.0,0.0,0.0,0.0,0.0,-3.1157,-3.0412,0.0,-3.0345,-3.0818,-3.1089,-3.119,-3.119,-3.1151,-3.1072,-3.1072,-3.0716,-3.0309,-3.0309,-3.0716,-3.119,-3.119,-3.1698,-3.2313,-3.2313,-3.2814,-3.3288,-3.2645,-3.2476,-3.2341,-3.1732,-3.2036,-3.2476,-3.2476,-3.3525,-3.4601,-3.507,-3.5395,-3.5688,-3.5993,0.0,0.0,0.0,0.0,0.0,0.0,0.0,0.0,0.0,0.0,-3.2611,0.0,0.0,0.0,0.0,0.0,0.0,0.0,0.0,0.0,0.0,-3.437,0.0,0.0,0.0,-3.6918,-3.8656,-3.663,-3.6352,-3.7589,-3.6904,-3.7291,-3.8492,-3.8635,-3.9156,-3.9901,-3.9901,-3.9952,-4.0155,-4.1035,-4.1745,-4.2388,-4.3301,-4.4045,-4.4587,0.0,0.0,0.0,0.0,0.0,0.0,0.0,-4.7462,0.0,-4.8409,-4.9052,-4.9492,-4.9492,-4.983,-5.0202,-5.0608,-4.9255,-4.8409,-4.8443,-4.7394,-4.6278,-4.5162,-4.4045,0.0,-4.1745,-3.9174,-3.8024,-3.843,-3.5013,-3.3525,-3.3897,0.0,0.0,0.0,0.0,-3.1935,0.0,0.0,0.0,-3.1224,-3.119,-3.119,-3.119,-3.119,-3.119,-3.119,-3.119,-3.0998,-3.0757,-3.0757,-3.0958,-3.119,-3.119,-3.1427,-3.1732,-3.1732,-3.1968,-3.2171,-3.1833,-3.1732,-3.163,-3.1292,-3.1461,-3.1732,-3.1732,-3.3093,-3.4438,-3.4683,-3.5415,-3.6079,-3.6333,-3.612,0.0,0.0,0.0,0.0,0.0,0.0,0.0,0.0,0.0,0.0,0.0,0.0,0.0,0.0,0.0,0.0,0.0,0.0,0.0,0.0,0.0,0.0,0.0,0.0,0.0,-3.8854,-3.7381,-3.7055,-3.7822,-3.779,-3.8213,-3.8908,-3.9315,-3.9714,-4.0087,-4.0087,-4.0087,-4.0189,-4.1339,-4.1982,-4.2422,-4.3606,-4.4248,-4.4587,0.0,-4.2422,0.0,0.0,-4.4925,0.0,-4.7293,-4.8342,-4.8849,-4.8443,-4.824,-4.8071,-4.7936,-4.8443,-4.8951,-4.9357,-4.78,-4.6921,-4.7192,-4.665,-4.5669,-4.4147,-4.3369,-4.2388,-4.1238,-3.8294,-3.7077,0.0,-3.4201,-3.2747,0.0,0.0,0.0,0.0,0.0,0.0,0.0,0.0,-3.1529,-3.2043,-3.1427,-3.119,-3.119,-3.119,-3.119,-3.119,-3.119,-3.119,-3.119,-3.119,-3.119,-3.119,-3.119,-3.119,-3.119,-3.119,-3.119,-3.119,-3.119,-3.119,-3.119,-3.119,-3.119,-3.1263,-3.1516,-3.2965,-3.4314,-3.4681,-3.5723,-3.6539,-3.6416,-3.6439,0.0,0.0,0.0,0.0,0.0,0.0,0.0,0.0,0.0,0.0,-3.1326,0.0,0.0,0.0,0.0,-3.1799,-3.1224,-3.2442,-3.3254,0.0,0.0,-3.6806,-3.7889,0.0,-3.8665,-3.9156,-3.8246,-3.7994,-3.8334,-3.869,-3.8962,-3.9209,-3.985,-4.0087,-4.0087,-4.0257,-4.0324,-4.046,-4.1779,-4.2388,-4.2658,-4.3876,-4.4451,-4.4587,0.0,0.0,0.0,0.0,0.0,0.0,0.0,-4.7665,-4.9221,-4.9796,-4.9323,-4.8646,-4.8003,-4.797,-4.7767,-4.7158,-4.6921,-4.6244,-4.4959,-4.4823,-4.4113,-4.2557,-4.1813,-4.1339,-4.1204,-3.8294,-3.6806,0.0,-3.4472,-3.2983,0.0,0.0,0.0,0.0,0.0,0.0,0.0,-3.1258,-3.1224,-3.1292,-3.1224,-3.119,-3.119,-3.119,-3.119,-3.119,-3.119,-3.119,-3.119,-3.119,-3.119,-3.119,-3.119,-3.119,-3.119,-3.119,-3.119,-3.119,-3.119,-3.119,-3.119,-3.119,-3.119,-3.1516,-3.2631,-3.3578,-3.4644,-3.6251,-3.6863,-3.6981,-3.6498,-3.7351,-3.8107,0.0,0.0,0.0,0.0,0.0,0.0,0.0,0.0,0.0,0.0,-3.1867,0.0,0.0,-3.1258,-3.1258,-3.119,-3.1935,-3.2713,-3.3389,0.0,-3.5723,-3.7889,-3.7236,-3.7934,-3.9952,-3.8502,-3.8557,-3.985,-3.9209,-3.9315,-4.0003,-4.0087,-4.0087,-4.0121,-4.0832,-4.1102,-4.117,-4.1982,-4.2726,-4.3335,-4.347,-4.3978,-4.4587,0.0,0.0,0.0,0.0,0.0,0.0,0.0,-4.709,-4.78,-4.8071,-4.824,-4.824,-4.7936,-4.7124,-4.665,-4.6786,-4.5534,-4.4722,-4.4587,-4.3707,-4.2726,-4.1677,-4.1373,-4.1001,-4.0527,-3.8497,-3.7246,0.0,0.0,0.0,0.0,0.0,0.0,0.0,0.0,-3.0784,-3.1157,-3.0717,-3.0784,-3.119,-3.119,-3.119,-3.119,-3.119,-3.119,-3.119,-3.119,-3.119,-3.119,-3.119,-3.119,-3.119,-3.119,-3.119,-3.119,-3.119,-3.119,-3.119,-3.119,-3.119,-3.119,-3.119,-3.119,-3.1336,-3.1842,-3.3341,-3.48,-3.5507,-3.6683,-3.747,-3.6981,-3.7534,-3.808,0.0,0.0,0.0,0.0,0.0,0.0,0.0,0.0,0.0,0.0,0.0,0.0,0.0,0.0,-3.119,-3.119,-3.1461,-3.2171,-3.3355,0.0,-3.5588,-3.7889,-3.8051,-3.8757,-4.0087,-3.9454,-3.9506,-4.0087,-3.9765,-3.9799,-4.0087,-4.0087,-4.0324,-4.0764,-4.1068,-4.1474,-4.1914,-4.2692,-4.3166,-4.347,-4.3944,-4.4316,-4.4587,-4.3606,0.0,-4.391,0.0,-4.5432,-4.55,-4.6346,-4.665,-4.6718,-4.6481,-4.6752,-4.7022,-4.7259,-4.6346,-4.5737,-4.5805,-4.435,-4.347,-4.3572,-4.2591,-4.1644,-4.0899,-4.0865,0.0,-3.9783,-3.8531,-3.7415,-3.6434,-3.5148,0.0,0.0,0.0,0.0,0.0,-3.0649,-3.0717,-3.1157,-3.0649,-3.0717,-3.119,-3.119,-3.119,-3.119,-3.119,-3.119,-3.119,-3.119,-3.119,-3.119,-3.119,-3.119,-3.119,-3.119,-3.119,-3.119,-3.119,-3.119,-3.119,-3.119,-3.119,-3.1258,-3.1461,-3.136,-3.1399,-3.2241,-3.3581,-3.4871,-3.5438,-3.6577,-3.736,-3.702,-3.7537,-3.7972,-3.7721,0.0,0.0,0.0,0.0,0.0,0.0,-3.308,-3.1987,-3.1263,-3.1393,0.0,0.0,0.0,0.0,-3.1833,-3.1833,0.0,0.0,0.0,0.0,0.0,-3.8633,-3.9343,-4.0087,-4.0087,-4.0087,-4.0087,-4.0087,-4.0087,-4.0087,-4.0087,-4.0392,-4.0899,-4.1339,-4.1711,-4.2049,-4.3031,-4.3301,-4.3166,-4.3944,-4.4248,-4.4282,-4.2016,-4.2929,-4.391,-4.5432,-4.6278,-4.6515,-4.5838,-4.6312,-4.6549,-4.5805,-4.5094,-4.4891,-4.5669,-4.5703,-4.5094,-4.3606,-4.3436,-4.2794,-4.1339,-4.1238,-4.0865,0.0,0.0,-3.9749,-3.9039,-3.8294,-3.7178,-3.5622,0.0,0.0,-3.2313,0.0,-3.119,-3.119,-3.119,-3.119,-3.119,-3.119,-3.119,-3.119,-3.119,-3.119,-3.119,-3.119,-3.119,-3.119,-3.119,-3.119,-3.119,-3.119,-3.119,-3.119,-3.119,-3.119,-3.119,-3.119,-3.119,-3.119,-3.119,-3.119,-3.136,-3.207,-3.1732,-3.1924,-3.4639,-3.4723,-3.4774,-3.6743,-3.6786,-3.6416,-3.6416,-3.7496,-3.8132,-3.7352,0.0,0.0,0.0,0.0,0.0,0.0,-3.3727,-3.2814,-3.1326,0.0,0.0,0.0,0.0,0.0,0.0,0.0,0.0,-3.3423,-3.5588,0.0,-3.7889,-3.8633,-3.9343,-4.0087,-4.0087,-4.0087,-4.0087,-4.0087,-4.0087,-4.0087,-4.0087,-4.0087,-4.0223,-4.1677,-4.1847,-4.1373,-4.2828,-4.2963,-4.2388,-4.3166,-4.3436,-4.3538,-4.2117,-4.2895,-4.3403,-4.3369,-4.4451,-4.5026,-4.4248,-4.435,-4.4418,-4.4181,-4.3504,-4.3098,-4.3369,-4.3369,-4.3166,0.0,-4.2185,-4.1711,0.0,-4.073,-4.0324,-4.0087,-4.0087,-3.9749,-3.9005,-3.8294,-3.7144,-3.5622,0.0,0.0,0.0,-3.3051,-3.2442,-3.1901,-3.1427,-3.119,-3.119,-3.119,-3.119,-3.119,-3.119,-3.119,-3.119,-3.119,-3.119,-3.119,-3.119,-3.119,-3.119,-3.119,-3.1529,-3.1833,-3.136,-3.119,-3.119,-3.119,-3.119,-3.119,-3.119,-3.1562,-3.2002,-3.2205,-3.2476,-3.2923,-3.3809,-3.4479,-3.5401,-3.6885,-3.7443,-3.7712,-3.7712,-3.8042,-3.8231,-3.7984,-3.8105,0.0,0.0,0.0,0.0,0.0,-3.3739,-3.342,0.0,-3.3332,0.0,0.0,0.0,0.0,0.0,0.0,0.0,0.0,-3.5622,0.0,-3.8633,-3.887,-3.9343,-4.0087,-4.0087,-4.0087,-4.0087,-4.0087,-4.0087,-4.0087,-4.0087,-4.0358,-4.0899,-4.1373,-4.1711,-4.1982,-4.2455,-4.2489,-4.232,-4.2557,-4.2963,-4.347,-4.1373,-4.2083,-4.2455,-4.1982,-4.2895,-4.3572,-4.3064,-4.2997,-4.2997,-4.2997,-4.2354,-4.188,-4.188,-4.1644,0.0,-4.1847,-4.1474,-4.1068,-4.0798,-4.0358,-4.0087,-4.0087,-4.0087,-3.9749,-3.9005,-3.8294,0.0,-3.6062,-3.5487,-3.4675,-3.366,-3.3186,-3.2577,-3.1867,-3.1393,-3.119,-3.119,-3.119,-3.119,-3.119,-3.119,-3.119,-3.119,-3.119,-3.119,-3.119,-3.119,-3.119,-3.119,-3.119,-3.1664,-3.2138,-3.1427,-3.1393,-3.1562,-3.1258,-3.119,-3.119,-3.119,-3.1529,-3.2002,-3.2544,-3.2848,-3.3119,-3.3694,-3.4669,-3.5704,-3.6681,-3.7335,-3.7812,-3.7942,-3.7983,-3.7983,-3.7983,-3.7145,-3.6306,-3.5814,0.0,0.0,0.0,0.0,0.0,0.0,-3.4867,-3.5533,0.0,0.0,0.0,0.0,0.0,0.0,-3.5588,-3.6434,0.0,-3.8971,-3.9452,-3.9973,-4.0417,-4.0625,-4.072,-4.072,-4.0514,-4.0417,-4.0368,-4.0204,-4.0358,-4.0798,-4.1102,-4.1305,-4.1474,-4.1779,-4.1711,-4.1508,-4.1779,-4.2185,-4.2625,-4.0087,-4.0696,0.0,0.0,-4.1779,0.0,-4.2219,-4.2219,-4.2219,-4.2219,-4.1576,-4.1136,-4.1136,-4.0493,-4.0358,-4.1068,0.0,0.0,0.0,-4.0087,-4.0087,-4.0087,-4.0087,-3.9715,-3.8937,-3.8261,-3.7516,-3.6705,-3.5284,-3.3829,-3.2442,-3.2374,-3.1968,-3.1258,-3.1224,-3.119,-3.119,-3.119,-3.119,-3.119,-3.119,-3.119,-3.119,-3.119,-3.119,-3.119,-3.119,-3.1224,-3.1258,-3.1224,-3.1732,-3.2307,-3.1461,-3.1732,-3.2205,-3.1427,-3.123,-3.1269,-3.1269,-3.1303,-3.1636,-3.3093,-3.2991,-3.2882,-3.4235,-3.5115,-3.5756,-3.6318,-3.6703,-3.7024,-3.7525,-3.7577,-3.7508,-3.7474,-3.6236,-3.5278,-3.5174,0.0,0.0,0.0,0.0,0.0,0.0,-3.6506,-3.6505,0.0,0.0,0.0,0.0,0.0,-3.6422,-3.5802,-3.7902,-3.9054,-3.9073,-4.0281,-4.0886,-4.0932,-4.1516,-4.181,-4.1768,-4.1161,-4.092,-4.0874,-4.0319,-4.0087,-4.0121,-4.0832,-4.0696,-4.0155,-4.0865,-4.0696,-4.0155,-4.0865,-4.117,-4.1305,0.0,0.0,-4.1035,-4.046,-4.1441,-4.2117,-4.1542,-4.1474,-4.1474,-4.1474,-4.0798,-4.0358,-4.0358,-4.0189,-4.0155,-4.0324,-4.0358,-4.0257,-4.0087,-4.0087,-4.0087,-4.0087,-4.0087,-3.9478,-3.8193,-3.799,-3.7246,-3.5893,-3.552,-3.4878,-3.3964,-3.3389,-3.2747,-3.2043,-3.1427,-3.119,-3.119,-3.119,-3.119,-3.119,-3.119,-3.119,-3.119,-3.119,-3.119,-3.119,-3.119,-3.1562,-3.1935,-3.1393,-3.2442,-3.3626,-3.1799,-3.207,-3.2882,-3.1562,-3.1428,-3.166,-3.166,-3.2107,-3.2796,-3.3687,-3.4396,-3.4912,-3.5284,-3.5487,-3.5836,-3.6548,-3.7204,-3.7868,-3.852,-3.8146,-3.7602,-3.707,-3.6019,-3.4817,-3.3713,-3.4016,-3.4376,0.0,-3.6067,-3.7133,-3.6911,-3.7995,-3.8614,0.0,0.0,0.0,0.0,-3.919,-3.8868,-3.7895,-3.8997,-3.9658,-3.9817,-4.0521,-4.1115,-4.1595,-4.1725,-4.181,-4.1768,-4.1161,-4.092,-4.0874,-4.0319,-4.0087,-4.0087,-4.0257,-4.0257,-4.0087,-4.0257,-4.0223,-4.0087,-4.029,-4.0696,-4.1289,-4.0087,-4.0392,-4.0561,-4.0155,-4.073,-4.1136,-4.0764,-4.0696,-4.0696,-4.0696,-4.0324,-4.0087,-4.0087,-4.0087,-4.0087,-4.0087,-4.0087,-4.0087,-4.0087,-4.0087,-3.9918,-3.958,-3.958,-3.9039,-3.7922,-3.7584,-3.6806,-3.5622,-3.5622,-3.5216,-3.4472,-3.3761,-3.3186,-3.2747,-3.1664,-3.1393,-3.1664,-3.1326,-3.119,-3.119,-3.119,-3.119,-3.119,-3.119,-3.119,-3.119,-3.119,-3.1461,-3.1732,-3.1326,-3.2205,-3.322,-3.1698,-3.1968,-3.2747,-3.1935,-3.1743,-3.1771,-3.1771,-3.2397,-3.3222,-3.4088,-3.4959,-3.5723,-3.6062,-3.6163,-3.6366,-3.7144,-3.7889,-3.8531,-3.8937,-3.8396,-3.7746,-3.716,-3.6027,-3.4936,-3.3945,-3.4588,-3.539,-3.5977,-3.7402,-3.8542,-3.9061,-3.9999,-4.0221,-3.9423,-4.0035,0.0,-3.9577,-4.0922,-4.0915,-3.9232,-3.9915,-4.0366,-4.0431,-4.1013,-4.1603,-4.2221,-4.1937,-4.181,-4.1768,-4.1161,-4.092,-4.0874,-4.0319,-4.0087,-4.0087,-4.0087,-4.0087,-4.0087,-4.0087,-4.0087,-4.0087,-4.0087,-4.0324,-4.0765,-4.0087,-4.0087,-4.0087,-4.0087,-4.0087,-4.0087,-4.0087,-4.0087,-4.0087,-4.0087,-4.0087,-4.0087,-4.0087,-4.0087,-4.0087,-4.0087,-4.0087,-4.0087,-4.0087,-3.9986,-3.9648,-3.9005,-3.887,-3.8497,-3.7753,-3.6874,-3.6163,-3.5622,-3.552,-3.5115,-3.4472,-3.3863,-3.3457,-3.3186,-3.1901,-3.163,-3.207,-3.1461,-3.119,-3.119,-3.119,-3.119,-3.119,-3.119,-3.119,-3.119,-3.119,-3.1326,-3.1529,-3.1393,-3.2002,-3.2645,-3.1799,-3.2036,-3.2577,-3.2476,-3.229,-3.2154,-3.2227,-3.2854,-3.3606,-3.4338,-3.5148,-3.596,-3.6741,-3.6932,-3.7191,-3.8031,-3.8676,-3.9151,-3.9253,-3.867,-3.8037,-3.7759,-3.6475,-3.5384,-3.5155,0.0,-3.6576,-3.7954,-3.8793,-3.9753,-4.1001,-4.1846,-4.1442,-3.9386,-4.1662,-4.2029,-3.957,-4.1882,-4.2375,-4.0263,-4.0847,-4.1115,-4.1059,-4.1516,-4.2062,-4.2577,-4.2021,-4.181,-4.1768,-4.1161,-4.092,-4.0874,-4.0319,-4.0087,-4.0087,-4.0087,-4.0087,-4.0087,-4.0087,-4.0087,-4.0087,-4.0087,-4.0154,-4.0303,-4.0087,-4.0087,-4.0087,-4.0087,-4.0087,-4.0087,-4.0087,-4.0087,-4.0087,-4.0087,-4.0087,-4.0087,-4.0087,-4.0087,-4.0087,-4.0087,-4.0087,-4.0087,-4.0087,-3.9512,-3.9106,-3.9005,-3.8396,-3.7719,-3.6975,-3.5554,-3.5115,-3.5622,-3.4979,-3.4607,-3.4506,-3.437,-3.366,-3.2442,-3.2205,-3.1833,-3.136,-3.1258,-3.119,-3.119,-3.119,-3.119,-3.119,-3.119,-3.119,-3.119,-3.119,-3.2002,-3.2949,-3.2341,-3.3457,-3.4878,-3.3491,-3.3558,-3.4032,-3.3423,-3.3488,-3.3821,-3.4233,-3.4869,-3.5314,-3.4661,-3.5554,-3.6741,-3.7353,-3.7627,-3.8065,-3.9273,-3.9606,-3.9882,-4.0504,-3.987,-3.9236,-3.9252,-3.7681,-3.6464,-3.6492,0.0,-3.8303,-3.8559,-4.0455,-4.1589,-4.1148,-4.1846,-4.2139,-4.1772,-4.1589,-4.1846,-4.269,-4.258,-4.2412,-4.2243,-4.2386,-4.218,-4.1682,-4.1768,-4.1853,-4.1937,-4.1853,-4.181,-4.1768,-4.1161,-4.092,-4.0874,-4.0319,-4.0087,-4.0087,-4.0087,-4.0087,-4.0087,-4.0087,-4.0087,-4.0087,-4.0087,-4.0368,-4.0874,-4.0087,-4.0087,-4.0087,-4.0087,-4.0087,-4.0087,-4.0087,-4.0087,-4.0087,-4.0087,-4.0087,-4.0087,-4.0087,-4.0087,-4.0087,-4.0087,-3.9715,-3.9512,-3.9512,-3.9174,-3.8633,-3.7821,-3.7483,-3.6941,-3.6163,-3.5081,-3.4675,-3.5013,-3.4269,-3.41,-3.4472,-3.41,-3.3761,-3.3423,-3.2645,-3.2104,-3.1765,-3.136,-3.119,-3.119,-3.119,-3.119,-3.119,-3.119,-3.119,-3.1258,-3.163,-3.2205,-3.2814,-3.2848,-3.3558,-3.4303,-3.3626,-3.3626,-3.3931,-3.3964,-3.4069,-3.4272,-3.515,-3.5968,-3.66,-3.6626,-3.7443,-3.8382,-3.8712,-3.887,-3.9215,-4.0216,-4.04,-4.0596,-4.1261,-4.0369,-3.9593,-3.9866,-3.8474,0.0,0.0,-3.8999,-3.968,-4.0524,-4.1625,-4.2323,-4.2396,-4.2727,-4.2763,-4.2323,-4.2359,-4.2543,-4.2837,-4.291,-4.299,-4.3142,-4.2846,-4.2577,-4.2302,-4.2302,-4.2302,-4.2302,-4.1937,-4.181,-4.181,-4.1473,-4.1385,-4.134,-4.078,-4.0528,-4.048,-4.0204,-4.0087,-4.0138,-4.0417,-4.0528,-4.0577,-4.0908,-4.115,-4.1473,-4.0087,-4.0087,-4.0087,-4.0087,-4.0087,-4.0087,-4.0087,-4.0087,-4.0087,-4.0087,-4.0087,-4.0087,-4.0087,-3.9918,-3.9817,-3.9817,-3.9174,-3.8667,-3.8497,-3.8464,-3.7956,-3.684,-3.6603,-3.6129,-3.5385,-3.4607,-3.4235,-3.4235,-3.3694,-3.3795,-3.4472,-3.3931,-3.3964,-3.4438,-3.2949,-3.2313,-3.228,-3.1495,-3.119,-3.119,-3.119,-3.119,-3.119,-3.119,-3.119,-3.1292,-3.2036,-3.2408,-3.2645,-3.3423,-3.3761,-3.3931,-3.3931,-3.3931,-3.4032,-3.4573,-3.4772,-3.4985,-3.6133,-3.7177,-3.8,-3.8312,-3.9128,-3.9899,-4.0165,-4.0228,-4.0498,-4.1191,-4.1296,-4.1429,-4.1937,-4.0962,-4.0339,-4.0854,0.0,0.0,0.0,-4.0451,-4.0928,-4.2139,-4.247,-4.28,-4.3424,-4.3497,-4.324,-4.2616,-4.313,-4.3204,-4.2616,-4.3167,-4.3497,-4.3497,-4.3105,-4.2808,-4.2693,-4.2693,-4.2616,-4.2498,-4.2021,-4.181,-4.181,-4.181,-4.181,-4.1768,-4.1296,-4.1115,-4.1105,-4.0672,-4.0514,-4.0563,-4.0967,-4.1115,-4.1161,-4.1639,-4.1895,-4.2062,-4.0087,-4.0087,-4.0087,-4.0087,-4.0087,-4.0087,-4.0087,-4.0087,-4.0087,-4.0087,-4.0087,-4.0087,-4.0087,-3.9478,-3.9073,-3.9073,-3.8396,-3.7686,-3.6975,-3.6941,-3.6907,-3.6772,-3.6096,-3.5351,-3.4607,-3.3863,-3.3491,-3.3491,-3.3423,-3.3795,-3.4506,-3.4438,-3.4438,-3.4438,-3.2949,-3.2313,-3.228,-3.1495,-3.119,-3.119,-3.119,-3.119,-3.119,-3.119,-3.119,-3.1292,-3.2036,-3.2747,-3.3423,-3.4167,-3.4878,-3.5453,-3.5453,-3.5453,-3.5453,-3.552,-3.6039,-3.6819,-3.7848,-3.9078,-3.9805,-3.8673,-3.9514,-4.0775,-4.1243,-4.1502,-4.1824,-4.2422,-4.2577,-4.2577,-4.2616,-4.2341,-4.2331,-4.3133,0.0,0.0,-4.1992,-4.2103,-4.2176,-4.2286,-4.2947,-4.3424,-4.3497,-4.3497,-4.3461,-4.3424,-4.3461,-4.3461,-4.3387,-4.3461,-4.3497,-4.3497,-4.3463,-4.3214,-4.2693,-4.2693,-4.2422,-4.1853,-4.181,-4.181,-4.181,-4.181,-4.181,-4.181,-4.1768,-4.1725,-4.1725,-4.1682,-4.1682,-4.1682,-4.1725,-4.1725,-4.1768,-4.181,-4.2144,-4.2655,-3.9986,-3.9715,-3.9546,-3.9986,-4.0087,-4.0087,-4.0087,-4.0087,-4.0087,-4.0087,-3.9681,-3.9411,-3.9411,-3.8768,-3.8328,-3.8328,-3.7652,-3.7077,-3.6806,-3.6332,-3.6062,-3.6062,-3.5791,-3.525,-3.4506,-3.3795,-3.3423,-3.3423,-3.2476,-3.2645,-3.3795,-3.3355,-3.3119,-3.3085,-3.2544,-3.2036,-3.1596,-3.1326,-3.1461,-3.1867,-3.1867,-3.2138,-3.251,-3.2036,-3.2171,-3.2611,-3.2882,-3.3457,-3.4201,-3.4945,-3.5385,-3.5622,-3.5622,-3.596,-3.6502,-3.7449,-3.8414,-3.9293,-3.9629,-4.0126,-4.0584,-4.0782,-4.1651,-4.2412,-4.2262,-4.2286,-4.2422,-4.2655,-4.2693,-4.277,-4.3142,-4.2734,-4.2543,-4.3351,0.0,-4.1552,-4.2873,-4.2616,-4.2506,-4.2983,-4.3314,-4.3497,-4.3497,-4.3497,-4.3497,-4.3497,-4.3497,-4.3497,-4.3497,-4.3497,-4.3497,-4.3497,-4.3497,-4.3391,-4.3214,-4.3214,-4.3069,-4.2847,-4.2847,-4.2847,-4.2847,-4.2847,-4.2847,-4.2847,-4.2501,-4.2342,-4.2342,-4.1937,-4.181,-4.1853,-4.2221,-4.2342,-4.2382,-4.2734,-4.2995,-4.3214,-3.9309,-3.9174,-3.914,-3.9648,-3.9918,-3.9986,-3.9783,-3.9749,-3.9648,-3.9411,-3.8971,-3.8633,-3.8633,-3.799,-3.755,-3.755,-3.684,-3.64,-3.64,-3.5926,-3.552,-3.5284,-3.5047,-3.4573,-3.3829,-3.3322,-3.2949,-3.2713,-3.2171,-3.2408,-3.3389,-3.3119,-3.3085,-3.3322,-3.2848,-3.2476,-3.2205,-3.2002,-3.2292,-3.2895,-3.2693,-3.3073,-3.3571,-3.2897,-3.2949,-3.3423,-3.366,-3.4066,-3.4607,-3.5351,-3.5622,-3.5622,-3.5622,-3.6163,-3.7055,-3.8512,-3.9638,-4.0546,-4.1085,-4.1279,-4.1483,-4.2118,-4.291,-4.3391,-4.3032,-4.2921,-4.2921,-4.2921,-4.2921,-4.3069,-4.3463,-4.3057,-4.2873,-4.3387,-4.258,-4.2249,-4.3314,-4.302,-4.2873,-4.3424,-4.3497,-4.3497,-4.3497,-4.3497,-4.3497,-4.3497,-4.3497,-4.3497,-4.3497,-4.3497,-4.3497,-4.3497,-4.3497,-4.3497,-4.3497,-4.3497,-4.3497,-4.3497,-4.3497,-4.3497,-4.3497,-4.3497,-4.3497,-4.3497,-4.3105,-4.2921,-4.2921,-4.2501,-4.2346,-4.2346,-4.2808,-4.2921,-4.2995,-4.3356,-4.3497,-4.3497,-3.7922,-3.8497,-3.8971,-3.8971,-3.958,-3.9817,-3.9106,-3.9005,-3.8734,-3.799,-3.7889,-3.7889,-3.7889,-3.7212,-3.6772,-3.6772,-3.6062,-3.5622,-3.5622,-3.5622,-3.5284,-3.4539,-3.3795,-3.3085,-3.2307,-3.2307,-3.1935,-3.119,-3.2679,-3.3389,-3.3423,-3.4134,-3.4878,-3.5554,-3.4066,-3.3795,-3.4438,-3.3728,-3.3721,-3.4164,-3.3639,-3.3721,-3.4125,-3.3598,-3.3423,-3.3525,-3.4235,-3.4506,-3.4607,-3.5385,-3.5622,-3.5622,-3.5656,-3.6163,-3.7046,-3.8328,-3.9232,-4.0219,-4.2167,-4.2693,-4.2627,-4.2404,-4.291,-4.3497,-4.3497,-4.3497,-4.3497,-4.3497,-4.3497,-4.3497,-4.3497,-4.3497,-4.3497,-4.3497,-4.3497,-4.3497,-4.3497,-4.3497,-4.3497,-4.3497,-4.3497,-4.3497,-4.3497,-4.3497,-4.3497,-4.3497,-4.3497,-4.3497,-4.3497,-4.3497,-4.3497,-4.3497,-4.3497,-4.3497,-4.3497,-4.3497,-4.3497,-4.3497,-4.3497,-4.3497,-4.3497,-4.3497,-4.3497,-4.3497,-4.3497,-4.3497,-4.3497,-4.3497,-4.3497,-4.3497,-4.3497,-4.3497,-4.3497,-4.3497,-4.3497,-4.3497,-3.7821,-3.7652,-3.7618,-3.8125,-3.8836,-3.9073,-3.8328,-3.8667,-3.8734,-3.799,-3.7449,-3.711,-3.711,-3.6434,-3.596,-3.596,-3.5284,-3.4844,-3.4844,-3.4844,-3.4742,-3.4506,-3.4776,-3.437,-3.3085,-3.3085,-3.2713,-3.1968,-3.1901,-3.2374,-3.3389,-3.3085,-3.3355,-3.4066,-3.3592,-3.37,-3.4278,-3.4071,-3.4357,-3.4966,-3.48,-3.4905,-3.5095,-3.4457,-3.4506,-3.4912,-3.4607,-3.4844,-3.5385,-3.6163,-3.6434,-3.6603,-3.7652,-3.8423,-3.9066,-3.9974,-4.1024,-4.1976,-4.2544,-4.2958,-4.3249,-4.3169,-4.3314,-4.3497,-4.3497,-4.3497,-4.3497,-4.3497,-4.3497,-4.3497,-4.3497,-4.3497,-4.3497,-4.3497,-4.3497,-4.3497,-4.3497,-4.3497,-4.3497,-4.3497,-4.3497,-4.3497,-4.3497,-4.3497,-4.3497,-4.3497,-4.3497,-4.3497,-4.3497,-4.3497,-4.3497,-4.3497,-4.3497,-4.3497,-4.3497,-4.3497,-4.3497,-4.3497,-4.3497,-4.3497,-4.3497,-4.3497,-4.3497,-4.3497,-4.3497,-4.3497,-4.3497,-4.3497,-4.3497,-4.3497,-4.3497,-4.3497,-4.3497,-4.3497,-4.3497,-4.3497,-3.6907,-3.6874,-3.6907,-3.7381,-3.8058,-3.8328,-3.7584,-3.7821,-3.7855,-3.711,-3.6603,-3.6332,-3.6332,-3.5893,-3.5622,-3.5622,-3.4945,-3.4506,-3.4506,-3.4235,-3.4066,-3.4066,-3.4506,-3.4201,-3.2983,-3.3254,-3.3051,-3.2313,-3.2442,-3.2814,-3.3423,-3.3525,-3.3694,-3.3863,-3.4134,-3.444,-3.4741,-3.4741,-3.5105,-3.5723,-3.5476,-3.5617,-3.583,-3.5203,-3.5216,-3.5554,-3.5115,-3.5216,-3.569,-3.6399,-3.7006,-3.7629,-3.8881,-3.9658,-4.0289,-4.0961,-4.1895,-4.2732,-4.2957,-4.325,-4.3497,-4.3497,-4.3497,-4.3497,-4.3497,-4.3497,-4.3497,-4.3497,-4.3497,-4.3497,-4.3497,-4.3497,-4.3497,-4.3497,-4.3497,-4.3497,-4.3497,-4.3497,-4.3497,-4.3497,-4.3497,-4.3497,-4.3497,-4.3497,-4.3497,-4.3497,-4.3497,-4.3497,-4.3497,-4.3497,-4.3497,-4.3497,-4.3497,-4.3497,-4.3497,-4.3497,-4.3497,-4.3497,-4.3497,-4.3497,-4.3497,-4.3497,-4.3497,-4.3497,-4.3497,-4.3497,-4.3497,-4.3497,-4.3497,-4.3497,-4.3497,-4.3497,-4.3497,-4.3497,-4.3497,-4.3497,-3.5622,-3.6197,-3.6671,-3.6671,-3.7313,-3.755,-3.6806,-3.6738,-3.6502,-3.5723,-3.5622,-3.5622,-3.5622,-3.5622,-3.5588,-3.552,-3.4844,-3.437,-3.4303,-3.3728,-3.3423,-3.3423,-3.3423,-3.3085,-3.2408,-3.3051,-3.3085,-3.2374,-3.3728,-3.41,-3.3525,-3.4878,-3.5182,-3.4607,-3.5318,-3.5622,-3.5667,-3.5667,-3.5941,-3.6333,-3.5854,-3.5941,-3.6249,-3.5766,-3.5622,-3.5667,-3.5667,-3.5677,-3.5844,-3.6422,-3.7481,-3.8734,-3.9474,-4.0263,-4.0994,-4.1463,-4.2155,-4.2882,-4.3356,-4.3497,-4.3497,-4.3497,-4.3497,-4.3497,-4.3497,-4.3497,-4.3497,-4.3497,-4.3497,-4.3497,-4.3497,-4.3497,-4.3497,-4.3497,-4.3497,-4.3497,-4.3497,-4.3497,-4.3497,-4.3497,-4.3497,-4.3497,-4.3497,-4.3497,-4.3497,-4.3497,-4.3497,-4.3497,-4.3497,-4.3497,-4.3497,-4.3497,-4.3497,-4.3497,-4.3497,-4.3497,-4.3497,-4.3497,-4.3497,-4.3497,-4.3497,-4.3497,-4.3497,-4.3497,-4.3497,-4.3497,-4.3497,-4.3497,-4.3497,-4.3497,-4.3497,-4.3497,-4.3497,-4.3497,-4.3497,-4.3497,-3.5622,-3.5757,-3.5859,-3.5859,-3.6502,-3.6772,-3.5994,-3.64,-3.6502,-3.5723,-3.5622,-3.5622,-3.5622,-3.5622,-3.5385,-3.4776,-3.4066,-3.3389,-3.278,-3.3152,-3.3423,-3.3423,-3.3423,-3.3322,-3.3186,-3.3322,-3.3322,-3.3152,-3.3491,-3.3863,-3.4269,-3.4573,-3.4979,-3.5385,-3.5554,-3.581,-3.6207,-3.6207,-3.6291,-3.6374,-3.6249,-3.6071,-3.5766,-3.5667,-3.5854,-3.6207,-3.6207,-3.6498,-3.6961,-3.7853,-3.9013,-4.0164,-4.0517,-4.1379,-4.2325,-4.2402,-4.2886,-4.3356,-4.3463,-4.3497,-4.3497,-4.3497,-4.3497,-4.3497,-4.3497,-4.3497,-4.3497,-4.3497,-4.3497,-4.3497,-4.3497,-4.3497,-4.3497,-4.3497,-4.3497,-4.3497,-4.3497,-4.3497,-4.3497,-4.3497,-4.3497,-4.3497,-4.3497,-4.3497,-4.3497,-4.3497,-4.3497,-4.3497,-4.3497,-4.3497,-4.3497,-4.3497,-4.3497,-4.3497,-4.3497,-4.3497,-4.3497,-4.3497,-4.3497,-4.3497,-4.3497,-4.3497,-4.3497,-4.3497,-4.3497,-4.3497,-4.3497,-4.3497,-4.3497,-4.3497,-4.3497,-4.3497,-4.3497,-4.3497,-4.3497,-4.3497,-3.5622,-3.5318,-3.5216,-3.5554,-3.5656,-3.5656,-3.5622,-3.596,-3.6096,-3.569,-3.5622,-3.5622,-3.5622,-3.5622,-3.5453,-3.5081,-3.4032,-3.3254,-3.2848,-3.251,-3.2341,-3.2341,-3.2341,-3.2632,-3.318,-3.3596,-3.385,-3.3931,-3.3931,-3.41,-3.4506,-3.5147,-3.5275,-3.5081,-3.5684,-3.5985,-3.6028,-3.6028,-3.6028,-3.6028,-3.6028,-3.5854,-3.5622,-3.5622,-3.5766,-3.6071,-3.6291,-3.6904,-3.7756,-3.8982,-4.0036,-4.0993,-4.1873,-4.2544,-4.3105,-4.3105,-4.3286,-4.3497,-4.3497,-4.3497,-4.3497,-4.3497,-4.3497,-4.3497,-4.3497,-4.3497,-4.3497,-4.3497,-4.3791,-4.3975,-4.3571,-4.3791,-4.3938,-4.3534,-4.3497,-4.3497,-4.3497,-4.3497,-4.3497,-4.3497,-4.3497,-4.3497,-4.3497,-4.3497,-4.3497,-4.3497,-4.3497,-4.3497,-4.3497,-4.3497,-4.3497,-4.3497,-4.3497,-4.3497,-4.3497,-4.3497,-4.3497,-4.3497,-4.3497,-4.3497,-4.3497,-4.3497,-4.3497,-4.3497,-4.3497,-4.3497,-4.3497,-4.3497,-4.3497,-4.3497,-4.3497,-4.3497,-4.3497,-4.3497,-4.3497,-4.3497,-3.525,-3.4742,-3.4506,-3.5148,-3.481,-3.4709,-3.5318,-3.5554,-3.5622,-3.5622,-3.5622,-3.5622,-3.5622,-3.5385,-3.525,-3.525,-3.3897,-3.3017,-3.3017,-3.1867,-3.119,-3.119,-3.119,-3.173,-3.2948,-3.3682,-3.4249,-3.4738,-3.4874,-3.4942,-3.4942,-3.6022,-3.5946,-3.5019,-3.6056,-3.6291,-3.5854,-3.5854,-3.581,-3.5722,-3.5854,-3.581,-3.5756,-3.5854,-3.5907,-3.6037,-3.6498,-3.7319,-3.8466,-3.9986,-4.085,-4.1556,-4.2917,-4.3428,-4.3497,-4.3497,-4.3497,-4.3497,-4.3497,-4.3497,-4.3497,-4.3497,-4.3497,-4.3497,-4.3497,-4.3497,-4.3497,-4.3497,-4.4158,-4.4452,-4.3644,-4.4158,-4.4452,-4.3608,-4.3497,-4.3497,-4.3497,-4.3497,-4.3497,-4.3497,-4.3497,-4.3497,-4.3497,-4.3497,-4.3497,-4.3497,-4.3497,-4.3497,-4.3497,-4.3497,-4.3497,-4.3497,-4.3497,-4.3497,-4.3497,-4.3497,-4.3497,-4.3497,-4.3497,-4.3497,-4.3497,-4.3497,-4.3497,-4.3497,-4.3497,-4.3497,-4.3497,-4.3497,-4.3497,-4.3497,-4.3497,-4.3497,-4.3497,-4.3497,-4.3497,-4.3497,-3.3694,-3.3626,-3.3592,-3.3694,-3.4134,-3.4539,-3.4607,-3.5216,-3.5622,-3.5622,-3.5622,-3.5622,-3.5622,-3.4472,-3.3694,-3.3694,-3.2341,-3.1495,-3.1495,-3.1292,-3.119,-3.119,-3.119,-3.173,-3.2948,-3.3127,-3.4045,-3.5709,-3.6488,-3.6841,-3.6841,-3.7023,-3.7023,-3.6841,-3.7023,-3.7058,-3.6981,-3.6981,-3.6741,-3.6333,-3.6786,-3.6741,-3.6333,-3.6786,-3.7248,-3.7614,-3.7685,-3.8534,-3.9808,-4.089,-4.165,-4.2219,-4.2667,-4.3142,-4.3497,-4.3497,-4.3497,-4.3497,-4.3497,-4.3497,-4.3497,-4.3497,-4.3497,-4.3497,-4.3497,-4.3497,-4.3497,-4.3497,-4.4158,-4.4452,-4.3644,-4.4158,-4.4452,-4.3608,-4.3497,-4.3497,-4.3497,-4.3497,-4.3497,-4.3497,-4.3497,-4.3497,-4.3497,-4.3497,-4.3497,-4.3497,-4.3497,-4.3497,-4.3497,-4.3497,-4.3497,-4.3497,-4.3497,-4.3497,-4.3497,-4.3497,-4.3497,-4.3497,-4.3497,-4.3497,-4.3497,-4.3497,-4.3497,-4.3497,-4.3497,-4.3497,-4.3497,-4.3497,-4.3497,-4.3497,-4.3497,-4.3497,-4.3497,-4.3497,-4.3497,-4.3497,-3.3423,-3.3085,-3.3051,-3.3863,-3.3931,-3.4167,-3.5013,-3.5047,-3.4979,-3.4979,-3.4641,-3.437,-3.437,-3.3795,-3.3423,-3.3423,-3.2408,-3.1799,-3.1799,-3.1427,-3.119,-3.119,-3.119,-3.1526,-3.2291,-3.3036,-3.4199,-3.5717,-3.6256,-3.65,-3.6463,-3.6791,-3.6791,-3.65,-3.6791,-3.7041,-3.7173,-3.7173,-3.7058,-3.6865,-3.7097,-3.7058,-3.6865,-3.7097,-3.7323,-3.7578,-3.8329,-3.914,-4.0088,-4.1462,-4.2079,-4.2399,-4.2959,-4.3286,-4.3497,-4.3497,-4.3497,-4.3497,-4.3497,-4.3497,-4.3497,-4.3497,-4.3497,-4.3497,-4.3497,-4.3497,-4.3608,-4.4085,-4.4452,-4.4745,-4.4819,-4.4745,-4.4599,-4.4232,-4.3791,-4.3497,-4.3497,-4.3497,-4.3497,-4.3497,-4.3497,-4.3497,-4.3497,-4.3497,-4.3497,-4.3497,-4.3497,-4.3497,-4.3497,-4.3497,-4.3497,-4.3497,-4.3497,-4.3497,-4.3497,-4.3497,-4.3497,-4.3497,-4.3497,-4.3497,-4.3497,-4.3497,-4.3497,-4.3497,-4.3497,-4.3497,-4.3497,-4.3497,-4.3497,-4.3497,-4.3497,-4.3497,-4.3497,-4.3497,-4.3497,-4.3497]}]]